GFSNGP_250_spd_000.txt.gz
Wind_Speed
82 84 82 77 75 74 72 67 68 61 60 59 58 56 53 52 54 51 54 57 58 58 59 60 62 63 63 64 63 63 62 61 62 61 62 62 53 65 59 59 67 64 68 71
84 86 86 83 78 78 76 74 70 66 63 63 61 58 57 57 57 56 59 63 64 62 63 65 64 65 66 68 66 66 64 66 65 62 55 42 48 69 77 71 73 69 74 83
87 86 86 89 81 79 77 77 73 68 66 68 65 62 63 64 62 63 66 66 66 66 69 69 68 70 69 69 67 66 63 66 62 58 47 48 51 59 70 76 76 74 83 87
88 91 95 83 83 83 81 80 75 71 70 70 67 68 70 68 68 71 72 71 71 71 71 72 72 70 67 64 62 61 61 62 61 57 50 50 48 54 62 72 83 87 84 87
89 91 87 86 85 85 83 80 76 73 72 69 69 75 71 69 72 76 74 73 70 72 70 67 64 65 66 66 67 66 66 67 62 55 51 46 48 58 67 77 82 81 84 90
89 93 92 85 82 83 82 80 74 71 71 68 71 75 73 74 75 76 74 70 69 68 63 62 66 69 69 71 70 68 67 66 65 66 53 48 58 63 68 75 81 81 82 73
91 91 89 85 85 85 84 77 74 69 70 72 74 75 76 76 76 72 70 65 66 67 70 69 72 70 70 72 72 70 69 67 64 59 53 48 51 53 61 71 74 75 71 58
90 91 89 86 84 84 80 79 73 70 73 72 74 74 74 76 73 72 70 71 70 73 73 75 76 75 76 77 77 73 70 63 61 54 51 50 54 58 58 59 62 68 71 57
86 87 86 85 83 81 79 78 74 75 75 72 75 73 74 76 78 76 78 75 74 75 79 80 82 82 79 78 75 72 69 64 56 51 51 52 58 57 58 63 69 69 70 67
80 86 83 82 82 80 80 79 77 75 76 77 78 80 81 82 80 79 79 78 79 79 80 81 80 81 78 75 74 67 68 51 53 44 50 50 63 63 63 66 65 71 75 79
66 73 78 81 79 78 79 81 81 80 78 77 78 80 79 81 84 85 86 83 82 80 78 80 80 78 76 73 68 68 67 58 46 54 56 58 65 67 70 77 83 86 88 88
67 64 65 63 80 81 79 80 82 80 78 80 80 80 82 85 85 84 81 78 79 77 77 79 72 72 74 71 71 68 68 56 55 70 68 76 77 80 78 77 76 83 87 90
80 67 67 54 55 66 74 79 78 76 78 80 81 80 81 84 81 81 79 77 76 75 74 71 73 73 70 68 67 72 73 79 75 73 75 80 83 86 88 91 94 95 96 100
76 76 74 72 76 77 73 76 74 74 71 74 79 78 80 81 80 76 75 75 72 72 73 75 72 66 68 67 73 75 79 81 83 78 76 79 82 82 86 90 94 99 99 94
66 65 67 63 74 77 72 74 73 76 79 79 76 78 72 69 71 72 71 71 73 73 74 77 74 73 77 79 82 86 88 89 81 80 81 80 82 89 90 94 97 93 80 79
73 67 73 76 80 82 76 69 72 74 72 69 69 72 69 69 68 70 73 74 77 80 80 78 82 82 84 86 91 91 96 85 80 81 83 88 90 89 94 98 84 80 87 89
81 73 67 70 69 65 63 64 71 71 69 67 69 68 70 70 71 74 75 76 78 80 83 82 88 90 88 93 94 91 86 85 89 88 87 92 95 102 95 83 90 91 94 97
77 70 67 66 65 64 63 63 66 66 66 69 68 70 70 71 70 70 73 78 79 83 87 91 95 96 99 93 93 97 90 94 93 91 95 98 96 87 90 93 95 97 98 95
68 67 65 65 64 64 64 61 64 64 65 65 65 67 72 74 74 76 77 80 85 90 93 91 93 90 82 81 83 85 87 91 94 94 93 92 93 97 100 100 99 96 84 77
61 62 61 61 61 62 61 61 62 61 61 60 63 64 66 68 72 76 84 86 82 76 74 75 75 73 73 74 77 79 83 88 91 93 97 99 100 98 98 95 88 80 73 67
58 61 62 62 60 59 59 57 58 58 58 59 61 61 59 58 58 57 57 59 61 64 66 69 72 76 80 84 87 90 92 93 95 97 96 93 91 86 81 75 70 66 63 59
62 60 58 57 56 59 59 58 61 60 58 59 60 61 60 59 59 61 64 66 69 71 73 76 79 82 86 90 91 92 90 85 79 74 72 69 67 65 63 62 61 58 55 52
64 61 59 61 62 61 59 60 60 59 60 61 62 63 63 65 68 70 72 75 76 76 78 80 83 86 84 78 73 67 63 62 62 60 59 57 55 55 54 54 53 53 51 50
68 70 70 68 64 63 63 65 66 67 66 66 67 69 71 73 75 77 79 79 79 80 81 83 78 70 61 57 57 53 52 51 51 52 53 53 51 50 49 49 47 45 43 44
67 67 65 65 69 71 71 71 71 71 71 71 73 75 76 78 78 78 78 79 81 79 71 66 59 55 51 51 49 48 47 46 46 46 48 48 46 44 45 45 43 43 43 41
61 62 62 63 64 67 69 70 70 71 71 73 73 74 75 76 77 77 80 80 71 67 58 55 52 48 45 44 43 43 43 44 43 43 42 42 43 43 43 43 44 43 43 43
63 63 63 63 64 65 66 67 67 68 69 70 73 75 75 76 79 78 73 67 60 55 50 46 43 43 43 43 41 40 39 40 40 41 43 44 45 45 44 44 45 46 45 45

GFSNGP_250_spd_003.txt.gz
Wind_Speed
97 94 93 89 86 81 76 68 64 58 61 64 63 61 60 58 55 56 55 57 56 55 54 54 54 55 56 59 59 59 58 57 55 52 52 49 46 49 46 45 50 62 67 67
100 98 98 94 90 87 81 75 71 68 64 65 66 63 61 58 56 58 59 61 61 57 56 56 57 60 62 63 63 64 62 59 56 52 49 50 49 41 48 47 49 70 73 75
101 102 104 103 96 92 86 79 75 70 66 70 68 65 63 62 59 60 62 64 63 61 60 60 62 67 69 69 67 65 61 58 54 52 55 55 55 51 50 53 52 61 73 78
101 106 111 94 92 90 87 83 82 76 73 76 73 69 67 63 62 64 66 69 68 67 64 64 68 72 72 71 69 65 60 57 56 56 59 60 58 55 56 61 68 73 79 80
96 108 103 98 96 94 91 87 83 80 78 78 76 73 70 66 69 72 73 76 74 72 68 70 71 73 73 71 67 60 57 58 60 59 62 66 63 67 68 68 65 71 77 77
83 100 100 96 95 95 93 91 86 83 83 80 78 76 74 73 74 75 78 78 75 72 71 71 71 72 72 69 64 61 62 64 66 67 69 69 72 70 68 62 64 70 76 78
76 88 93 95 94 94 96 87 84 84 80 79 78 78 78 78 77 76 77 77 77 75 72 72 70 68 67 66 65 65 67 68 73 74 73 72 72 74 71 68 68 68 72 77
70 80 86 92 94 94 91 89 88 83 79 79 78 80 81 79 78 78 77 77 77 76 72 70 67 66 65 66 68 70 73 75 76 74 76 74 70 68 68 70 65 66 68 70
66 77 82 87 90 91 89 90 88 82 82 81 78 79 78 77 75 77 75 75 76 75 73 72 69 68 69 70 72 74 75 76 76 76 72 72 72 72 70 65 59 57 60 62
46 71 64 80 84 89 88 87 84 82 81 80 78 78 77 77 74 74 78 77 76 77 76 74 72 71 73 75 74 76 75 71 71 66 70 71 69 66 63 62 63 69 73 73
57 45 50 51 69 82 85 85 83 81 81 80 80 78 79 78 76 76 77 76 75 78 79 75 74 72 73 76 76 72 70 65 66 71 75 69 67 72 70 69 73 78 77 74
60 62 58 52 48 67 77 83 81 80 80 78 79 78 78 77 77 78 79 77 78 80 78 75 74 75 76 75 73 70 69 71 71 70 66 64 68 72 76 77 83 82 76 77
66 49 46 51 45 48 57 75 81 81 79 83 80 80 79 78 78 77 79 82 81 77 77 77 76 76 75 72 68 72 73 73 70 72 69 72 78 79 79 83 85 77 73 75
55 55 53 54 47 45 56 58 61 68 73 74 75 80 81 79 76 78 80 79 80 78 79 77 72 69 70 71 75 76 71 67 72 75 79 82 82 88 87 88 86 82 79 85
66 61 62 68 49 62 52 54 62 54 59 58 64 67 68 70 75 77 78 77 74 70 68 68 72 72 74 75 74 74 76 77 78 79 83 86 88 90 94 96 91 86 86 87
73 70 66 65 68 59 56 62 53 58 65 63 62 63 64 62 65 62 65 67 69 69 69 73 75 74 75 74 75 81 83 86 86 87 91 93 96 98 95 86 81 83 85 85
72 66 63 57 73 63 64 65 64 65 67 64 69 66 62 61 65 67 68 67 66 69 72 74 74 75 77 79 83 87 91 89 92 95 99 94 91 89 87 83 81 79 83 86
90 85 74 73 78 71 72 78 70 67 68 72 70 68 68 62 61 64 64 62 67 72 74 75 76 76 80 83 89 90 91 92 96 100 91 83 82 84 84 84 86 89 92 95
100 93 83 81 77 77 74 74 77 69 71 73 67 61 60 61 62 61 65 68 72 74 75 75 74 76 80 85 88 88 84 83 79 79 80 82 85 88 91 94 96 97 97 95
99 97 87 83 81 78 76 76 73 64 62 62 61 60 61 61 65 66 68 70 71 69 70 72 74 75 75 73 74 74 76 78 82 84 86 89 94 97 99 96 90 83 78 72
91 104 96 88 90 82 84 71 68 71 68 66 63 61 60 62 65 67 67 65 65 66 67 68 68 69 71 74 76 78 81 84 88 93 97 99 98 88 76 71 67 64 63 62
75 89 94 83 79 81 83 85 78 72 70 65 59 60 62 63 62 64 65 65 66 67 68 70 72 74 76 78 82 85 88 91 93 94 93 83 71 64 61 60 58 57 54 53
62 61 61 65 70 74 65 64 66 67 66 63 63 63 63 64 65 67 67 69 70 71 72 74 76 79 82 85 87 90 91 92 86 77 68 63 60 57 56 54 52 50 47 47
67 70 69 67 64 66 65 64 65 65 63 64 65 66 68 70 69 69 71 74 76 77 78 81 83 84 87 89 89 89 83 74 66 60 56 53 49 45 44 44 43 41 41 43
72 68 66 67 68 64 63 64 66 67 67 69 72 75 75 73 74 76 79 81 84 85 85 84 85 85 84 85 83 75 66 57 51 47 45 45 45 43 40 39 40 39 39 40
70 78 72 71 71 71 75 74 74 75 76 78 80 79 79 82 83 85 87 88 86 84 82 82 81 81 80 74 65 57 50 48 47 46 43 39 37 38 40 41 42 43 43 43
78 75 71 72 76 78 77 79 79 77 76 75 76 78 79 80 80 80 80 80 79 79 79 79 78 72 63 55 51 49 47 42 39 39 39 40 42 43 44 46 48 50 50 49

GFSNGP_250_spd_006.txt.gz
Wind_Speed
90 97 103 101 97 95 93 82 78 67 65 66 67 76 71 66 58 56 54 55 55 55 52 49 48 49 49 53 53 52 54 55 57 57 58 58 51 45 42 46 49 49 56 54
86 93 105 106 103 98 96 92 84 79 70 71 73 78 75 67 63 61 61 62 61 59 55 54 52 52 53 57 56 57 59 61 62 62 60 54 53 48 48 47 50 54 56 57
78 91 99 108 105 102 96 96 92 85 72 78 79 81 77 73 67 66 65 66 64 62 58 57 54 55 61 62 61 63 65 66 64 62 59 55 53 51 52 54 55 56 63 63
76 84 95 95 103 104 102 98 94 91 86 80 82 83 81 74 70 68 68 68 67 65 61 59 57 61 64 67 66 69 70 68 66 65 59 55 52 54 57 61 64 68 68 69
67 80 85 86 97 106 105 101 96 91 89 84 82 83 85 76 74 72 71 72 71 68 64 62 61 66 69 71 71 72 71 69 68 65 62 59 59 61 63 68 69 70 71 74
65 71 75 87 87 94 104 101 95 93 87 86 85 90 88 81 78 77 75 75 74 71 69 66 69 72 74 72 73 73 74 72 68 64 64 64 64 67 70 72 72 72 73 69
63 67 72 78 83 88 98 94 98 95 93 90 89 96 90 85 83 80 78 78 78 76 75 74 75 76 74 74 74 72 72 70 70 67 64 66 71 73 75 75 73 71 71 71
61 62 66 67 72 82 86 90 97 96 95 94 90 92 89 87 85 83 82 82 81 81 80 79 77 77 79 76 73 71 70 71 71 71 71 73 74 75 75 73 71 70 72 72
59 61 54 55 64 67 73 82 92 96 95 95 93 91 87 87 87 85 86 85 83 83 82 79 81 79 80 75 72 69 69 71 72 72 75 77 77 76 76 75 74 75 75 67
53 53 46 51 55 61 69 75 83 91 93 94 92 90 88 85 85 84 82 83 83 83 80 80 80 77 78 76 73 71 71 72 73 74 75 75 74 74 74 75 76 74 70 73
47 46 46 48 53 56 60 67 74 83 90 90 87 86 85 85 85 82 80 79 81 79 78 79 77 77 79 75 74 73 73 74 75 74 73 72 73 73 74 77 79 78 76 75
43 42 34 38 47 57 54 59 71 76 82 84 82 83 82 82 84 82 79 77 78 79 76 77 78 79 78 75 73 73 74 75 75 71 74 71 72 74 78 81 80 78 78 78
45 39 34 33 30 39 43 49 48 65 75 77 80 80 80 79 79 78 79 76 82 82 80 81 81 80 78 76 75 75 73 72 72 69 71 74 76 81 84 81 82 82 84 83
41 49 39 28 30 39 38 36 41 49 57 71 74 75 77 77 78 77 79 77 80 82 79 78 79 78 77 78 74 71 69 68 68 72 74 79 83 81 80 81 81 83 83 85
52 60 52 45 44 31 36 43 38 34 32 47 54 67 74 77 77 77 77 77 79 81 80 77 77 77 74 72 72 70 70 72 74 75 80 83 84 83 83 82 83 84 86 84
68 62 62 56 53 49 50 50 43 39 48 51 41 49 51 56 65 65 65 69 73 74 69 73 76 75 73 70 69 73 74 76 76 81 83 84 85 86 85 84 83 80 78 77
60 65 61 57 66 77 63 47 51 48 54 49 45 49 49 51 53 62 56 56 62 61 65 66 65 65 70 71 74 76 77 79 82 81 83 84 83 81 81 80 80 81 84 83
68 67 69 71 70 67 61 54 53 55 56 52 49 53 52 50 53 56 57 61 62 64 66 67 68 70 72 73 74 76 77 80 82 81 80 80 79 79 79 81 85 86 87 90
71 74 72 67 59 68 69 68 63 65 66 64 58 61 59 57 67 65 70 67 68 67 71 71 72 70 67 70 74 75 78 79 77 77 78 78 77 79 84 87 89 91 92 94
77 80 75 69 66 56 61 60 62 69 70 68 71 72 68 66 70 76 76 73 73 78 71 70 66 65 68 73 74 74 77 77 77 76 77 79 81 84 88 90 93 93 94 83
76 80 76 80 74 73 61 63 66 62 57 56 60 66 68 70 73 69 74 70 67 67 69 69 68 68 73 76 74 76 76 76 76 78 80 83 85 89 91 92 92 88 75 68
52 72 84 84 87 79 78 80 78 76 76 77 75 73 77 77 76 72 73 74 72 70 73 71 71 74 74 75 76 77 77 79 81 83 86 88 89 91 91 90 81 71 62 55
59 63 67 76 80 86 91 92 92 89 90 88 90 87 81 80 76 73 76 78 81 81 76 74 76 78 77 78 79 81 84 85 86 89 91 90 89 88 86 74 64 55 47 44
72 70 69 68 70 70 76 88 100 104 102 94 90 94 97 91 89 81 78 81 80 77 75 76 74 74 77 79 82 85 88 89 91 93 90 88 86 78 67 56 47 45 43 39
71 79 79 75 73 66 70 74 80 86 91 90 87 95 97 91 85 89 87 77 77 80 79 80 81 83 82 83 86 88 89 89 88 87 86 82 71 59 50 46 43 39 36 36
75 74 74 76 74 76 73 71 73 72 72 72 81 80 75 75 75 75 78 78 79 81 81 82 85 84 84 86 85 84 85 85 84 83 76 65 54 48 43 41 39 37 37 38
79 74 72 76 74 76 74 78 78 77 75 79 78 75 75 77 78 78 80 83 86 85 83 81 83 85 85 84 85 85 82 83 80 71 62 54 49 46 43 41 41 41 41 42

GFSNGP_250_spd_009.txt.gz
Wind_Speed
63 69 77 84 98 99 100 93 90 80 81 76 73 69 73 65 63 64 61 56 53 53 51 51 47 51 48 50 53 54 54 52 52 54 53 54 56 57 57 56 56 56 52 53
62 61 74 80 88 101 101 99 95 91 86 81 79 77 74 75 69 68 65 61 59 57 55 54 52 54 54 56 59 57 55 54 56 59 59 58 60 61 60 58 55 55 53 55
61 61 70 80 76 87 99 102 99 97 85 89 87 81 74 76 80 76 71 66 64 63 60 60 59 58 57 61 62 60 57 60 63 62 62 64 64 63 59 59 56 55 54 56
64 69 66 56 74 83 95 103 105 101 98 95 88 83 79 77 87 82 77 71 64 66 65 64 63 61 60 65 64 64 64 66 67 67 66 66 66 65 64 62 61 60 57 58
71 65 57 59 75 78 84 93 100 103 99 97 93 87 85 81 90 86 83 76 72 73 72 70 68 65 64 68 68 68 71 71 71 72 70 71 70 68 67 67 65 62 63 65
70 63 58 57 67 70 78 81 94 103 104 102 97 95 84 86 86 93 95 81 76 80 77 75 71 69 68 71 72 74 75 75 75 74 75 73 72 72 71 69 69 70 70 72
66 61 56 66 57 65 73 75 87 97 102 104 103 96 95 89 92 96 98 86 84 85 82 80 77 74 74 75 76 78 78 77 77 75 76 76 75 74 73 71 71 73 74 76
64 65 63 54 57 63 69 68 74 90 99 105 104 104 96 91 96 100 98 91 90 87 86 84 82 79 78 79 80 81 81 79 78 77 76 76 74 74 73 74 76 76 76 77
66 65 58 51 59 66 68 67 66 76 93 100 106 102 99 100 99 99 97 93 90 86 89 86 84 82 81 83 84 83 82 82 80 78 75 76 76 74 74 76 76 76 79 81
70 58 52 56 59 61 62 60 60 64 81 93 99 102 102 102 100 98 95 91 87 86 87 87 84 85 85 85 84 82 83 82 79 76 75 74 76 78 78 77 76 79 82 82
61 56 56 54 56 54 54 53 53 54 67 80 86 92 98 98 97 95 92 89 88 86 86 83 81 81 81 81 81 81 80 78 77 75 74 78 79 79 79 78 81 81 82 81
45 62 56 49 48 48 46 40 30 38 52 58 74 82 85 93 93 92 91 89 88 87 85 82 81 81 80 78 78 78 78 79 78 77 78 80 78 78 80 80 81 82 83 84
56 60 59 48 44 44 42 40 36 35 41 49 53 55 71 78 85 87 86 85 83 82 82 81 80 80 81 81 80 78 78 77 79 80 79 79 82 83 83 80 82 84 84 85
46 42 43 42 38 36 39 44 39 35 40 40 50 58 62 66 74 78 80 79 78 77 80 77 75 75 77 79 82 81 79 80 76 79 81 81 79 79 77 79 80 81 84 88
54 38 33 31 29 26 27 29 26 32 32 34 38 40 46 56 64 70 72 72 72 73 73 71 74 72 73 71 77 77 70 72 74 74 73 74 75 77 80 80 78 81 86 85
44 31 27 39 33 29 28 33 27 29 32 29 25 20 24 33 43 52 62 70 71 67 64 66 69 72 74 77 74 68 68 68 72 73 71 74 75 77 78 80 82 80 83 82
52 51 43 46 43 40 52 51 45 39 31 36 26 27 24 21 23 27 37 47 54 54 48 52 63 57 61 67 68 62 67 69 66 68 73 77 76 76 76 79 82 83 79 79
51 48 54 56 52 49 55 42 49 44 45 45 37 34 38 39 42 41 46 48 50 49 48 52 59 61 61 64 66 66 62 68 70 72 72 74 76 78 79 82 83 83 81 81
49 49 63 60 62 64 60 56 54 51 50 48 49 48 46 49 57 52 59 56 55 51 58 61 62 62 63 66 69 68 65 69 69 73 73 75 77 80 83 84 84 83 82 86
54 56 69 67 68 63 62 60 66 68 58 50 52 56 57 52 55 59 64 60 58 59 65 64 66 72 72 74 79 80 79 75 74 76 77 77 77 82 84 83 84 87 90 92
55 55 76 67 62 74 73 68 68 70 71 64 60 60 59 60 57 61 67 68 70 72 70 74 73 75 78 78 79 83 83 82 79 81 82 82 82 84 84 85 87 90 91 93
52 52 56 61 70 66 75 79 78 79 76 74 74 68 70 71 73 71 68 75 77 80 80 78 80 75 77 81 77 78 81 86 86 88 87 85 88 87 89 87 90 91 92 85
60 57 63 65 68 72 68 69 69 67 60 57 60 63 67 72 73 67 69 72 73 69 70 73 80 80 82 80 85 85 89 90 85 87 89 89 88 90 89 93 92 90 86 83
64 62 63 71 69 67 74 77 79 77 74 72 72 70 70 74 76 79 82 81 80 86 89 89 91 90 93 96 98 88 85 84 88 88 88 90 93 94 93 88 84 84 82 71
56 56 59 63 70 78 79 76 78 84 86 82 82 82 84 85 88 89 87 88 89 89 93 84 89 88 90 87 85 86 83 86 84 94 93 93 88 88 84 82 80 78 70 59
57 61 68 76 73 74 75 75 79 84 87 88 91 94 94 97 100 103 99 99 105 106 104 102 93 93 90 90 86 84 82 82 83 87 84 82 81 81 81 80 77 71 59 53
63 65 70 76 76 79 82 82 81 83 86 89 91 94 97 97 99 101 99 98 98 92 90 87 83 85 86 81 83 84 85 87 86 81 81 81 80 80 79 78 73 61 56 52

GFSNGP_250_spd_012.txt.gz
Wind_Speed
66 69 72 59 54 62 69 81 91 82 84 80 83 77 77 75 67 61 62 65 56 55 53 51 52 52 49 49 47 49 51 52 49 51 53 55 54 54 53 53 56 58 62 65
79 74 72 65 63 56 59 67 82 87 88 87 84 85 82 83 77 70 65 66 62 61 56 58 56 56 55 53 54 54 56 57 54 57 59 59 58 57 57 57 58 59 63 64
86 76 75 73 41 56 60 66 74 85 87 91 94 93 91 87 83 74 70 71 65 64 64 63 61 62 61 59 59 60 61 61 59 62 64 64 61 59 59 60 61 64 65 65
85 81 78 45 65 61 58 65 71 75 81 91 96 96 93 90 86 82 74 77 70 69 68 66 67 64 64 63 64 66 66 66 65 67 68 68 64 62 64 66 66 67 66 66
79 74 64 64 61 64 63 56 63 72 77 85 95 98 100 96 93 88 85 75 77 81 74 72 68 71 69 67 67 70 72 69 70 69 69 69 69 67 69 71 71 71 71 70
72 69 61 54 65 64 64 55 67 71 73 81 87 100 97 97 96 94 90 87 81 93 84 69 76 76 73 72 71 76 76 75 74 75 73 72 73 73 74 76 76 75 75 74
70 68 64 67 68 67 67 53 56 60 68 74 82 86 90 99 102 100 96 92 90 98 87 78 79 79 80 78 76 78 79 79 81 80 79 78 79 79 80 79 79 79 77 76
74 68 67 67 60 48 58 55 54 59 57 62 72 80 88 99 102 102 100 94 92 102 92 85 84 82 82 81 79 80 82 83 84 85 84 82 83 84 83 82 81 79 78 79
71 63 65 66 68 69 68 58 54 58 66 72 60 66 79 88 97 99 100 100 99 97 95 89 86 85 85 83 83 82 84 86 88 89 87 86 86 87 84 81 80 76 75 78
71 67 70 67 68 64 62 57 57 55 59 61 60 58 65 73 84 94 99 102 105 98 95 91 88 89 87 87 87 86 87 89 89 88 87 87 84 83 81 79 76 75 76 78
63 65 63 62 63 59 57 54 53 47 47 51 51 52 57 64 74 85 92 97 99 98 97 94 91 90 90 88 86 86 88 88 87 86 85 83 82 79 77 79 79 77 78 81
61 60 52 52 55 52 57 55 47 42 44 39 30 21 24 34 46 66 82 89 92 96 98 95 92 90 87 86 84 83 83 82 83 82 80 78 78 76 79 79 76 78 79 82
61 55 44 43 44 52 45 38 39 40 37 29 27 22 11 28 41 43 51 74 85 91 94 94 92 89 87 86 85 84 83 81 81 79 78 78 76 76 79 76 75 79 81 80
48 44 42 45 47 40 35 32 33 35 33 31 42 37 37 47 48 52 46 53 71 79 81 82 82 81 81 79 77 76 74 76 76 76 77 75 79 79 73 73 78 78 76 79
50 54 49 55 62 47 38 41 35 40 33 34 53 51 56 53 49 54 51 48 52 57 61 65 66 67 69 69 70 72 71 69 73 70 68 72 73 71 67 69 69 74 76 81
61 64 62 47 46 40 38 36 34 39 34 40 50 58 58 59 60 63 58 51 45 48 51 54 54 57 61 64 65 66 69 67 68 66 69 74 74 74 73 71 67 71 73 80
69 64 56 55 48 40 35 33 33 28 27 26 23 26 30 41 46 42 40 42 44 47 49 43 52 58 56 57 55 58 58 72 69 72 69 75 83 80 73 67 67 71 73 81
73 67 67 63 53 48 43 34 31 32 29 25 27 26 20 28 19 22 24 28 27 29 35 42 51 54 52 55 58 65 74 74 79 80 78 76 72 71 71 77 81 80 82 88
70 69 69 69 44 46 43 43 42 39 39 37 35 32 38 32 28 29 29 35 33 30 37 39 43 44 47 56 57 59 66 75 74 71 73 69 71 78 81 79 81 81 84 85
70 68 69 72 66 52 51 51 45 46 50 41 45 46 41 47 37 46 44 43 45 40 45 47 47 54 58 57 59 65 69 71 73 74 76 78 83 84 79 82 88 89 94 93
79 69 69 63 54 58 61 60 49 43 49 52 49 54 52 48 49 48 49 45 47 50 50 60 61 62 63 63 62 66 71 70 75 78 81 87 88 84 85 87 94 94 95 88
56 63 65 58 51 51 58 65 59 57 55 57 58 61 60 61 57 55 57 49 55 64 62 60 63 64 63 71 74 69 73 79 81 83 81 84 82 87 90 86 90 89 87 91
53 52 46 49 53 57 59 62 66 66 64 64 63 67 69 67 63 66 66 63 62 64 67 67 70 71 72 76 78 81 80 83 78 75 78 80 89 84 84 88 90 91 87 89
61 56 57 57 55 60 64 62 67 69 66 65 67 69 75 75 74 75 74 73 73 77 81 82 81 84 85 82 88 84 77 77 83 85 89 92 85 100 98 85 80 83 80 87
64 61 61 66 62 66 67 66 69 70 79 78 77 77 76 78 81 81 83 84 78 79 83 78 78 82 83 83 81 81 84 92 92 92 93 100 95 89 86 81 82 84 84 83
55 65 66 68 67 68 69 73 74 76 84 86 85 85 89 89 89 90 85 82 82 83 83 86 88 87 87 89 91 95 99 101 104 106 107 102 90 90 88 88 89 87 85 84
56 61 65 69 72 72 74 74 75 75 80 83 84 84 90 90 92 93 93 92 90 92 91 92 94 95 97 100 103 105 108 110 113 106 104 97 95 95 91 89 87 85 87 84

GFSNGP_250_spd_015.txt.gz
Wind_Speed
70 72 75 64 59 54 53 42 47 46 57 71 82 82 80 76 74 73 70 67 61 51 51 50 53 50 50 48 47 49 51 52 53 52 50 51 52 54 54 53 53 54 55 54
80 77 78 74 62 59 56 51 47 45 52 57 70 88 85 84 82 78 75 71 68 61 57 55 55 55 55 53 51 52 55 57 58 58 55 55 58 58 57 54 55 58 58 58
85 83 86 86 62 68 66 56 54 40 45 60 63 75 85 87 87 83 80 81 73 68 62 61 60 61 61 60 57 56 60 62 63 64 61 61 62 61 60 60 61 62 63 63
94 90 93 71 74 73 73 61 54 49 52 57 58 63 74 87 92 91 79 84 80 76 68 62 64 64 65 65 64 63 64 68 69 69 67 66 66 64 63 66 66 67 68 67
101 98 86 79 77 81 80 62 64 54 49 52 58 60 64 71 86 90 87 90 84 87 76 73 72 67 65 68 69 69 69 71 74 74 73 70 70 67 68 69 71 74 63 70
106 100 89 77 83 85 81 70 65 52 46 44 48 54 53 65 72 87 90 92 88 96 82 82 76 71 72 73 72 73 74 76 77 76 76 75 75 72 71 70 73 70 74 79
108 98 91 85 87 87 86 73 65 54 49 49 52 50 54 61 68 71 83 92 93 95 95 89 82 75 79 77 76 79 79 77 79 79 78 78 77 77 74 73 75 79 82 82
107 99 95 88 89 86 78 75 61 56 44 41 41 45 52 60 64 70 75 82 92 96 98 94 88 85 83 81 82 84 82 81 81 83 83 82 81 79 79 78 82 84 86 87
104 106 99 90 84 78 71 70 59 44 43 37 42 45 49 56 60 62 72 73 79 87 95 94 91 90 92 89 87 87 88 87 87 86 87 86 82 81 82 85 87 87 88 87
93 96 94 88 80 78 68 49 41 42 53 46 48 46 46 51 59 58 60 64 68 79 84 85 90 92 96 97 93 90 89 90 91 91 90 89 86 85 88 88 88 88 84 80
86 82 76 72 69 37 39 37 36 38 43 50 50 47 46 47 49 41 42 46 49 57 69 76 79 84 91 95 94 93 93 90 91 92 91 91 90 88 87 85 84 81 81 82
85 76 65 60 62 34 37 43 56 53 55 39 34 36 37 23 11 12 20 37 33 36 47 58 66 74 77 85 92 93 89 89 89 90 88 87 85 82 80 82 80 79 79 79
70 57 56 60 52 54 61 53 59 55 36 34 33 26 15 27 23 19 18 39 78 47 38 47 50 59 63 71 77 86 89 86 82 75 80 80 76 80 78 77 77 75 77 74
66 61 61 54 48 52 56 60 53 47 35 27 28 23 42 42 45 8 10 37 61 58 46 52 55 50 55 62 70 72 68 73 79 81 73 77 79 76 77 76 73 68 69 67
64 67 63 54 50 54 54 59 50 39 30 26 21 36 55 46 38 38 32 48 45 51 45 54 55 52 47 50 53 59 63 62 60 61 62 65 67 70 67 64 61 58 67 69
64 57 63 65 59 55 58 66 59 42 38 29 29 55 56 49 41 35 49 55 51 41 52 63 51 40 42 46 49 51 47 54 56 56 55 61 59 59 60 59 60 64 68 73
66 63 68 70 64 52 51 46 48 50 49 40 37 51 63 58 51 45 47 53 55 47 58 55 48 36 35 44 50 36 46 53 56 58 48 56 59 56 62 68 63 65 73 81
59 73 68 57 58 58 53 50 50 50 42 35 40 44 73 67 63 60 59 59 57 58 59 55 52 46 44 44 43 46 55 55 57 57 54 48 50 60 60 61 66 73 80 81
59 61 63 53 53 54 49 48 46 42 44 38 41 42 71 77 73 69 64 60 58 45 48 43 45 41 42 37 38 42 48 56 60 61 59 51 55 58 63 64 65 71 73 74
55 53 57 60 62 59 54 55 47 45 41 36 36 42 54 74 70 62 46 42 41 40 49 32 36 48 42 43 43 41 49 46 43 46 54 56 58 67 71 73 72 76 72 78
55 59 59 61 63 60 60 53 47 39 36 40 42 47 48 48 54 52 44 42 46 42 52 45 54 56 50 46 45 44 57 54 57 63 59 60 66 69 70 71 75 79 78 79
61 61 64 65 67 66 69 60 49 50 44 48 49 51 48 49 51 50 50 53 52 51 55 53 57 59 57 57 51 54 58 63 67 65 67 66 71 76 79 81 82 82 77 82
62 61 62 68 70 69 70 73 69 65 57 52 57 60 59 61 60 56 59 58 60 60 63 62 62 62 65 63 57 61 66 68 68 66 70 75 76 78 79 85 78 81 85 84
72 67 68 69 73 76 78 73 70 70 66 68 68 71 70 63 62 68 67 62 65 67 63 66 65 65 71 72 71 69 71 71 73 77 78 79 80 83 84 83 85 85 88 90
76 77 74 71 76 75 78 78 76 79 74 73 69 68 68 75 75 74 74 72 73 69 72 73 73 77 80 80 79 78 79 82 85 87 82 81 82 86 84 85 88 91 93 96
77 79 82 83 82 80 78 76 65 60 67 72 71 71 72 73 73 71 73 77 77 76 75 79 85 89 87 86 85 82 81 80 80 83 85 85 89 93 98 98 96 99 103 107
76 77 77 79 74 73 76 73 69 69 71 71 70 74 81 84 85 84 84 83 82 80 76 78 81 84 88 91 93 96 96 96 97 98 94 100 99 96 96 101 104 105 106 105

GFSNGP_250_spd_018.txt.gz
Wind_Speed
66 66 67 59 58 54 41 35 28 33 32 40 58 68 78 76 74 72 66 65 61 56 56 55 51 50 49 49 49 47 49 49 47 47 46 47 47 48 51 52 51 51 52 55
74 71 68 69 65 55 49 46 34 30 33 42 46 46 54 74 80 77 74 71 66 70 59 58 56 55 55 54 52 51 52 54 52 53 53 52 51 51 54 56 55 55 56 58
84 81 76 83 59 62 59 56 48 42 48 52 46 53 49 53 69 82 82 78 73 72 68 64 61 61 59 60 60 57 57 59 59 59 59 58 57 57 58 60 60 59 61 62
91 94 96 64 71 69 68 64 59 51 48 52 47 43 52 47 51 66 78 84 81 79 79 74 70 65 63 65 66 65 64 63 64 65 66 65 62 63 63 64 64 62 64 66
102 102 93 84 73 75 76 68 68 59 53 51 54 51 48 55 49 52 62 71 83 86 83 82 77 73 68 68 67 68 67 68 70 71 71 70 68 68 68 69 68 66 69 70
111 109 102 88 85 80 83 79 71 64 56 53 55 55 55 57 54 52 55 63 73 84 89 89 85 80 78 72 71 71 73 74 76 75 73 74 74 73 72 74 71 71 72 74
120 114 105 96 92 90 91 76 74 69 58 58 51 49 54 58 54 58 55 59 62 69 80 86 89 85 83 80 75 75 77 80 79 82 80 78 80 80 80 77 74 74 75 74
127 124 115 105 102 99 89 85 75 69 58 54 55 55 55 56 58 57 54 55 60 62 68 73 82 85 85 84 81 83 84 82 83 82 83 82 85 85 83 81 82 77 71 56
128 127 120 107 103 99 92 85 78 69 63 63 58 56 49 53 56 54 52 54 58 56 59 63 66 71 78 84 87 86 87 87 89 89 88 88 90 88 88 87 88 85 80 81
127 124 118 104 102 96 93 84 79 69 58 59 58 55 47 45 51 51 49 54 56 55 52 50 49 50 57 67 68 73 80 86 90 91 91 91 90 89 90 93 93 89 85 76
118 120 114 100 95 91 83 75 66 56 55 59 53 58 47 46 47 55 56 51 49 54 52 45 40 35 37 39 47 54 57 62 72 75 78 82 85 85 76 76 80 82 78 77
102 108 104 92 88 72 73 62 62 65 64 57 49 46 40 32 34 40 44 46 54 51 48 46 48 36 25 25 37 41 44 48 57 58 54 58 61 50 56 59 59 65 74 77
102 99 90 75 78 71 53 55 55 56 58 49 42 42 40 36 34 31 45 47 38 30 19 32 37 51 68 65 66 52 38 44 45 38 31 66 54 51 78 89 82 79 78 74
96 96 75 71 69 68 64 47 40 46 49 46 48 45 39 43 37 47 41 27 17 6 18 13 25 48 88 74 44 41 30 34 68 58 61 80 73 67 82 85 88 83 79 77
84 87 74 68 68 64 62 53 45 39 46 49 52 42 37 33 44 42 45 42 29 33 17 11 44 52 70 51 44 63 64 54 59 51 56 66 74 67 69 75 77 76 72 66
68 67 57 62 63 64 60 53 61 55 57 58 43 31 41 55 54 55 57 49 29 36 45 61 63 67 67 67 73 54 58 52 49 52 54 57 53 56 60 63 67 56 63 65
44 48 56 57 58 67 67 63 69 68 68 53 47 45 43 47 65 64 56 51 43 46 47 56 75 79 71 56 42 40 32 34 40 43 43 44 42 43 44 44 53 47 56 56
47 49 58 61 58 63 64 63 67 57 54 63 56 47 44 49 73 72 65 63 56 48 51 55 61 61 56 47 43 43 31 32 36 34 38 43 39 38 54 54 54 57 63 56
52 56 60 58 68 64 65 64 58 52 54 54 50 51 52 45 44 52 66 70 78 68 59 55 53 57 60 46 50 60 49 51 45 47 45 44 48 52 50 53 58 66 68 68
50 56 58 62 60 59 56 64 55 48 50 49 49 51 51 49 46 47 51 78 75 78 76 67 64 66 56 57 59 57 54 55 59 57 48 48 52 62 60 59 58 58 56 57
61 61 59 54 60 59 63 66 60 54 48 50 49 50 50 53 52 55 48 53 62 77 83 83 79 80 77 75 61 59 55 54 57 57 56 57 54 57 56 57 59 61 64 65
52 57 61 63 56 49 52 55 54 57 60 58 52 52 52 59 61 58 51 52 60 69 77 85 90 87 80 80 68 65 62 60 61 67 68 70 64 54 52 57 62 66 69 73
51 51 61 61 59 56 56 57 61 58 58 60 60 58 62 61 61 60 56 52 53 58 65 70 77 76 71 66 66 62 61 66 68 65 60 65 65 69 60 69 65 68 72 72
47 48 50 52 54 53 55 57 63 63 63 66 65 65 64 59 61 59 60 62 66 68 64 73 84 84 75 75 71 65 66 67 68 69 72 76 78 82 79 76 74 79 83 83
53 51 53 53 53 56 60 64 66 69 71 72 72 70 66 62 65 66 70 70 71 70 70 70 78 88 87 80 76 76 73 73 74 76 75 77 80 86 88 90 89 88 87 90
64 64 62 63 67 68 68 68 69 71 73 74 77 78 78 78 82 84 82 80 82 82 77 80 82 80 83 85 85 85 82 80 81 82 83 84 86 89 92 95 97 99 98 94
68 67 68 70 70 68 70 73 75 76 76 78 79 81 85 87 88 89 88 87 88 86 84 83 86 87 85 87 89 89 90 89 91 93 93 95 94 95 97 100 98 98 100 100

GFSNGP_250_spd_021.txt.gz
Wind_Speed
67 65 62 56 51 46 35 32 28 39 38 44 42 33 31 43 62 66 65 62 60 59 60 57 54 54 53 52 51 45 46 48 45 45 47 46 47 48 48 50 49 50 50 50
72 68 69 64 56 48 42 41 38 39 30 42 48 42 33 36 40 51 64 69 67 65 64 62 63 64 63 57 56 54 51 52 50 49 52 51 51 52 52 54 54 54 56 56
79 80 78 71 48 53 50 47 45 40 45 48 46 48 44 38 37 41 45 52 66 74 73 70 68 70 67 65 61 57 57 57 58 57 57 57 56 55 57 59 59 59 60 61
86 91 87 59 65 64 60 55 50 46 49 47 46 49 48 41 39 40 48 44 51 67 79 77 76 74 76 75 68 63 62 62 63 64 64 63 62 61 61 62 62 63 64 65
94 98 84 77 76 76 71 62 59 53 51 49 49 48 43 44 41 39 38 43 47 52 59 76 81 80 80 80 75 72 69 68 71 72 70 67 67 67 67 67 65 65 65 67
99 97 88 82 84 82 81 74 63 59 56 57 55 48 46 50 46 46 44 42 44 50 54 60 71 82 87 85 83 78 76 76 75 74 72 72 72 71 72 70 69 70 69 71
106 102 92 90 89 88 91 63 72 66 62 63 59 53 54 51 52 53 50 50 50 44 48 55 67 75 81 88 87 86 86 84 82 79 78 76 76 75 78 80 80 77 78 78
106 102 94 95 94 92 85 80 76 73 68 66 64 62 61 58 57 58 57 57 54 50 48 53 60 66 69 75 80 85 87 86 84 82 84 82 81 82 83 84 85 82 81 80
113 106 99 100 98 95 89 82 82 77 74 72 70 66 65 61 62 61 61 59 58 54 50 53 53 57 56 56 60 65 69 68 70 74 80 83 84 84 88 93 85 83 85 86
116 109 106 105 103 96 90 81 81 81 80 76 73 70 69 65 61 62 64 62 55 56 57 51 50 51 52 55 53 54 56 54 51 48 52 63 62 63 76 73 65 61 65 70
125 121 116 110 105 95 82 80 80 79 83 81 80 76 70 67 66 65 66 61 57 54 53 53 61 54 50 50 48 48 49 42 21 28 33 39 41 43 32 29 35 45 55 54
119 122 120 116 109 104 93 87 75 81 88 85 83 82 75 71 72 72 59 59 54 47 46 55 59 52 44 43 42 43 36 20 20 27 28 34 37 33 27 25 26 30 49 45
92 106 110 102 80 70 84 107 89 88 89 90 84 87 85 81 76 70 53 57 41 42 53 54 45 47 38 39 37 36 24 19 27 26 23 11 19 30 20 33 32 74 41 58
76 98 98 87 86 109 78 72 79 83 78 79 78 77 71 73 62 51 42 45 53 52 44 37 32 33 25 39 43 40 42 31 18 20 33 22 25 29 28 41 47 63 57 71
67 89 95 99 101 98 97 79 71 76 84 79 71 71 74 70 57 46 49 49 45 41 42 43 38 26 12 19 32 47 64 45 35 21 32 60 54 46 39 49 63 70 76 74
63 86 92 95 93 83 80 74 76 74 69 67 65 62 53 56 55 45 47 48 51 52 49 49 44 34 16 15 32 41 51 44 43 55 72 71 70 75 63 58 70 78 85 89
58 79 84 91 82 85 86 69 61 63 62 64 65 55 54 53 63 56 51 47 53 55 57 59 48 43 34 17 17 40 52 44 48 61 71 71 65 62 69 79 83 86 87 92
58 69 80 89 89 82 66 55 62 63 60 65 61 54 55 58 59 56 51 55 56 58 61 63 58 55 42 32 27 33 41 49 57 63 65 69 66 70 74 83 91 92 96 93
55 71 86 86 93 92 83 60 61 55 53 57 66 60 62 54 52 56 56 57 57 62 61 51 64 63 57 44 41 42 48 59 68 70 71 72 79 80 77 80 81 83 76 64
43 58 79 76 84 87 59 65 60 57 64 65 64 63 60 58 59 58 57 59 65 65 64 53 53 63 66 57 46 49 47 48 50 54 55 59 59 46 59 64 73 72 68 74
39 35 34 36 35 51 62 70 64 58 60 68 69 64 66 62 62 64 64 67 69 71 67 61 63 60 66 75 69 63 61 58 60 60 58 59 66 68 71 74 80 84 90 94
42 44 34 38 37 42 54 66 69 75 62 68 66 69 68 72 73 72 71 73 79 79 78 71 69 71 70 76 77 82 80 77 74 73 73 77 79 83 85 90 83 90 86 81
34 39 45 44 45 50 57 56 62 66 72 71 70 64 68 67 79 75 75 75 77 77 84 77 76 74 77 68 70 71 79 86 89 88 88 90 93 90 92 91 93 82 77 75
38 38 39 45 49 48 49 44 54 59 64 63 64 67 67 66 70 75 80 75 73 73 71 75 79 74 74 72 72 77 84 85 85 84 83 86 86 85 83 89 84 78 76 78
43 42 46 47 51 54 58 55 54 55 58 63 63 68 71 73 73 77 76 77 76 74 73 75 75 80 77 77 72 73 77 81 88 90 96 91 89 90 92 87 84 83 79 83
47 46 47 49 55 59 61 63 64 65 62 61 63 65 69 70 73 73 74 77 80 80 81 80 81 81 81 83 79 78 84 81 79 84 87 87 87 89 89 92 95 90 89 93
56 59 58 59 60 63 64 64 67 73 74 74 75 74 75 75 77 79 81 83 85 86 86 86 88 87 87 87 89 91 90 90 86 88 91 93 92 96 95 95 95 98 103 103

GFSNGP_250_spd_024.txt.gz
Wind_Speed
71 69 65 55 52 51 44 38 29 34 32 40 34 25 18 23 45 56 57 55 54 53 52 53 52 52 52 51 49 45 43 45 47 45 44 41 42 43 42 43 44 45 45 47
79 73 70 63 56 56 53 47 41 38 35 44 43 29 23 26 22 28 37 50 59 60 60 60 59 60 59 58 57 54 53 51 50 50 49 50 48 48 49 48 48 49 51 51
87 81 76 69 62 58 58 53 48 40 41 48 47 38 28 27 28 27 26 31 37 51 66 67 67 66 66 68 66 61 60 58 58 57 59 60 57 54 55 54 54 55 57 58
92 87 81 72 69 65 61 58 51 47 46 46 50 46 40 30 28 29 30 32 36 38 40 50 68 75 74 71 69 67 70 63 64 65 65 64 64 61 60 60 61 61 62 64
93 89 77 76 75 73 65 59 55 51 52 55 51 48 43 42 37 35 36 35 37 40 42 47 50 53 61 72 75 75 78 73 71 71 71 70 68 66 65 63 63 66 67 68
97 91 83 79 80 78 67 62 65 57 52 54 52 46 47 50 46 40 38 37 33 39 42 42 47 52 54 58 62 68 77 81 81 80 78 74 75 75 73 71 71 71 72 75
101 97 87 82 81 80 75 59 65 61 59 57 52 49 52 50 48 47 44 42 43 42 42 44 47 51 55 60 59 62 66 72 80 84 84 84 81 83 77 78 76 76 76 77
103 97 91 87 85 85 74 72 71 68 66 63 60 59 59 57 56 54 56 54 51 48 44 43 47 52 59 62 65 63 61 61 65 69 74 76 76 81 79 79 77 75 74 74
99 87 87 87 92 86 79 77 77 77 75 71 67 65 64 63 60 62 64 59 56 54 52 49 46 45 50 57 65 64 56 58 60 62 63 53 64 65 68 69 65 61 44 40
99 90 86 90 93 91 87 83 81 81 81 77 73 70 70 69 67 66 68 66 62 60 57 57 52 47 48 55 62 64 57 56 61 58 61 60 60 52 62 56 44 32 32 5
103 96 92 90 90 91 91 90 87 87 84 82 77 75 74 74 72 70 69 69 69 64 63 61 57 56 54 51 51 50 55 59 59 55 53 53 49 57 70 39 35 24 20 27
103 103 95 94 94 93 89 86 89 83 81 85 83 81 79 80 78 74 72 71 71 74 70 66 62 59 61 58 49 51 62 63 53 47 41 45 46 40 49 46 35 33 33 28
90 96 104 101 95 96 93 91 79 72 74 77 81 86 86 82 77 73 73 75 78 77 73 70 67 68 66 65 56 59 58 53 50 44 45 45 33 19 21 28 16 18 20 24
69 76 93 106 105 100 92 89 90 89 84 77 81 79 85 83 82 82 80 81 82 79 74 70 75 69 63 65 62 58 60 48 43 46 47 40 30 28 18 16 14 10 13 38
52 59 73 93 99 101 101 93 94 93 93 93 91 83 75 81 85 84 83 82 78 75 76 71 72 66 60 65 65 65 58 44 38 39 43 34 38 33 25 20 22 26 26 34
41 50 58 72 85 97 97 90 86 88 88 97 97 101 95 85 84 85 86 77 73 72 72 66 66 63 63 65 60 57 47 35 25 50 26 29 46 54 46 46 54 53 60 53
36 41 50 59 76 86 80 75 72 64 82 72 84 94 99 106 102 84 86 82 79 78 79 73 62 67 63 58 55 40 34 23 42 45 35 55 59 76 73 64 51 50 60 74
28 41 48 47 70 75 73 80 86 79 72 69 73 81 83 89 95 104 103 99 82 73 72 68 71 65 65 60 55 55 48 36 51 59 63 59 58 72 84 73 72 70 66 64
24 35 53 76 78 78 96 93 90 82 76 71 69 69 70 79 81 82 83 79 78 74 68 70 73 62 62 62 62 57 50 44 46 44 56 63 62 66 85 85 76 70 66 76
12 29 46 63 62 67 74 69 80 97 101 97 88 89 86 85 81 82 78 76 64 69 73 71 68 63 62 60 62 51 61 55 46 41 38 39 57 60 65 72 79 76 74 75
15 42 32 52 71 75 75 76 73 69 67 76 77 75 77 73 71 62 58 51 62 69 71 72 72 70 64 62 67 60 62 55 64 62 58 49 45 59 65 70 69 75 80 81
18 49 51 53 66 83 79 90 90 73 73 64 51 64 65 71 69 62 62 57 67 69 70 71 73 72 69 66 65 68 63 71 75 74 71 68 60 62 62 68 73 75 79 80
15 31 58 60 53 60 71 81 73 62 64 69 77 69 72 72 63 64 61 62 69 72 72 72 74 76 72 70 70 70 67 65 71 81 79 81 80 77 78 80 74 76 80 81
20 17 29 37 37 37 34 35 59 73 74 75 78 72 67 70 58 59 66 68 72 77 78 77 74 76 79 78 71 72 69 71 67 75 78 83 76 77 79 84 84 86 85 85
28 31 33 41 40 30 34 42 40 39 41 47 51 60 56 59 63 65 67 71 73 75 77 79 80 81 82 81 78 76 77 77 75 76 79 78 85 89 85 83 79 79 75 75
33 31 30 31 35 37 40 40 42 46 50 50 54 57 60 64 65 68 73 74 78 83 81 81 83 86 86 86 84 85 84 82 83 80 76 76 77 79 82 80 81 80 78 79
43 48 46 48 48 47 48 49 52 56 58 60 65 66 67 66 70 74 77 76 83 85 86 84 86 93 94 96 97 95 96 96 96 95 95 90 89 87 90 89 87 87 89 91

GFSNGP_250_spd_027.txt.gz
Wind_Speed
76 72 66 61 55 47 44 38 32 39 36 36 33 28 27 30 47 58 58 55 51 48 46 44 44 47 47 48 46 46 46 45 45 44 45 41 42 42 41 42 43 44 43 44
79 78 73 66 59 53 48 44 40 38 35 41 36 30 29 27 22 35 52 59 57 54 51 51 52 53 54 53 52 50 49 49 49 47 47 47 47 46 48 48 49 48 49 50
84 81 77 72 63 60 56 53 51 41 41 48 40 33 32 32 27 24 23 30 48 58 59 58 60 59 58 59 56 55 55 54 56 56 57 55 54 54 55 56 55 55 56 57
91 85 83 71 69 65 60 54 53 48 46 49 47 45 36 32 31 30 31 29 30 32 36 46 51 56 57 59 60 60 61 60 61 62 64 60 60 61 62 62 61 61 61 62
97 91 81 79 74 69 64 57 55 52 54 51 52 53 45 43 39 38 39 37 35 35 33 32 36 42 43 41 44 51 61 67 70 70 69 67 68 69 69 68 66 66 67 66
100 94 88 80 82 78 72 63 61 58 57 59 55 51 49 51 47 46 43 43 42 39 37 37 37 38 40 43 44 49 52 55 56 60 64 64 67 71 73 73 70 72 72 71
102 99 93 87 86 82 77 69 67 64 61 61 58 55 60 56 52 49 48 47 44 43 43 42 40 37 39 42 45 51 51 50 52 52 54 55 55 58 59 55 63 68 70 71
99 96 90 91 92 87 82 78 74 70 68 64 64 64 61 59 58 55 52 50 49 49 48 43 43 43 40 38 39 41 44 48 53 55 58 54 51 46 48 69 65 55 54 56
96 90 91 94 90 88 88 85 80 75 73 69 68 68 67 64 59 57 55 53 52 49 48 47 48 48 47 46 46 45 42 44 47 52 56 56 54 48 46 43 47 63 69 53
89 90 92 92 92 89 87 83 81 77 76 74 73 72 69 66 64 61 58 57 57 56 54 52 53 51 51 52 52 49 46 48 50 55 57 57 60 48 51 50 52 49 56 57
85 84 93 97 96 94 89 87 84 80 77 75 74 76 75 72 70 67 66 64 63 63 61 60 60 60 59 58 59 56 53 52 53 58 60 56 57 57 49 48 55 55 49 59
89 92 89 99 100 96 94 94 91 85 82 81 79 77 77 77 77 75 73 72 70 68 69 68 67 67 66 64 62 61 59 56 57 60 60 60 58 60 55 52 51 64 61 56
104 97 90 94 95 94 94 94 90 87 86 80 84 78 79 79 80 79 79 78 77 75 74 74 75 72 70 69 67 63 62 60 61 62 64 64 59 55 51 51 53 49 50 52
102 102 93 91 90 92 94 94 90 88 87 78 75 78 83 82 78 75 82 83 81 79 78 79 79 76 75 72 68 62 61 60 62 67 56 57 54 52 49 49 50 46 49 50
70 91 102 94 91 91 92 94 94 94 93 94 84 85 85 83 81 83 81 82 83 86 85 82 82 80 80 75 71 65 64 62 65 66 61 57 51 51 46 32 25 34 45 47
49 66 86 100 97 92 91 93 94 96 97 95 93 89 86 86 89 90 85 82 85 82 80 80 80 79 80 78 71 69 66 64 58 59 65 47 46 42 39 28 30 30 32 41
39 50 64 79 93 104 103 98 95 97 96 95 95 91 88 90 84 81 85 84 81 78 79 79 78 81 80 78 72 66 65 62 55 65 55 44 45 44 37 40 43 36 73 79
42 48 56 66 75 92 106 106 102 99 95 95 96 93 90 90 87 95 84 79 84 87 91 84 79 76 73 72 70 73 67 64 65 70 59 48 54 33 29 43 42 59 56 76
40 30 48 56 64 75 83 96 100 104 101 101 96 90 91 89 88 83 88 91 95 96 94 95 91 92 94 88 76 78 75 76 84 73 64 53 56 52 49 55 57 56 61 59
39 35 42 45 47 52 52 43 73 93 90 87 95 93 91 96 101 98 101 99 93 97 98 96 100 103 101 95 90 87 91 82 74 68 70 57 63 62 65 70 68 66 68 61
41 37 36 57 58 55 57 59 56 58 62 61 66 76 88 92 88 88 94 92 95 98 95 90 84 81 77 80 78 81 80 74 76 70 73 69 68 66 71 71 72 59 53 53
12 30 37 47 52 69 78 78 76 72 67 71 78 83 83 82 85 89 89 95 94 87 82 81 81 83 76 73 76 78 76 76 74 69 68 68 70 66 62 67 70 68 63 56
27 42 51 51 55 60 58 78 80 87 82 76 77 86 89 91 93 94 96 92 95 91 82 79 78 80 80 80 77 76 76 76 72 71 69 68 70 72 65 66 69 75 78 73
35 34 56 60 62 62 64 68 76 83 93 93 86 80 84 96 96 93 92 93 91 85 89 89 95 88 71 72 73 76 73 73 67 68 73 75 69 78 74 70 65 69 71 80
31 45 48 57 68 71 72 75 69 86 93 95 92 93 89 93 101 104 97 107 109 105 95 85 76 72 70 71 73 69 70 72 71 71 72 74 76 73 81 77 75 74 75 75
29 26 27 41 54 60 60 60 67 77 82 72 76 97 104 101 94 88 82 69 70 70 72 73 76 72 73 72 75 75 74 73 75 76 76 77 79 78 77 78 79 78 82 82
41 39 40 41 40 37 49 59 61 63 67 70 62 59 61 63 68 64 65 62 56 64 66 69 71 75 73 73 79 82 81 82 81 80 79 80 82 82 84 85 86 85 88 88

GFSNGP_250_spd_033.txt.gz
Wind_Speed
83 84 76 69 67 62 57 57 54 50 49 47 38 35 35 48 54 58 56 52 48 44 41 41 41 39 39 39 39 38 38 38 40 39 36 36 36 37 37 40 40 41 41 39
90 83 73 68 65 62 61 61 61 56 52 56 49 42 36 38 50 57 62 58 53 48 46 42 43 45 43 42 41 38 40 40 40 39 40 41 40 41 43 44 43 42 43 43
86 83 76 72 68 66 63 62 61 59 60 60 56 52 44 36 37 44 55 59 57 54 51 48 46 44 44 44 42 43 43 41 40 43 43 43 43 43 44 46 45 46 47 50
87 89 81 73 77 76 70 68 66 64 64 61 62 55 45 43 41 41 43 52 61 60 58 55 54 50 51 48 47 47 44 44 44 43 45 45 45 47 47 48 51 51 54 57
92 89 83 81 81 81 76 69 70 70 68 65 61 59 51 47 46 46 44 41 45 56 61 60 59 58 55 53 53 52 52 51 51 49 48 49 50 50 51 53 54 56 56 51
94 91 87 87 90 83 79 75 72 71 68 64 63 58 61 49 43 42 41 41 39 38 40 51 62 64 62 62 60 58 58 55 53 52 53 54 55 55 56 55 49 43 42 40
96 93 90 93 91 87 86 86 79 77 71 66 60 60 57 52 47 46 44 43 41 39 37 40 42 47 55 61 62 62 55 51 50 50 51 48 44 42 38 36 35 35 36 36
99 97 94 95 88 91 93 86 79 75 70 67 60 56 59 56 54 51 47 45 42 42 42 40 38 37 41 45 49 48 52 49 46 42 39 37 36 36 34 36 36 38 39 40
101 97 96 97 90 91 89 85 82 78 75 69 66 63 61 60 59 55 53 48 44 44 44 43 44 44 45 46 44 44 43 42 41 40 38 37 38 37 37 40 42 43 42 45
90 91 92 92 84 87 88 88 85 82 80 78 73 69 66 64 64 64 59 55 51 49 49 49 49 49 48 47 48 47 47 45 44 43 43 43 42 42 43 44 44 47 47 50
84 88 95 94 87 86 86 90 89 88 87 86 80 76 71 69 67 67 65 62 58 55 53 53 54 53 55 55 54 54 53 50 51 51 50 50 49 46 44 47 50 51 53 52
92 89 88 96 94 91 90 94 98 96 92 88 85 81 76 72 70 69 69 68 63 61 59 58 57 56 56 57 58 60 60 58 57 58 57 55 54 51 52 55 54 56 57 57
96 96 87 87 90 88 90 93 96 96 92 90 89 86 82 77 75 73 71 70 69 66 65 63 62 63 61 61 61 63 63 62 61 61 59 58 59 60 60 61 60 61 61 62
100 100 90 84 87 94 96 95 91 93 98 96 94 91 87 83 83 79 76 74 73 72 69 69 68 67 66 66 66 66 66 66 66 66 65 65 65 66 66 65 64 65 65 66
101 96 97 96 89 90 93 95 93 94 94 96 94 95 93 90 89 85 81 78 75 75 76 76 75 74 72 72 73 72 71 71 71 72 73 73 73 73 72 73 71 69 71 70
87 90 93 90 86 83 88 90 93 95 96 95 97 98 97 97 94 92 88 85 83 81 81 80 80 80 80 81 81 79 77 77 79 79 81 82 81 81 80 80 78 74 76 75
71 84 88 89 86 84 82 84 86 90 96 98 97 100 104 104 98 95 95 92 89 87 85 83 84 84 86 86 87 86 87 85 84 84 84 85 85 85 84 84 80 78 79 72
44 58 76 86 86 83 79 78 82 86 90 97 100 103 108 101 101 100 96 95 94 92 90 87 86 86 87 87 88 87 87 86 87 88 87 86 87 83 83 81 77 75 72 68
30 39 50 66 78 82 79 78 81 84 87 88 99 106 104 104 103 102 98 95 93 93 94 94 93 92 92 93 91 88 88 91 92 90 86 87 86 86 84 82 81 79 77 79
26 32 40 51 65 76 82 82 81 83 84 86 87 94 98 104 103 102 103 102 101 101 99 98 97 97 98 96 93 93 92 93 95 88 86 87 88 85 87 87 87 86 82 79
38 33 36 40 56 70 80 85 87 82 84 88 88 85 87 88 94 98 101 102 101 100 103 105 107 103 100 99 98 99 102 100 98 95 98 96 96 96 96 96 94 94 93 91
38 39 39 42 49 59 72 86 89 88 86 91 89 88 85 86 86 85 91 91 88 86 85 90 90 98 104 108 107 103 100 97 95 98 100 99 97 97 100 100 97 95 95 90
38 44 47 49 51 60 60 72 79 89 85 94 95 87 85 86 86 87 83 98 99 95 92 89 93 96 100 100 104 96 99 103 104 106 102 101 102 103 101 102 100 99 97 97
49 51 53 59 59 65 70 67 75 79 78 82 85 90 92 92 92 91 94 96 98 104 112 112 109 106 101 99 103 104 103 104 106 107 105 102 105 107 106 106 105 105 103 102
55 56 56 63 69 74 78 84 85 91 93 92 96 102 102 103 107 109 109 106 104 108 107 110 107 103 103 107 107 108 108 109 111 113 113 109 108 109 111 108 102 96 92 93
63 70 65 65 70 78 83 87 99 101 105 107 107 107 109 109 110 109 112 112 114 119 120 115 111 110 109 107 106 107 109 111 108 108 107 104 98 99 102 103 99 96 90 91
63 69 74 74 69 76 82 94 96 105 106 109 113 113 112 113 115 114 117 119 111 105 105 110 117 120 121 119 123 123 117 112 108 108 109 106 102 97 100 96 92 98 100 98

GFSNGP_250_spd_036.txt.gz
Wind_Speed
81 83 82 76 73 68 61 59 53 55 52 47 41 36 37 39 50 57 57 53 50 48 42 37 37 39 43 45 45 45 42 41 38 34 35 38 35 33 31 32 32 34 34 36
85 89 88 79 76 70 68 65 63 61 60 53 51 44 39 37 43 53 57 59 53 49 46 43 41 42 43 44 45 44 43 43 40 39 40 40 37 36 37 35 35 38 39 40
89 90 87 84 75 69 69 70 67 65 62 60 58 54 43 39 36 42 52 56 59 54 52 48 45 45 45 45 44 46 47 46 42 37 37 36 36 36 37 38 40 41 42 44
96 98 97 82 77 74 71 72 69 72 71 66 63 58 48 43 40 35 36 46 55 56 53 49 47 44 47 46 46 47 46 43 41 38 37 37 36 38 40 41 43 44 44 47
103 101 93 84 78 77 75 75 80 77 77 74 61 59 54 55 49 40 35 33 43 51 56 54 50 48 45 44 47 49 48 47 45 42 41 42 42 40 39 42 44 46 47 49
102 101 92 89 88 89 87 83 83 82 77 70 64 60 63 61 46 41 37 34 31 32 41 52 55 53 53 50 51 49 52 51 47 46 47 47 47 45 45 46 46 47 49 49
100 99 99 99 99 97 92 96 88 82 80 75 73 72 61 53 49 49 48 42 41 40 36 38 43 50 53 56 55 57 55 51 50 50 52 52 50 50 51 50 47 51 44 40
101 102 107 103 102 100 98 93 87 82 77 72 69 63 58 54 54 55 53 49 48 45 43 41 37 34 34 39 49 58 57 58 58 57 57 58 57 54 55 53 43 38 37 36
106 104 108 105 107 100 95 92 86 80 77 72 63 59 55 53 63 62 52 51 55 51 47 43 42 39 36 34 32 35 39 46 50 55 58 54 51 46 39 34 35 37 35 34
98 99 107 108 102 96 94 87 81 77 74 73 64 62 64 69 65 63 57 54 54 54 50 49 47 45 44 41 38 36 36 35 37 40 41 42 42 40 38 36 37 38 38 39
89 90 93 93 84 78 83 85 81 79 76 76 72 69 68 68 65 63 66 60 59 56 52 50 50 48 49 48 47 45 44 43 44 45 46 47 47 46 43 43 41 42 43 44
92 92 90 87 79 73 71 78 80 81 83 83 80 76 72 74 69 66 66 66 64 60 56 53 51 49 50 51 49 47 48 49 50 51 51 51 48 47 48 49 48 49 49 52
94 91 87 88 88 79 74 78 85 86 86 88 84 80 78 76 76 72 68 69 67 66 60 57 57 55 54 54 54 53 53 54 53 55 54 55 55 56 56 54 55 55 55 56
106 103 94 91 91 93 87 85 87 90 91 87 88 87 86 82 81 80 75 72 72 68 67 66 64 62 59 60 61 61 61 60 57 58 58 56 57 57 58 60 60 58 59 61
106 107 100 99 89 84 86 89 88 92 92 91 93 93 91 88 88 86 83 77 74 74 74 73 71 68 68 65 65 65 63 63 62 64 63 62 62 62 63 65 65 65 65 66
95 97 100 95 90 85 82 83 88 91 90 94 98 97 97 91 91 90 89 84 80 78 76 79 77 75 75 72 70 67 66 65 64 66 66 66 65 66 68 70 70 71 70 70
76 87 93 93 94 92 87 84 81 84 90 93 95 97 96 96 98 97 93 87 85 82 80 80 80 82 82 79 77 75 75 73 71 70 71 71 72 72 73 73 75 75 75 77
43 65 85 92 93 93 91 87 81 82 85 89 94 97 98 103 102 98 95 90 89 88 86 86 84 83 83 83 82 82 81 80 78 78 79 78 77 77 78 80 80 79 79 80
27 41 59 76 88 91 93 91 87 80 79 84 92 96 96 99 103 99 94 92 95 92 92 91 90 90 88 88 86 85 85 85 85 85 84 85 85 86 87 86 86 87 86 86
20 30 39 53 69 80 86 87 87 82 79 80 84 90 94 96 97 95 99 99 98 96 95 93 94 94 94 93 93 92 92 91 92 93 93 92 92 94 93 94 92 89 88 88
18 20 32 43 54 65 77 84 84 83 82 81 81 84 89 94 95 96 96 98 97 98 99 100 99 98 98 98 97 97 97 99 96 95 95 93 91 92 95 96 94 89 91 91
26 20 16 29 41 56 66 76 82 84 84 82 80 81 83 86 88 92 92 94 99 101 105 105 102 103 104 102 101 101 101 101 102 102 103 102 100 101 99 100 100 100 99 96
30 26 25 27 30 40 53 67 78 83 85 84 83 82 81 76 56 78 87 91 91 90 89 98 104 105 103 106 106 106 107 108 111 112 109 109 111 108 103 103 98 98 99 97
41 38 40 38 36 39 38 45 64 82 87 88 90 94 89 96 94 92 90 92 93 94 100 98 93 87 82 89 97 96 100 104 105 101 101 97 99 101 93 93 90 92 98 101
48 51 52 50 51 51 53 55 54 60 73 92 97 97 98 98 97 95 99 98 92 81 79 92 91 87 89 87 86 92 95 95 93 96 99 91 88 88 91 95 100 101 100 103
55 60 64 61 64 63 65 66 68 66 66 70 81 89 92 96 98 102 104 104 98 96 102 100 96 93 96 100 98 102 101 101 106 107 106 107 109 109 109 109 103 105 102 106
61 63 64 70 70 71 76 77 79 82 76 78 82 85 91 94 97 96 97 100 99 95 96 100 98 97 96 98 102 105 112 114 112 111 111 111 112 110 108 110 111 110 111 111

GFSNGP_250_spd_039.txt.gz
Wind_Speed
83 78 77 76 75 72 61 62 59 61 55 49 47 41 42 39 44 47 53 53 54 51 47 42 38 35 34 36 38 46 50 48 45 41 36 34 32 30 30 28 29 29 31 33
87 84 88 83 72 68 67 67 65 65 56 52 52 45 40 41 43 45 51 52 53 52 49 46 42 39 35 39 42 45 50 50 45 42 39 38 35 34 35 35 36 34 35 35
90 92 86 79 73 71 71 71 68 66 60 55 56 52 47 46 42 43 42 49 50 53 50 48 47 44 38 36 40 45 49 49 48 44 42 40 38 37 38 36 38 39 39 37
97 95 87 80 77 74 71 73 71 73 73 65 66 64 49 45 42 40 37 37 44 49 51 48 46 44 40 35 37 44 48 48 48 45 43 40 39 36 37 38 39 38 38 37
99 94 86 87 87 84 81 79 79 83 82 79 73 62 50 47 41 40 34 28 31 39 45 51 47 43 38 35 34 39 46 49 47 43 41 40 39 38 39 38 39 37 36 36
94 91 93 97 91 86 87 86 82 86 89 83 73 63 54 49 48 42 39 35 30 32 41 51 54 51 46 43 41 40 44 47 44 41 39 39 40 42 40 40 41 41 41 42
94 95 97 100 94 90 93 93 88 91 93 79 65 49 47 47 49 48 42 41 37 31 35 44 52 55 52 49 48 48 45 40 38 39 42 42 42 44 43 43 43 44 46 46
95 98 98 99 99 99 96 95 91 93 92 77 60 47 47 50 52 50 47 43 40 37 34 31 36 47 54 55 55 53 50 45 45 46 46 45 46 47 47 46 48 48 48 48
101 105 104 103 105 102 102 99 96 93 91 74 60 52 53 53 55 54 52 52 50 44 40 37 34 36 36 40 51 54 54 54 53 52 50 49 50 50 51 50 51 52 41 38
98 101 101 103 102 103 106 103 98 91 84 71 59 58 60 62 61 57 56 56 55 56 51 45 43 44 45 42 40 42 45 51 54 53 52 53 52 52 51 48 44 37 37 38
101 100 95 97 96 96 98 99 94 85 78 72 66 63 64 63 63 62 66 61 61 59 56 54 51 55 51 47 45 43 41 42 43 43 44 46 43 41 40 40 40 40 40 41
98 95 92 94 93 90 85 85 84 81 77 73 69 68 67 65 68 73 68 60 60 59 57 55 52 58 58 54 51 49 47 46 45 41 40 41 42 40 42 43 43 42 43 44
95 96 91 93 92 92 88 82 82 82 80 78 76 73 73 73 72 69 68 66 64 61 60 58 55 57 59 58 56 55 53 52 49 46 43 45 45 45 48 48 47 45 46 48
107 108 99 100 96 98 92 90 90 89 91 89 85 82 82 82 82 81 76 69 66 63 63 63 59 59 59 61 60 58 55 51 51 50 51 50 49 50 48 47 49 51 53 53
102 106 106 108 103 93 86 86 83 85 91 93 89 88 89 87 85 83 81 75 69 68 65 66 64 62 63 62 62 62 59 58 57 55 53 52 51 51 52 52 53 54 55 56
100 109 113 113 102 91 84 82 83 85 88 92 91 92 93 90 86 86 87 83 79 73 72 68 70 68 68 68 67 65 65 64 62 61 60 58 58 59 58 57 58 60 59 58
91 102 104 100 94 93 85 81 81 82 82 87 93 95 96 94 89 89 88 86 83 79 74 76 74 73 73 74 73 73 71 69 69 67 67 66 65 65 64 66 66 64 63 63
64 76 87 94 96 95 93 89 84 82 86 85 89 99 97 92 91 90 89 89 86 85 84 81 76 79 82 80 79 79 77 75 73 72 71 72 73 72 72 72 72 72 71 72
34 43 55 70 90 98 99 95 90 89 91 90 88 88 94 96 94 92 92 93 92 93 90 87 84 85 88 85 85 84 83 82 79 80 80 81 80 79 79 78 78 80 81 82
20 28 35 46 63 82 93 97 97 92 89 87 87 87 87 92 94 94 93 94 97 97 93 92 93 93 92 90 89 87 88 88 88 87 89 89 87 87 87 88 90 90 90 89
9 14 28 40 50 64 79 91 98 97 91 88 88 88 87 86 88 90 92 94 95 96 96 97 98 95 95 96 94 92 92 91 91 91 91 93 93 93 93 94 94 94 95 96
7 9 14 25 41 54 67 79 89 95 96 92 89 87 84 83 83 86 88 92 95 97 98 96 96 96 95 98 97 97 96 96 96 96 96 95 97 97 97 98 99 99 100 100
11 10 5 12 22 39 54 68 79 89 94 96 94 90 86 84 82 81 82 83 84 89 94 97 97 96 95 94 94 96 99 100 101 101 100 99 98 99 100 102 104 105 106 105
21 18 16 16 17 19 33 52 66 77 86 94 95 92 90 87 84 82 80 79 77 78 82 86 91 95 97 97 103 110 114 107 105 106 107 107 107 107 110 111 108 105 107 108
33 31 27 28 29 24 22 30 49 61 72 83 90 93 94 93 91 90 86 84 82 80 78 76 74 77 80 80 85 90 98 100 103 102 100 102 104 102 103 105 104 101 102 99
45 44 41 38 38 34 32 31 31 48 57 68 79 87 92 94 94 93 93 93 94 92 87 78 74 80 82 90 96 93 99 98 98 96 97 100 100 98 99 98 94 96 94 94
57 55 51 52 49 47 45 43 40 40 46 58 64 72 82 89 91 94 97 98 96 95 87 82 85 97 94 98 94 98 103 98 100 100 96 99 99 95 91 94 95 96 99 100

GFSNGP_250_spd_042.txt.gz
Wind_Speed
100 95 88 79 73 70 65 60 60 68 62 56 57 56 52 50 46 44 43 48 47 48 56 54 48 43 37 31 35 39 43 46 48 48 47 44 40 37 35 32 31 29 27 27
91 93 87 83 79 74 66 65 68 70 64 60 58 57 52 51 48 44 43 45 49 46 54 55 51 46 42 36 33 40 42 45 48 49 48 46 43 39 37 34 33 32 30 29
91 95 95 89 88 81 75 76 76 74 70 65 63 60 55 53 46 42 41 42 45 45 47 57 54 51 45 42 36 33 38 42 46 49 50 48 43 41 39 38 37 34 34 35
94 96 94 92 90 82 79 83 82 76 76 75 69 65 57 52 43 41 35 38 42 43 46 53 57 53 48 43 40 37 33 39 45 49 51 49 45 44 42 40 38 38 37 35
96 92 92 94 91 87 85 83 84 82 84 76 70 60 56 51 44 42 39 36 37 37 43 49 56 56 51 45 43 39 36 34 41 48 50 48 48 47 44 42 41 40 38 35
96 95 96 94 93 92 85 84 84 87 86 77 65 62 55 50 45 42 41 37 33 33 36 43 49 54 50 48 44 44 41 39 37 40 46 46 45 45 45 43 43 43 39 36
99 98 94 92 93 95 93 89 88 89 89 75 63 57 53 50 48 44 44 43 38 33 31 34 43 48 53 50 49 49 49 43 37 36 40 46 46 44 46 47 45 45 43 39
98 96 94 94 93 100 93 86 87 90 86 68 59 57 55 52 50 50 49 46 46 41 34 31 37 47 51 55 54 52 47 43 39 38 37 39 42 46 48 47 46 45 44 43
99 95 91 91 94 93 90 87 87 89 84 69 63 61 58 54 54 54 54 50 44 45 43 36 35 41 50 55 58 57 54 50 47 45 44 44 43 44 42 42 43 44 44 45
95 93 89 89 90 92 89 90 90 87 82 74 68 65 62 60 57 57 56 57 54 49 47 45 41 39 39 40 48 55 57 55 54 53 52 51 50 49 48 49 50 50 50 49
95 91 89 90 89 90 88 93 93 89 85 76 70 66 65 63 61 58 60 59 59 57 53 50 49 47 45 42 38 38 37 41 48 56 58 59 57 56 56 56 55 55 56 56
98 98 95 94 92 94 96 89 92 92 87 83 78 73 70 69 67 64 60 64 62 61 60 59 57 54 52 48 44 43 43 42 41 41 45 51 54 56 58 60 60 61 61 59
95 97 97 98 95 96 97 100 92 89 90 89 84 81 78 74 70 69 70 69 68 65 59 59 59 61 60 57 53 52 49 47 46 45 46 44 43 46 48 50 50 51 52 49
96 98 99 101 98 98 97 93 91 89 91 93 89 86 83 79 77 74 74 74 75 66 62 63 62 63 63 63 62 59 57 55 53 52 51 49 46 46 45 44 43 42 40 41
100 102 105 106 105 103 101 98 99 98 91 90 90 89 86 84 82 81 79 79 78 75 71 70 68 66 66 64 64 61 59 60 59 57 56 54 52 52 52 50 49 49 49 49
98 113 114 115 116 114 108 102 97 92 96 88 85 86 89 89 88 85 86 87 84 80 77 74 69 69 68 66 65 62 60 60 61 60 58 57 57 55 54 55 54 54 52 53
89 105 113 119 119 116 110 108 104 99 97 91 85 83 89 92 93 90 90 88 82 79 76 76 74 72 72 70 68 66 64 62 62 64 64 64 63 63 61 60 59 59 58 57
71 88 101 108 106 104 105 104 99 95 92 90 89 85 82 83 88 90 89 87 84 80 79 79 78 78 75 73 71 70 67 67 68 68 68 69 70 69 68 67 67 66 65 64
45 62 78 91 98 97 97 97 95 93 89 86 86 88 89 92 94 95 93 91 89 87 85 84 83 81 80 81 79 77 73 72 72 72 72 74 75 75 75 75 75 75 74 74
21 35 49 60 76 87 93 98 99 96 94 92 90 89 89 93 93 92 93 94 94 92 90 91 89 85 87 87 86 86 80 78 78 79 79 78 78 79 80 81 82 83 83 83
17 18 24 41 53 64 78 91 98 100 99 100 98 93 92 90 90 92 92 93 96 95 94 93 92 90 91 89 89 89 88 88 87 85 85 84 85 84 84 85 86 86 87 88
13 18 20 28 42 52 63 74 88 98 104 107 102 97 94 90 91 92 92 93 95 96 95 93 93 95 93 91 93 93 94 92 91 91 90 91 93 92 93 93 94 95 96 96
20 19 21 26 31 43 57 66 77 88 100 105 102 99 97 94 90 88 90 91 93 95 98 97 98 99 96 93 95 94 96 95 93 93 94 94 95 95 97 98 100 101 100 100
32 26 24 24 28 32 41 51 64 74 86 91 95 99 97 96 94 91 90 89 90 92 94 98 101 100 101 98 98 95 97 98 97 97 97 98 94 97 99 100 101 102 103 103
40 36 33 31 28 30 34 42 49 57 69 79 85 91 99 100 98 97 94 91 89 91 91 91 94 95 98 99 100 97 96 97 98 100 100 101 99 99 101 102 106 106 104 103
48 45 43 41 38 35 34 36 38 43 50 59 73 83 91 101 103 100 95 92 91 91 88 88 90 91 95 92 91 89 88 87 87 88 92 87 87 98 104 107 107 108 104 102
44 48 52 51 48 43 40 41 38 36 40 47 55 68 83 92 98 100 99 98 95 93 92 90 91 89 92 87 86 83 81 90 89 89 89 89 94 89 88 97 100 98 91 92

GFSNGP_250_spd_045.txt.gz
Wind_Speed
111 111 104 95 92 88 83 72 68 73 71 69 68 66 59 52 51 52 54 45 40 39 43 45 48 48 45 39 38 35 43 42 41 39 41 44 43 39 38 38 35 33 31 28
105 107 105 100 99 90 82 77 71 75 72 74 69 66 59 55 54 53 55 50 44 40 41 44 48 53 51 47 41 36 36 45 42 43 44 45 44 43 43 41 40 37 34 31
105 105 106 106 100 92 88 83 75 75 77 72 69 66 59 56 56 54 56 52 45 42 44 44 48 55 57 51 45 42 38 33 41 44 47 46 44 45 45 44 42 40 37 34
111 106 105 107 102 96 91 84 78 78 80 74 67 61 56 58 56 53 53 50 44 42 43 44 45 49 58 54 50 44 40 36 33 43 46 47 47 48 46 46 43 42 40 37
113 109 104 105 103 100 92 84 82 82 81 74 68 59 57 57 52 51 51 49 46 45 45 44 44 47 52 56 52 47 43 41 38 35 39 45 49 50 48 44 42 42 41 40
111 111 105 101 101 99 93 88 86 86 84 73 68 61 55 53 51 51 50 49 47 44 43 42 44 45 48 53 55 50 49 48 44 37 33 38 42 47 48 47 46 45 45 44
109 110 103 98 96 96 97 91 90 88 84 73 68 60 56 55 54 52 52 50 50 46 41 41 41 45 49 51 57 59 55 50 45 41 38 35 35 39 47 49 49 49 49 47
108 109 105 99 93 93 91 93 88 88 85 77 69 64 58 57 56 54 53 52 52 49 43 40 40 42 46 51 56 57 55 52 50 48 46 42 37 38 43 47 49 49 50 50
105 106 101 98 91 89 90 91 90 90 87 78 70 66 63 62 59 58 57 57 56 53 47 42 41 39 43 50 55 57 57 56 53 50 47 43 40 37 40 44 49 51 51 49
101 99 99 95 88 84 88 91 91 90 86 79 74 71 68 61 62 62 61 61 59 57 54 49 46 44 41 42 51 54 57 56 52 50 49 45 46 43 40 41 45 46 48 49
96 96 95 92 90 85 85 89 90 88 87 81 77 74 72 67 65 64 63 63 62 59 57 54 50 46 44 44 42 44 51 56 57 56 54 52 49 48 47 46 46 45 46 46
93 93 94 91 90 85 83 82 90 87 85 81 79 77 76 74 69 66 69 65 65 63 60 57 54 53 49 45 45 42 40 43 48 54 57 58 56 54 53 53 54 54 54 53
94 92 92 89 89 87 85 91 85 84 88 83 83 80 80 78 76 74 72 71 67 65 62 60 57 55 55 54 51 47 44 43 41 42 41 42 45 50 55 57 59 60 60 60
91 92 92 91 90 87 84 82 84 71 86 89 85 83 83 82 80 79 76 73 72 68 67 67 65 63 63 63 61 57 54 52 48 46 44 42 41 41 41 42 44 45 46 47
91 94 94 93 93 91 86 84 83 82 80 93 89 88 87 88 86 84 82 77 76 75 73 72 71 71 70 67 63 62 59 57 56 55 53 50 48 47 46 47 48 47 46 45
97 100 102 99 98 97 92 94 99 97 91 92 88 91 90 90 90 87 85 82 79 80 80 78 76 76 75 73 68 67 66 65 63 62 61 60 58 56 55 53 54 53 54 55
86 98 101 104 105 105 104 104 101 102 103 97 84 89 93 96 95 92 89 86 82 81 84 81 81 80 74 64 67 69 68 68 68 67 67 66 65 64 63 61 59 58 58 59
79 94 105 106 109 112 113 113 112 109 106 103 99 97 93 102 102 98 96 92 88 85 85 86 88 85 77 73 69 69 69 70 70 70 70 69 68 67 66 67 65 64 63 62
57 80 97 107 112 112 113 115 114 111 108 107 105 102 97 97 103 101 100 97 95 93 93 94 95 91 84 79 75 76 75 75 76 75 74 73 72 71 70 70 69 70 70 69
35 49 67 91 106 108 106 108 111 111 111 110 108 105 104 103 103 99 103 103 102 99 98 96 97 94 89 87 86 84 82 82 81 80 79 77 76 75 75 74 73 73 74 75
38 40 43 57 76 93 101 105 106 108 113 115 113 107 101 103 100 96 100 101 103 101 100 98 97 92 89 92 94 91 89 89 88 87 85 85 84 82 80 78 77 77 78 79
42 41 40 41 47 57 69 81 91 99 107 113 113 112 107 106 106 100 96 99 99 99 98 96 95 92 94 94 94 95 95 94 92 92 91 91 91 89 88 86 84 84 82 82
43 40 39 40 39 41 47 57 65 74 83 95 108 116 118 115 109 107 102 96 97 97 95 95 95 94 97 98 99 98 98 98 96 96 96 94 92 90 92 90 90 90 91 92
49 48 43 38 39 38 39 42 52 60 67 76 88 101 112 116 112 107 102 100 99 96 95 95 96 98 99 101 101 102 102 102 102 99 102 96 94 93 90 92 92 92 94 95
48 50 50 46 43 39 38 41 43 49 58 67 78 88 97 101 106 108 107 105 103 101 98 95 96 99 102 102 103 102 105 105 105 104 103 102 98 93 100 98 98 96 95 96
41 48 51 50 50 48 44 42 46 48 52 59 66 76 82 85 93 101 106 109 107 105 103 100 98 97 98 99 101 102 104 105 106 104 105 105 100 86 105 104 100 99 97 99
37 42 47 49 51 54 53 50 47 45 50 53 54 58 65 73 81 88 95 102 106 108 107 104 101 98 96 97 101 101 103 104 104 104 102 106 106 104 105 106 105 104 105 104

GFSNGP_250_spd_048.txt.gz
Wind_Speed
125 124 119 115 109 104 96 86 77 72 73 75 74 69 64 57 55 53 48 44 41 39 40 42 40 39 40 40 39 36 34 32 37 41 39 38 39 42 41 39 36 36 35 31
125 122 121 117 112 105 98 90 82 79 82 79 77 71 64 59 52 51 52 47 42 41 43 42 44 42 43 44 44 41 36 34 30 35 41 43 43 42 43 43 40 40 39 36
123 123 119 116 112 104 98 92 88 86 88 81 78 73 66 62 56 56 56 49 44 44 46 42 41 44 45 47 48 46 41 36 34 33 39 42 42 43 43 43 43 43 42 40
120 123 119 113 111 106 97 94 91 90 92 86 81 71 65 62 58 56 60 51 48 48 48 46 43 40 41 46 50 51 46 44 41 39 36 37 44 45 45 45 44 45 43 42
119 119 117 115 111 108 101 94 92 94 91 87 82 73 66 60 56 55 60 54 51 50 50 46 47 44 43 45 48 51 52 49 46 46 42 38 36 41 44 46 46 45 43 43
116 117 115 112 107 103 100 97 94 95 93 89 84 75 66 60 56 54 57 55 53 52 50 49 49 47 45 46 50 51 55 56 52 49 47 42 35 33 36 41 47 47 46 44
115 115 110 108 106 101 103 98 95 95 93 90 82 74 69 61 59 54 56 56 56 53 51 50 50 48 45 44 48 51 52 56 56 53 50 46 40 34 33 37 39 45 47 47
114 112 106 102 104 104 98 100 97 94 91 88 81 76 69 63 61 55 55 56 55 53 53 51 49 47 46 45 47 45 48 51 57 56 52 48 44 41 38 37 40 43 45 47
114 115 107 100 103 101 95 96 97 95 91 86 79 75 70 64 62 59 55 57 55 55 55 52 47 47 46 45 44 45 48 52 53 53 54 52 50 47 44 42 41 42 44 47
107 110 105 101 100 97 90 91 95 94 90 87 79 75 71 65 63 63 59 57 58 58 58 53 49 49 49 47 44 44 46 49 51 51 53 55 53 51 50 49 46 42 42 44
97 102 99 96 95 93 87 85 90 93 91 90 81 78 73 71 67 66 64 59 59 60 60 55 53 53 52 49 46 45 45 46 50 53 53 54 56 55 55 54 52 53 50 46
92 94 90 89 88 91 86 82 86 92 93 92 86 81 78 76 72 69 67 65 62 62 62 58 57 56 54 50 48 46 43 41 43 46 49 51 55 56 55 55 54 52 50 47
94 93 89 87 87 88 89 85 84 90 93 93 89 86 83 80 78 72 70 69 64 63 64 60 62 62 58 53 52 49 46 44 42 41 45 49 53 56 57 57 57 54 52 51
84 93 89 90 90 92 96 89 85 86 92 93 92 89 87 85 84 80 74 72 71 69 66 65 65 64 62 59 56 54 52 48 45 45 44 43 45 50 54 57 60 61 62 60
83 85 87 89 93 97 91 90 86 85 87 94 94 92 91 90 89 86 82 78 75 75 73 71 69 68 65 62 59 58 57 57 55 51 48 47 45 44 45 46 47 48 48 49
84 92 90 94 94 94 95 95 92 91 93 89 89 92 92 93 91 90 88 87 83 78 79 77 75 72 69 67 64 63 64 64 63 61 59 56 54 52 52 51 50 49 48 48
85 89 95 99 99 97 98 99 98 96 95 96 97 95 96 98 96 94 93 90 87 85 81 82 81 79 76 73 71 69 69 69 69 68 67 66 65 63 61 59 58 57 57 56
78 87 95 97 99 101 102 102 100 98 98 98 100 103 102 95 98 102 101 98 95 89 87 86 85 84 83 82 80 79 79 78 76 74 74 73 70 68 67 65 65 65 65 64
70 80 88 94 93 96 101 101 102 104 106 105 107 104 100 104 104 104 104 101 101 99 93 92 88 88 87 87 86 86 86 86 83 82 81 76 74 73 73 73 72 72 71 70
48 66 77 88 93 97 101 104 107 110 112 113 112 108 110 110 109 110 111 111 108 105 101 99 97 93 93 93 92 91 92 91 87 82 78 78 79 80 80 79 77 76 75 75
40 51 63 76 89 97 100 104 107 112 115 115 113 108 107 107 109 109 113 115 113 112 109 107 104 101 99 99 99 98 96 94 91 86 81 83 84 84 83 82 83 81 79 78
44 46 55 65 75 89 99 103 106 111 111 113 115 112 109 109 110 112 106 104 114 115 116 114 111 107 104 102 102 102 101 99 96 93 91 90 91 88 88 89 89 86 85 82
52 51 51 55 65 75 83 95 103 109 107 107 109 110 114 115 114 114 113 109 109 113 117 116 116 115 112 110 108 106 104 104 103 98 95 95 96 97 93 93 93 91 90 88
57 58 56 56 57 62 71 74 79 89 98 102 104 107 110 118 117 117 118 115 112 112 110 111 113 112 113 115 112 109 108 109 105 102 100 101 105 104 101 99 99 97 97 95
56 59 61 61 61 59 60 62 67 72 76 77 81 84 96 111 118 117 117 119 120 116 111 109 106 104 108 107 108 108 112 113 110 106 108 107 107 108 107 105 104 105 104 100
47 52 58 61 64 64 64 61 61 60 62 64 64 66 75 84 99 112 120 121 118 117 117 115 112 108 106 108 108 108 104 102 104 109 107 108 109 109 107 108 111 111 110 108
41 43 49 53 56 58 61 63 63 61 60 58 56 57 63 74 84 93 103 110 112 114 116 113 114 113 112 113 111 110 108 106 109 110 109 107 107 109 108 108 112 113 115 112

GFSNGP_250_spd_051.txt.gz
Wind_Speed
118 126 127 128 123 116 106 96 86 82 79 82 81 81 75 67 62 54 46 43 40 38 38 38 35 31 32 32 32 32 29 30 32 34 34 34 36 36 34 33 33 33 31 30
112 122 125 128 125 118 109 99 89 84 81 85 86 81 76 67 60 53 46 44 44 44 42 40 37 35 34 36 37 37 35 34 32 30 30 34 36 39 39 37 36 37 36 35
107 119 124 125 124 117 112 104 95 88 84 87 89 83 78 71 63 56 52 50 49 48 45 43 39 38 39 39 40 41 41 37 35 35 34 31 34 37 40 40 39 39 39 40
105 111 115 117 122 119 114 108 99 95 92 94 87 82 79 72 63 58 57 58 55 51 46 44 44 40 40 38 38 41 42 42 41 40 38 35 32 34 36 37 41 41 40 41
94 103 108 112 119 117 113 108 103 99 96 96 86 81 81 74 67 63 63 59 57 50 49 48 46 42 40 40 39 38 41 46 46 44 41 40 39 33 29 34 38 39 42 44
83 95 106 105 108 112 111 110 107 103 101 98 87 83 80 76 71 67 65 67 58 54 49 49 47 44 44 43 42 41 41 42 45 48 48 46 43 39 35 33 33 37 42 46
76 86 99 107 107 108 114 112 107 104 104 98 89 84 83 78 75 71 69 65 60 55 52 52 50 49 47 46 48 48 45 44 45 46 49 50 48 42 41 39 37 36 38 41
71 84 94 104 105 109 111 112 107 106 104 100 92 89 88 83 79 76 70 64 63 59 55 55 53 51 49 49 49 51 49 45 45 46 49 50 51 49 45 43 44 43 40 41
71 79 91 98 100 104 108 109 108 106 103 100 96 91 90 84 81 78 74 69 67 62 57 55 54 53 51 49 50 51 49 47 47 47 48 48 49 52 51 50 49 48 46 46
69 78 89 93 96 100 106 105 106 104 102 101 99 94 90 87 82 79 75 70 69 65 60 58 56 54 51 49 49 52 50 47 47 46 46 47 49 52 56 55 53 52 51 50
69 82 91 95 95 100 104 104 103 101 101 102 99 95 91 86 81 78 73 72 71 68 66 63 59 57 53 50 51 53 48 46 44 41 42 45 49 54 57 58 56 56 56 53
66 80 86 91 94 101 105 103 101 97 98 102 100 95 92 88 81 76 76 72 72 71 69 68 64 59 55 51 53 52 49 44 41 37 38 47 48 51 55 58 61 61 56 56
62 76 83 90 95 98 101 104 100 96 97 100 99 94 92 89 85 78 76 73 73 73 70 67 64 61 57 51 53 52 50 47 42 37 15 54 49 50 50 55 56 57 57 57
57 72 82 89 90 91 94 98 99 96 95 97 97 97 94 91 89 83 81 79 78 77 73 71 68 64 59 55 56 56 54 48 51 59 57 54 52 53 51 51 50 52 53 54
59 59 74 74 82 88 90 93 97 97 94 96 98 96 97 95 91 88 86 85 82 80 77 74 71 66 64 63 60 61 60 58 56 56 58 58 59 57 53 49 47 48 50 52
60 59 62 80 86 88 90 90 91 96 93 94 96 96 98 94 93 91 91 91 88 86 84 79 75 73 71 69 66 64 63 62 61 59 60 60 58 56 54 51 49 48 49 50
64 69 73 85 90 94 94 96 99 98 100 98 98 99 98 98 97 97 96 95 95 91 90 87 82 78 75 73 70 69 67 65 63 61 61 63 61 59 57 54 53 52 51 51
69 75 82 84 94 97 98 97 100 105 103 103 101 98 100 101 101 100 98 99 96 94 94 91 88 85 81 78 76 73 72 72 71 69 68 68 68 66 64 63 62 60 59 58
63 73 77 82 87 97 101 102 105 106 108 105 100 101 103 105 105 105 105 101 100 99 94 94 94 92 89 84 81 81 80 79 78 76 76 75 73 73 73 71 70 68 67 67
48 60 73 78 83 95 100 104 105 107 107 107 106 104 106 101 104 109 109 108 110 104 101 100 97 96 95 93 90 87 86 85 84 83 82 83 82 80 79 78 77 76 75 74
45 53 61 68 75 79 93 103 107 106 107 108 109 108 105 103 105 108 109 111 111 108 104 101 102 101 99 98 98 97 96 95 92 90 90 88 89 87 85 85 84 83 80 78
43 50 53 61 67 74 82 92 101 106 104 105 111 112 111 109 111 110 107 106 106 108 111 112 109 105 105 101 100 101 101 101 101 99 99 97 94 94 94 92 91 89 85 81
43 47 51 58 64 69 72 79 89 98 104 104 106 112 116 118 117 114 110 106 104 107 109 115 117 117 113 108 105 103 104 103 103 103 105 105 102 101 101 100 97 90 88 90
46 49 52 53 58 63 68 72 77 84 94 101 103 109 115 119 120 118 115 111 109 109 108 110 113 116 116 114 115 115 113 110 110 109 110 111 108 108 107 106 102 96 94 94
40 48 53 56 58 60 63 67 71 75 81 88 97 104 109 112 116 118 118 116 115 114 113 111 113 115 116 117 123 120 118 118 121 116 115 112 112 111 110 107 108 104 102 100
38 40 45 51 55 60 62 65 68 72 75 78 83 89 98 105 107 108 110 117 121 120 121 115 113 114 114 113 112 114 115 119 123 122 118 116 114 115 109 110 112 112 109 105
34 39 39 40 46 52 59 64 66 68 71 76 79 80 82 84 88 94 99 106 110 116 123 124 122 121 121 120 119 117 114 112 112 112 113 119 122 123 119 115 115 115 114 114

GFSNGP_250_spd_054.txt.gz
Wind_Speed
106 112 115 123 126 120 118 109 101 96 90 84 86 85 82 81 76 68 62 56 49 45 42 42 40 36 32 31 29 29 30 31 32 29 28 29 30 32 34 34 34 31 29 27
101 112 114 119 128 125 122 113 107 99 90 92 93 86 81 79 75 72 66 60 53 47 45 44 45 42 38 36 34 34 33 34 33 31 28 28 31 32 35 36 36 36 36 32
92 104 110 111 120 124 117 115 113 102 95 93 93 93 86 82 80 72 69 62 54 49 49 50 49 45 42 40 34 35 35 35 35 34 32 30 29 32 36 36 36 39 37 36
85 96 100 101 113 126 120 118 116 111 103 97 100 95 88 87 81 72 72 66 59 55 53 55 53 48 46 42 36 33 34 34 37 38 37 34 33 34 33 34 38 37 35 37
80 87 86 96 112 116 122 115 114 111 105 97 100 97 94 89 82 73 70 66 62 59 60 62 58 54 48 44 41 38 35 34 36 39 40 39 39 39 37 35 32 35 36 34
76 76 81 90 97 106 117 114 114 114 108 104 103 102 98 91 85 78 74 70 67 68 68 66 63 58 52 48 44 42 39 38 38 38 38 42 43 44 42 39 35 32 30 35
67 64 70 77 85 102 110 114 115 116 113 111 109 103 90 90 86 81 76 74 74 74 72 71 66 57 56 53 48 47 42 41 40 39 38 38 38 39 42 43 42 41 37 34
50 55 64 73 79 92 106 105 116 118 116 114 106 102 95 95 88 82 79 78 79 79 77 70 63 62 61 57 51 47 45 43 42 42 40 38 39 41 44 46 47 46 45 43
44 56 65 69 78 84 104 105 114 119 117 114 109 99 97 90 87 84 80 78 78 81 74 69 67 64 62 56 50 49 47 45 43 45 47 47 45 43 43 47 50 50 50 48
47 57 64 71 75 84 101 105 113 118 117 114 109 103 97 93 90 87 81 77 78 76 71 70 68 66 63 57 54 52 51 48 47 46 46 48 48 47 46 47 48 50 52 51
46 52 60 67 73 88 101 102 110 118 118 115 110 106 100 94 92 89 85 80 77 74 72 71 68 67 65 60 57 56 55 52 50 47 47 49 48 46 46 48 49 50 50 52
45 54 62 64 73 90 98 103 108 115 115 113 111 107 100 93 93 91 88 83 77 72 70 70 69 67 65 64 61 60 59 57 51 50 50 49 47 45 44 47 51 53 53 55
38 47 56 60 77 95 102 101 110 114 112 112 112 109 102 97 90 92 90 82 79 73 70 68 67 70 71 71 68 64 63 60 54 51 50 48 44 40 45 51 55 58 53 53
38 43 50 56 73 93 99 95 108 113 111 109 111 110 105 101 94 95 92 87 74 75 69 68 68 66 69 70 72 69 65 62 58 52 49 46 40 39 41 31 45 36 39 42
38 44 51 57 75 94 99 103 107 111 111 110 108 110 106 100 98 93 94 92 85 79 75 75 73 68 70 70 73 72 69 59 57 54 49 51 49 40 39 50 62 63 59 55
37 46 53 59 73 89 98 102 104 108 109 110 109 107 109 106 101 89 91 93 90 85 80 80 77 71 68 72 74 71 68 63 65 64 58 50 62 59 67 67 68 66 63 55
41 45 52 56 64 84 94 98 100 105 107 109 107 109 109 108 104 100 92 93 93 92 90 88 82 83 83 85 84 81 76 75 73 74 71 67 75 64 67 72 73 65 61 59
44 47 53 59 67 85 95 98 100 104 105 105 106 107 110 109 107 101 98 99 97 96 95 96 95 97 94 92 91 88 84 81 80 82 82 78 80 79 76 74 68 69 66 60
43 49 51 56 67 81 95 96 99 102 103 104 108 108 108 110 108 104 105 100 99 101 101 101 101 99 98 95 94 94 90 87 84 84 84 84 85 88 82 81 83 81 75 69
39 44 53 56 69 83 96 101 101 101 107 111 110 110 111 111 110 106 105 103 105 104 103 102 103 103 101 99 97 96 94 91 89 86 86 84 83 82 84 86 87 84 80 77
49 49 48 49 59 68 87 100 105 107 106 108 113 116 113 113 113 112 110 109 105 107 108 106 104 106 104 102 100 98 95 93 91 87 86 86 85 85 83 81 82 82 81 79
45 51 55 54 54 55 68 92 103 105 109 111 114 114 117 118 117 115 115 109 108 107 107 108 107 110 106 104 103 102 101 99 96 95 93 91 90 89 88 88 87 86 85 84
46 49 49 54 57 57 60 70 94 104 108 111 111 115 117 117 118 119 116 113 112 112 110 108 112 113 108 109 108 105 104 103 102 101 99 98 96 96 96 96 94 92 92 92
44 50 54 55 56 59 61 65 73 86 105 109 110 111 108 114 117 115 117 117 115 114 114 114 113 110 110 111 110 111 112 109 107 106 104 103 101 100 101 101 100 99 99 99
38 44 50 57 60 61 61 62 65 73 86 96 108 113 113 113 114 113 115 115 117 118 118 118 116 114 114 115 112 112 112 109 107 107 105 106 107 110 106 109 105 102 103 105
32 35 41 48 54 60 65 65 65 67 72 81 92 101 112 115 113 113 114 115 117 119 118 120 118 115 115 114 114 114 116 114 113 112 110 111 111 111 109 108 104 101 90 98
27 32 37 40 46 52 59 64 68 68 68 70 75 82 92 104 110 111 111 111 115 118 119 120 119 118 117 117 117 118 118 117 115 117 117 117 117 117 116 115 113 112 110 110

GFSNGP_250_spd_057.txt.gz
Wind_Speed
97 107 106 109 112 111 110 102 103 104 104 99 95 91 87 89 82 80 77 68 64 57 53 50 43 39 38 37 34 32 30 30 31 31 32 32 29 27 30 32 31 29 27 27
91 101 102 110 113 114 115 109 103 107 109 104 103 97 95 98 89 83 76 72 68 66 60 54 47 45 43 42 40 36 34 34 31 31 31 32 33 32 30 34 33 30 30 31
85 95 101 106 108 114 115 112 110 111 111 111 101 102 96 95 94 82 77 75 72 66 60 57 52 50 49 46 43 40 39 36 34 32 33 34 35 34 34 34 34 34 32 32
81 91 97 92 101 109 113 113 112 114 124 117 110 106 99 99 92 86 84 81 77 72 67 63 59 55 54 49 47 45 42 38 34 31 34 34 35 34 35 36 35 34 33 33
79 85 82 85 95 101 106 103 114 116 123 121 116 110 104 99 100 94 87 83 79 75 71 65 60 61 60 55 53 48 45 41 37 35 32 32 34 37 37 35 34 33 31 32
71 73 70 81 90 92 99 103 114 119 125 126 123 116 104 110 102 96 90 84 80 75 71 68 66 65 64 60 57 52 49 47 40 35 33 33 35 37 37 37 37 35 32 32
60 62 70 77 75 79 92 104 104 112 125 129 126 117 115 108 105 98 91 88 84 77 73 70 70 71 68 65 60 59 55 48 43 39 38 36 35 35 36 40 40 41 39 38
45 55 62 64 71 80 84 95 103 111 124 129 129 112 106 106 106 98 93 91 87 80 77 75 75 75 73 67 67 60 54 48 47 44 41 39 38 38 38 39 41 42 42 43
39 48 52 59 67 77 81 90 100 109 119 127 124 115 113 110 108 100 97 94 88 83 82 79 76 76 74 71 65 60 56 53 51 48 43 42 41 40 41 40 39 39 39 41
31 38 47 53 61 65 74 84 94 106 113 123 124 119 119 111 106 102 96 94 89 86 83 79 79 80 74 68 63 62 60 56 55 53 48 48 44 43 44 44 43 41 41 42
23 32 41 51 63 65 68 77 89 99 106 120 122 122 120 113 105 100 97 97 91 88 85 81 81 79 73 69 67 68 65 61 60 57 54 51 48 47 45 45 45 46 45 43
25 33 40 47 52 58 70 79 87 96 101 113 120 123 120 114 108 98 93 94 95 87 81 81 81 79 74 71 73 71 68 66 64 62 58 54 53 53 49 48 49 48 46 44
22 30 37 42 49 55 62 74 86 96 100 111 119 123 119 113 106 100 88 85 88 90 87 83 81 79 76 75 77 74 71 68 66 65 63 59 58 55 53 51 48 46 44 45
13 23 30 37 44 52 61 74 88 94 99 108 116 121 118 113 107 98 85 80 86 90 88 86 84 79 75 73 74 74 73 73 70 68 65 63 60 59 56 53 51 51 51 49
18 22 29 36 45 54 66 79 90 94 95 108 112 119 119 115 109 106 86 77 78 84 84 84 80 77 74 71 72 70 69 72 71 68 69 67 63 61 58 57 54 52 47 50
20 20 25 32 45 56 68 81 95 107 108 109 109 115 119 118 113 104 100 95 82 82 83 83 81 74 70 68 68 66 70 73 67 70 73 69 67 62 59 56 50 48 54 52
23 24 29 35 44 62 72 80 95 109 106 105 107 114 119 116 115 109 107 101 98 89 89 87 82 83 78 75 71 70 63 63 65 69 67 67 68 67 59 58 62 60 60 56
36 38 37 36 44 60 76 86 95 106 109 117 116 122 118 117 116 112 110 105 102 98 92 92 90 88 83 82 78 76 73 71 70 66 68 68 68 69 57 63 67 67 74 72
30 35 38 42 45 57 73 84 94 102 107 109 109 108 111 116 114 115 113 107 104 101 99 95 94 92 88 85 85 84 79 77 75 78 76 73 75 74 72 79 74 74 75 77
28 33 41 43 47 56 69 81 91 96 104 105 110 113 117 120 116 111 106 110 108 105 100 100 98 95 94 93 90 89 88 82 82 89 84 83 79 76 73 72 79 79 76 78
31 35 38 44 49 53 65 78 86 95 100 106 110 115 119 114 110 113 113 102 104 110 108 101 102 98 97 97 97 96 97 91 65 70 87 87 83 78 75 77 81 80 81 80
38 38 41 43 45 49 60 73 86 92 100 104 109 113 117 119 118 113 115 116 116 107 109 105 101 101 101 102 103 102 101 101 105 107 101 100 97 90 86 88 88 89 89 86
44 44 43 44 46 48 54 71 83 94 101 106 105 108 114 120 121 122 117 116 116 114 114 111 107 104 102 102 103 104 105 106 109 109 107 105 103 100 98 99 94 97 96 92
41 44 45 46 47 51 52 56 72 90 99 104 107 111 111 115 121 123 123 123 119 118 115 116 114 111 111 109 107 105 106 107 108 111 111 109 109 105 102 102 102 99 99 97
38 42 45 51 48 50 55 59 63 70 92 103 108 110 112 113 115 117 121 123 124 123 119 117 115 115 117 116 116 117 116 115 114 114 113 114 112 111 109 107 107 105 104 103
32 38 41 43 50 52 52 57 65 71 77 90 108 108 111 112 113 112 112 115 118 121 122 122 121 119 118 120 118 117 115 114 115 116 117 116 115 115 115 112 111 110 110 109
31 34 40 42 44 49 55 58 57 62 76 83 90 104 114 112 113 113 112 112 113 116 120 122 124 124 122 121 120 120 120 120 119 119 118 118 119 119 119 118 117 116 117 115

GFSNGP_250_spd_060.txt.gz
Wind_Speed
101 107 108 108 104 107 109 104 101 99 103 97 102 97 95 88 85 81 77 81 77 59 56 59 56 51 44 38 36 36 34 32 31 29 27 30 30 28 32 32 30 27 26 25
91 99 108 104 105 109 112 105 105 108 107 105 109 96 94 91 89 87 85 84 80 70 60 55 54 53 49 44 42 41 39 36 32 30 29 30 32 34 32 34 34 31 29 27
85 90 100 103 102 107 109 109 112 106 98 106 111 102 101 98 99 94 94 84 83 77 70 61 49 53 57 53 48 44 44 41 38 35 33 31 31 31 35 37 36 35 33 31
83 91 96 86 96 104 111 113 115 111 110 115 114 110 105 102 99 98 97 88 80 76 70 60 43 34 61 58 51 47 47 45 42 39 37 33 32 33 33 36 37 37 36 34
76 84 84 86 96 107 113 112 113 117 119 123 120 117 113 113 106 100 99 91 86 84 77 75 82 67 45 51 54 52 51 50 48 44 39 35 34 33 32 35 36 37 36 35
67 76 75 76 93 95 104 108 111 108 114 122 119 116 121 118 108 100 99 98 93 90 87 85 82 80 70 62 59 58 57 57 52 47 42 39 34 32 30 31 36 37 35 34
63 69 70 81 81 88 95 102 110 111 115 123 129 123 121 117 109 102 103 101 95 94 91 89 86 81 74 68 64 67 66 60 54 51 47 43 38 35 33 33 32 36 38 38
51 59 62 66 74 80 82 90 104 111 117 124 130 124 116 109 106 106 103 108 105 97 94 94 86 81 77 72 73 75 68 62 58 55 50 46 42 39 37 36 34 35 36 36
43 47 52 59 68 71 74 81 92 103 112 122 127 126 120 115 110 111 112 116 108 103 101 92 89 84 80 77 78 75 69 63 62 57 53 49 46 46 42 39 38 38 38 37
32 37 45 51 57 60 63 72 87 94 101 113 124 129 124 120 115 117 117 114 113 99 101 91 90 84 82 82 79 75 71 66 64 60 57 53 50 51 48 44 43 41 38 38
25 30 37 45 50 56 62 71 84 86 94 105 118 131 129 124 118 117 121 120 115 108 95 95 92 86 84 84 79 76 75 70 66 62 60 59 56 56 52 49 47 45 44 42
22 28 33 42 47 52 58 67 75 84 89 97 109 121 128 126 119 118 120 117 116 107 100 96 94 88 84 82 81 77 77 71 67 65 64 63 60 59 55 52 51 49 47 46
14 22 29 32 39 43 49 58 65 76 87 96 105 114 120 124 120 116 121 122 121 108 104 98 95 92 83 81 82 77 76 70 68 67 67 66 64 62 59 58 56 54 52 51
9 14 19 23 28 35 42 51 59 70 79 90 101 109 110 116 118 118 125 126 116 108 106 97 93 90 87 84 81 79 78 71 68 70 69 67 67 64 62 62 61 60 57 55
3 5 14 22 25 33 39 46 55 65 76 86 95 102 101 105 113 119 126 123 115 108 105 98 89 92 87 85 83 79 76 73 71 73 69 66 65 67 69 66 65 62 61 60
5 5 8 14 19 27 39 50 56 65 72 81 91 98 98 100 106 118 124 120 114 106 104 104 92 85 89 84 75 63 69 77 77 74 70 66 63 64 68 67 65 64 63 61
16 12 12 11 18 28 38 46 55 62 70 80 87 91 95 98 104 118 120 115 112 106 102 98 94 80 78 87 82 78 29 73 73 68 64 65 61 64 60 62 63 61 56 55
19 18 20 16 22 34 37 42 51 57 67 75 82 90 96 99 108 118 120 118 112 108 104 104 100 91 88 88 81 85 91 83 74 70 67 64 65 67 68 69 64 66 68 66
24 27 27 21 35 41 44 43 48 57 63 70 80 91 96 100 105 107 110 112 104 104 112 109 104 98 92 93 96 89 83 82 78 66 67 67 68 75 71 67 66 66 70 68
27 30 32 30 38 50 49 48 56 58 65 69 80 93 99 103 104 104 106 109 110 113 110 112 106 100 94 93 93 98 93 88 85 85 79 76 77 74 71 61 54 64 67 68
32 35 37 39 39 50 57 60 61 67 70 78 87 95 102 105 107 107 107 111 112 105 105 111 107 106 97 94 93 93 99 100 96 89 86 85 81 79 78 72 73 82 81 71
39 36 40 43 45 49 58 64 64 70 76 80 85 94 99 105 105 106 108 109 110 113 114 115 114 107 107 101 96 94 93 96 95 94 93 89 89 88 88 89 90 88 85 76
37 39 40 43 47 52 57 62 66 70 75 86 90 90 96 102 108 110 108 104 112 116 115 113 113 112 107 107 99 98 97 97 97 95 93 92 91 93 92 90 92 98 93 91
34 38 40 42 42 49 55 62 71 78 80 80 87 94 98 99 103 110 113 114 117 124 122 124 118 115 114 115 116 113 102 98 99 98 97 96 95 95 95 98 99 100 102 103
33 36 37 39 42 44 53 60 65 78 81 84 84 84 94 105 106 105 109 114 117 118 119 115 119 117 116 117 118 116 118 113 110 105 103 103 103 103 105 105 99 101 99 95
28 31 35 37 38 44 49 56 62 68 76 82 85 85 88 98 109 110 110 110 112 115 116 115 120 119 118 121 120 118 117 117 117 116 114 113 111 110 111 112 112 111 111 112
26 29 32 35 37 41 45 49 56 66 68 74 80 81 84 90 98 109 114 114 114 113 114 114 116 114 111 121 125 122 119 118 117 118 117 118 119 119 118 118 118 118 119 121

GFSNGP_250_spd_066.txt.gz
Wind_Speed
98 100 105 103 102 103 101 102 101 101 100 97 99 91 85 80 79 76 70 68 62 66 50 60 56 51 47 44 43 42 38 34 34 34 28 28 27 26 24 26 26 23 25 27
101 101 102 104 104 106 105 104 107 104 101 99 100 98 90 84 81 79 77 77 69 74 68 65 60 51 51 47 46 46 45 41 34 35 33 29 28 27 24 24 24 24 23 22
103 107 106 102 103 106 107 111 108 105 102 101 99 103 98 91 84 81 83 81 76 69 67 71 63 57 49 44 52 53 51 44 39 34 38 34 29 29 27 26 23 25 26 25
91 104 107 106 109 109 110 111 111 108 107 105 101 105 105 99 91 84 86 86 84 82 71 69 68 61 55 42 49 53 51 52 48 43 39 41 36 32 28 26 26 23 22 24
86 93 95 103 114 117 115 113 111 110 108 109 107 107 110 106 99 91 87 93 92 88 83 71 72 68 66 55 60 56 57 54 52 52 45 43 38 37 31 27 27 27 23 22
76 84 89 96 101 110 115 116 110 109 110 111 112 108 112 111 106 100 92 95 98 92 91 81 75 74 72 70 58 55 63 51 51 56 54 48 42 40 35 33 30 28 27 26
57 64 75 88 96 100 102 107 110 111 112 113 114 111 115 114 114 107 102 99 101 100 98 84 83 83 80 75 61 62 52 59 49 52 55 53 46 44 39 36 34 32 31 27
48 52 56 69 80 87 92 97 100 107 111 114 117 115 116 118 118 115 109 107 106 106 105 94 90 88 90 66 63 63 59 52 51 53 53 52 51 49 44 41 39 36 35 33
39 44 49 52 62 72 78 84 89 94 102 110 117 119 116 119 122 121 116 114 111 107 109 107 99 93 92 72 82 78 72 66 64 56 58 49 52 49 52 45 44 41 39 37
28 35 39 44 49 57 65 74 78 84 92 99 111 118 119 119 123 126 124 120 118 113 111 112 105 102 99 95 85 80 77 75 61 73 67 59 59 55 55 52 51 45 43 41
20 25 29 34 41 47 56 64 68 73 82 93 99 112 117 121 123 128 129 125 122 120 114 114 113 109 108 104 100 89 83 71 67 69 77 66 70 64 62 58 57 49 46 43
18 20 22 26 32 39 48 55 59 62 68 80 93 102 113 122 124 128 133 131 126 124 121 119 121 117 115 107 107 103 87 75 56 52 57 63 61 64 62 57 54 49 48 46
14 18 22 25 27 32 40 48 53 57 63 70 83 96 104 116 123 127 131 132 132 128 127 125 123 123 122 119 116 109 105 90 69 69 68 66 63 63 63 58 50 52 52 51
19 19 17 22 25 28 33 39 47 52 58 68 78 89 100 105 115 122 126 133 133 131 132 131 128 128 126 126 121 115 111 105 99 87 83 75 70 70 71 67 63 60 59 57
20 19 19 20 23 26 30 36 40 48 54 62 72 85 95 102 110 115 125 128 133 133 134 132 133 130 130 131 131 123 116 114 113 108 105 98 91 84 83 82 79 74 67 64
25 24 21 21 21 24 26 32 38 40 47 59 68 78 88 95 100 108 114 125 127 133 133 134 133 135 133 131 131 128 116 120 113 108 105 105 99 95 92 84 80 76 73 69
32 30 29 24 26 25 26 31 37 38 44 50 61 69 78 85 89 97 105 112 123 129 132 134 133 135 136 131 132 130 124 122 119 111 106 104 104 98 93 89 80 66 68 68
33 34 35 34 29 31 29 29 34 36 39 45 50 60 68 76 81 88 96 103 110 122 127 131 131 132 137 137 135 127 125 121 121 116 109 104 103 101 97 92 86 81 73 64
37 36 37 38 34 31 32 32 30 33 35 40 45 52 60 66 71 77 86 94 101 110 120 124 126 128 132 133 137 128 123 121 122 121 114 108 104 102 97 90 81 74 68 70
36 37 38 35 34 31 31 34 31 31 36 37 42 47 53 60 63 69 77 85 94 102 108 117 122 123 126 129 129 127 130 121 121 119 114 112 105 103 99 85 62 57 73 76
31 30 25 27 37 33 31 33 32 33 34 36 41 46 50 54 57 62 71 78 86 93 99 109 118 119 118 121 122 125 125 125 121 119 114 108 109 99 94 84 80 63 65 64
29 31 23 25 33 33 31 31 34 34 36 37 39 42 46 50 53 57 63 68 74 81 90 98 107 113 117 119 119 119 117 116 124 122 115 103 107 97 93 83 78 91 73 68
26 27 24 24 27 29 34 32 32 38 39 37 39 41 42 43 49 53 58 64 69 75 81 88 96 105 109 106 107 109 110 113 119 119 116 112 107 89 86 104 96 91 80 78
25 22 22 21 24 27 33 33 33 38 38 39 40 40 42 41 42 47 54 59 64 68 70 77 87 92 98 102 101 104 105 114 114 112 114 110 108 98 87 95 101 103 92 74
21 16 18 18 24 25 29 33 34 36 40 39 40 42 42 42 43 44 48 53 58 61 66 69 73 81 91 95 96 98 103 113 116 115 110 111 114 120 101 96 111 109 107 102
21 19 15 13 18 20 28 29 31 34 37 39 42 43 43 44 44 45 47 50 55 57 64 68 72 77 81 89 101 109 113 112 113 115 115 117 124 128 129 126 116 111 113 111
21 17 11 11 14 19 24 26 29 33 34 38 41 40 43 46 47 47 49 50 53 56 62 68 72 78 83 90 94 100 109 113 116 120 124 126 124 122 125 128 125 128 124 119

GFSNGP_250_spd_069.txt.gz
Wind_Speed
101 102 101 101 103 103 103 103 101 95 91 89 90 87 84 81 80 77 77 73 68 63 61 54 59 58 55 48 42 43 38 35 35 30 27 23 22 28 31 29 28 28 26 25
98 100 104 103 105 107 107 107 106 104 101 94 94 93 89 86 84 82 80 78 75 72 65 57 56 61 59 58 51 47 45 43 37 34 33 29 25 24 25 27 25 24 27 25
99 100 102 106 109 111 109 109 107 107 106 102 101 99 95 91 87 85 84 83 80 78 73 65 64 63 63 60 57 51 54 49 43 38 32 34 32 27 25 24 24 25 23 22
101 104 104 106 110 114 114 113 112 109 109 108 106 107 104 100 95 91 86 85 83 84 81 75 69 69 69 69 66 61 57 53 48 45 36 36 37 34 29 25 25 23 19 18
83 94 106 112 116 118 119 120 117 115 113 112 111 111 111 109 105 99 94 88 87 86 89 83 75 79 69 70 68 65 60 56 51 50 44 41 42 41 35 28 26 24 22 18
87 90 92 100 115 123 123 121 120 120 117 117 114 114 115 114 112 108 101 98 92 91 92 89 86 80 78 71 68 67 61 57 58 56 51 49 50 48 41 38 31 28 25 23
81 89 93 98 103 109 116 118 122 121 119 119 117 116 117 118 116 114 108 104 101 94 94 94 94 89 82 82 76 72 63 59 57 55 49 48 47 51 47 44 40 33 30 26
60 68 76 88 97 101 102 103 105 111 118 117 117 118 119 119 121 118 116 110 108 103 98 96 99 96 91 83 79 80 75 70 62 59 51 57 56 51 50 49 50 40 36 32
45 51 59 69 74 81 89 95 96 98 103 103 112 116 119 120 120 121 120 117 111 108 105 100 102 102 100 95 88 83 87 82 73 67 63 57 59 60 55 49 53 45 40 40
37 42 47 54 59 62 70 78 83 86 91 96 94 107 119 119 120 123 123 122 116 112 109 106 106 106 106 101 98 90 88 87 80 76 70 68 61 64 58 53 54 56 49 46
26 30 33 42 48 53 55 59 66 73 79 84 89 89 108 122 121 121 124 124 122 116 114 113 110 110 109 107 109 104 88 87 83 81 83 73 67 72 63 57 54 53 50 47
23 25 28 31 38 43 48 51 55 60 68 75 78 85 96 111 124 123 123 126 125 122 117 116 117 117 116 115 113 106 100 90 90 89 85 82 74 74 67 61 59 54 51 49
29 24 24 26 27 33 40 44 49 54 58 66 73 78 89 103 113 123 123 125 127 125 121 119 122 122 121 119 120 112 105 102 93 92 92 84 79 83 74 63 64 64 59 55
32 27 27 25 26 31 35 37 45 50 55 61 67 72 82 97 104 113 121 123 125 128 127 123 125 125 124 121 119 117 109 103 100 98 95 89 85 85 75 71 72 71 66 60
38 32 28 30 30 30 32 35 41 44 50 55 61 67 74 89 100 106 115 121 124 127 130 128 124 125 126 125 123 120 116 113 109 103 103 95 87 86 84 82 72 75 66 65
39 37 32 32 33 33 34 37 39 42 42 51 57 62 69 81 93 103 109 116 122 124 128 129 124 122 127 127 127 125 122 123 115 110 106 100 96 93 87 79 81 73 64 64
40 36 35 34 36 36 38 39 39 41 44 45 52 60 65 74 84 92 100 106 111 119 122 127 129 122 124 128 131 131 126 131 125 119 119 108 104 98 86 80 79 66 66 71
37 41 42 41 41 39 38 38 38 37 40 44 47 52 60 68 76 82 89 97 106 112 119 122 128 126 123 126 132 135 131 132 133 130 126 120 110 108 97 92 92 83 81 79
37 42 45 45 41 37 34 33 32 36 37 40 44 51 54 59 67 73 83 88 97 105 110 115 120 125 124 123 127 134 135 136 134 134 133 128 121 115 114 101 93 88 95 96
33 39 41 40 36 34 35 33 32 33 32 35 39 42 49 51 58 66 71 79 85 93 102 106 112 119 122 124 124 128 133 137 136 135 133 128 126 121 117 114 114 99 102 104
26 31 33 35 36 34 32 31 34 33 30 31 35 38 44 48 51 55 61 68 73 79 88 97 104 109 116 119 121 124 129 133 138 137 134 131 130 123 119 116 117 115 113 106
25 26 28 30 32 35 33 29 34 32 30 30 34 35 39 43 45 49 53 57 64 70 77 85 94 99 104 110 116 120 126 129 137 135 135 130 129 125 121 116 118 117 115 109
25 25 24 25 29 32 32 28 29 31 31 29 33 35 36 38 40 44 49 53 58 63 70 77 82 89 95 100 108 117 122 127 130 130 133 129 129 125 124 121 115 115 114 111
27 19 15 21 27 33 32 24 26 28 30 30 32 34 35 35 39 40 42 47 55 58 64 71 75 82 89 94 98 107 116 119 121 124 127 126 130 127 123 119 114 109 98 120
22 23 20 21 25 28 31 26 24 26 26 27 30 33 34 33 36 39 41 44 49 54 59 64 69 74 81 88 92 95 101 110 115 118 120 124 126 124 117 114 114 114 111 108
18 16 13 15 24 26 27 29 25 23 24 25 29 32 32 33 35 36 40 43 46 49 53 58 62 66 70 76 82 88 91 98 104 107 115 116 116 118 114 114 110 104 105 110
17 12 14 16 20 23 22 24 22 22 22 24 26 29 31 32 34 35 40 41 44 47 50 54 58 61 63 68 75 82 88 92 95 97 100 102 108 112 111 113 112 114 109 112

GFSNGP_250_spd_072.txt.gz
Wind_Speed
98 98 99 99 99 97 95 94 92 88 87 85 84 85 83 83 82 80 78 75 69 65 63 59 53 52 53 53 50 48 38 37 36 33 30 25 22 24 25 25 24 25 25 26
99 101 102 102 102 102 101 99 98 95 92 91 90 90 89 87 86 85 83 80 76 73 69 66 61 54 52 53 53 53 54 42 40 38 34 30 27 24 23 22 22 22 22 21
98 99 102 103 102 103 103 104 104 103 99 97 95 94 94 93 92 90 88 85 83 79 77 72 68 63 60 59 58 59 56 52 46 43 39 35 32 28 27 25 20 20 19 17
101 103 103 102 104 106 107 106 107 107 106 104 102 99 99 99 97 95 93 90 88 86 82 80 76 72 66 61 66 62 63 59 51 48 45 39 37 33 32 29 26 21 19 18
96 102 104 107 107 108 110 112 112 111 111 110 108 107 105 104 104 100 97 95 92 90 88 85 83 80 74 71 66 72 70 66 60 54 51 47 46 45 39 33 29 27 22 19
84 93 101 106 110 113 114 112 115 118 117 115 114 111 112 110 108 107 103 100 96 94 93 90 89 87 82 80 78 67 71 72 67 61 57 53 50 50 43 39 34 29 26 25
83 86 90 96 102 109 113 115 118 119 119 119 118 114 115 114 113 113 111 106 102 98 96 95 94 92 89 88 84 79 75 70 70 67 60 57 56 57 47 41 41 37 32 30
84 87 91 95 98 101 101 105 114 118 119 120 120 120 119 118 118 117 117 115 110 104 100 97 96 97 95 93 90 85 78 76 75 76 69 63 61 58 59 53 49 45 41 38
72 81 86 93 97 99 100 99 101 103 103 109 116 120 121 125 122 122 120 120 118 112 107 103 100 99 99 98 95 93 85 79 74 73 75 71 67 64 64 61 52 48 50 44
56 61 67 74 81 87 90 95 97 98 98 96 99 101 111 125 127 127 125 123 122 119 115 111 107 104 101 101 100 98 91 86 80 75 75 76 73 70 64 61 58 52 48 50
46 50 55 62 65 69 71 76 82 87 87 87 87 94 96 99 115 128 128 130 125 123 120 118 115 112 108 104 104 102 98 94 87 83 85 81 79 76 68 62 61 59 52 53
45 45 45 48 49 50 57 62 65 69 69 75 80 83 86 92 99 108 127 130 131 129 126 124 120 119 116 111 109 107 103 100 94 91 93 88 87 84 72 70 60 58 53 53
45 46 47 48 50 48 45 48 53 58 60 61 64 72 77 83 89 97 106 122 131 130 131 129 125 120 121 117 115 113 106 103 101 101 99 96 94 90 80 76 70 66 61 57
42 42 41 43 40 41 42 43 46 48 52 54 57 61 66 72 80 88 96 107 119 132 133 131 127 124 121 120 119 117 115 108 107 106 105 103 100 95 91 84 80 74 73 67
42 41 41 46 45 44 43 43 45 47 48 50 53 56 60 66 73 79 86 94 107 116 132 133 130 129 125 119 121 121 121 116 113 111 111 105 105 103 96 94 87 83 81 78
45 45 46 46 47 44 42 45 45 46 48 46 51 53 56 59 67 72 81 86 97 109 117 131 133 128 128 121 121 124 124 123 120 117 112 109 110 109 99 97 95 89 86 84
39 39 45 41 43 47 47 46 45 46 46 46 46 47 50 54 59 65 74 81 87 101 110 119 132 132 128 125 122 125 127 129 126 121 118 112 112 112 109 97 97 95 93 87
32 33 38 45 46 45 46 46 42 42 44 43 42 46 48 50 55 61 67 74 78 89 102 110 118 126 125 124 124 123 129 132 132 128 124 120 117 115 115 110 99 98 96 92
32 33 35 37 39 43 46 44 39 35 34 39 42 45 48 50 51 55 61 67 72 78 90 102 109 115 122 122 120 123 127 132 134 133 130 126 122 122 116 115 112 105 99 94
29 32 35 35 37 41 39 36 36 32 35 39 39 43 46 48 48 51 55 62 66 72 79 88 99 107 109 116 118 120 124 128 133 136 135 131 129 123 124 118 116 112 108 102
29 30 31 32 34 38 38 35 33 30 34 38 39 39 44 48 48 49 50 55 60 64 70 77 86 93 99 104 111 116 120 123 130 135 138 136 133 128 129 122 120 118 111 108
27 29 31 33 34 34 36 35 32 27 31 37 37 36 37 42 43 45 46 49 52 57 61 66 72 78 87 95 100 106 112 117 124 131 136 138 137 134 133 128 124 121 118 114
28 30 29 30 30 29 30 32 30 27 30 35 35 35 35 38 41 42 42 45 48 51 56 59 62 67 74 81 89 96 104 110 116 124 129 134 138 137 136 133 129 126 121 119
31 31 29 32 32 33 28 28 26 24 26 32 32 32 34 36 38 37 37 40 42 46 49 51 55 58 63 71 76 85 93 102 111 115 120 125 132 135 137 136 135 129 127 124
27 26 25 29 31 31 29 22 22 22 23 29 30 29 33 33 34 34 34 37 40 42 44 47 50 53 56 61 69 76 86 93 99 108 113 117 122 131 134 135 133 135 130 128
24 24 21 24 26 28 28 24 17 17 19 27 27 26 29 30 30 31 31 34 36 37 39 42 46 49 52 56 62 70 77 84 91 99 108 114 118 124 129 126 132 129 133 133
22 21 21 22 23 21 21 20 16 14 17 20 24 23 25 26 26 27 30 31 32 34 35 38 43 46 49 54 59 65 72 79 85 91 96 103 111 117 118 120 120 124 127 132

GFSNGP_250_spd_075.txt.gz
Wind_Speed
99 98 96 95 94 93 91 89 86 84 83 83 82 83 83 82 81 79 77 74 71 67 63 59 54 52 49 45 48 50 50 46 40 34 30 30 26 26 28 28 29 27 25 24
101 101 100 99 99 98 96 94 93 90 89 88 88 87 85 85 84 82 82 81 78 74 70 67 64 60 56 51 48 51 52 51 47 40 37 35 33 29 26 26 25 26 25 22
101 103 103 104 103 102 101 100 99 98 96 93 91 91 91 90 89 86 85 85 84 82 78 74 71 67 64 61 55 53 55 56 53 47 40 40 38 33 32 27 23 22 22 22
102 103 102 102 104 105 105 105 103 102 101 98 97 96 94 94 93 91 89 87 87 86 84 82 79 75 71 68 63 59 58 59 59 56 52 44 41 41 37 33 28 25 22 22
97 102 103 103 104 105 107 108 107 107 107 106 103 101 100 99 98 95 93 91 90 89 88 86 84 82 78 75 71 65 65 62 61 61 59 55 51 45 42 37 33 30 26 25
90 96 101 104 105 105 106 108 109 111 110 109 109 108 105 104 103 102 100 96 94 93 93 91 89 87 85 82 78 73 69 67 64 61 63 61 56 50 47 43 37 36 32 31
80 88 95 100 104 107 107 108 110 111 114 114 114 113 113 111 110 109 108 106 102 99 98 97 95 92 90 88 85 81 77 74 71 67 65 66 63 59 52 50 44 42 39 36
78 81 84 88 94 101 107 110 112 114 114 116 117 117 118 117 115 114 114 113 112 108 105 104 102 100 96 94 91 88 84 82 78 74 71 69 69 68 61 55 52 49 44 41
79 80 81 84 87 90 94 101 108 113 117 118 119 118 118 119 120 119 118 118 117 116 112 110 109 106 104 101 98 94 90 89 86 83 78 74 74 76 69 62 60 57 52 47
74 78 81 85 87 89 91 92 95 99 102 107 113 119 122 122 122 123 124 124 123 121 120 117 114 112 110 108 106 102 96 94 93 90 86 80 74 76 77 72 68 60 57 59
65 68 74 78 81 85 87 90 94 97 99 99 101 102 105 112 121 129 129 127 127 126 124 124 122 117 116 113 110 109 104 100 97 96 93 87 83 78 76 78 77 68 62 62
57 58 61 65 70 75 79 83 87 90 92 93 94 95 98 102 103 106 115 127 132 130 129 129 128 125 121 119 115 113 111 108 104 101 98 94 89 87 83 79 77 79 71 69
58 62 63 63 65 68 70 74 79 81 84 86 87 86 87 88 90 95 103 109 115 124 133 130 132 131 129 122 121 119 116 114 112 107 103 99 96 92 90 85 79 83 82 74
54 56 57 60 64 67 69 69 69 70 72 74 75 74 77 81 82 83 84 91 104 111 116 128 135 134 132 130 124 124 122 119 116 113 108 106 101 96 94 91 86 83 87 80
53 56 57 59 61 62 62 63 65 66 67 66 69 70 69 73 77 77 77 80 87 96 106 114 122 131 135 133 129 125 125 123 121 118 114 110 107 101 97 97 93 88 88 85
54 54 58 59 59 59 60 59 59 62 63 65 65 65 66 67 70 72 74 75 79 82 90 100 112 120 126 130 131 129 128 125 127 123 121 116 113 108 101 98 97 94 90 92
44 52 54 56 56 60 62 62 63 62 60 58 64 63 60 58 62 65 68 71 75 77 79 86 94 107 117 121 127 130 129 127 127 128 126 123 118 113 107 104 101 101 98 94
40 45 52 51 54 55 55 58 56 55 54 51 51 54 56 58 57 58 61 65 70 75 74 77 84 94 106 113 117 123 126 126 126 126 130 128 125 121 115 111 104 100 103 101
35 38 39 43 44 46 49 51 50 50 51 50 47 49 52 53 55 59 60 62 64 69 71 69 74 83 93 104 111 112 117 122 124 126 128 130 130 128 122 117 112 107 106 107
33 36 38 39 38 41 44 46 46 45 45 44 44 43 49 53 55 55 57 55 60 62 64 65 68 73 83 93 102 109 109 111 119 121 124 127 131 132 129 123 118 114 110 107
34 36 37 38 38 38 40 41 41 40 42 42 40 40 45 50 51 50 48 52 54 57 58 60 62 65 72 82 91 100 105 105 107 115 119 123 126 131 132 130 125 121 118 113
30 31 33 34 33 32 34 36 36 35 37 34 33 36 40 44 47 46 45 47 48 49 53 55 57 60 65 72 81 89 96 97 98 100 111 117 121 126 131 132 128 126 122 120
28 28 29 29 27 28 29 30 31 33 32 32 29 32 35 41 40 40 44 44 45 46 49 50 52 55 58 63 68 76 83 88 89 90 96 110 117 122 127 131 129 127 126 126
29 28 28 28 28 26 26 27 25 25 25 29 28 30 33 36 33 35 39 40 40 41 43 46 46 48 52 56 60 65 71 74 77 81 86 96 109 118 121 128 129 127 128 129
25 25 26 26 26 24 24 23 23 22 21 25 26 28 29 29 29 32 35 35 35 37 39 41 42 43 45 50 54 58 62 66 69 74 83 87 98 106 115 127 130 128 128 128
23 22 22 22 19 20 20 18 16 14 19 20 24 24 23 23 26 29 31 31 31 32 35 36 38 39 40 44 48 53 54 58 61 66 76 81 93 103 121 114 124 128 128 127
20 17 16 16 16 16 15 12 11 14 16 19 21 21 20 18 22 26 26 26 29 29 30 32 33 35 35 37 41 46 49 54 60 67 76 86 90 95 108 113 119 126 128 127

GFSNGP_250_spd_078.txt.gz
Wind_Speed
103 102 100 96 94 93 90 86 86 84 87 89 89 87 85 82 79 76 72 70 67 65 62 60 57 51 44 51 56 56 55 53 50 44 40 36 32 29 26 25 26 28 28 28
100 101 101 99 96 95 94 91 89 87 86 88 89 90 89 87 85 82 79 76 74 71 68 65 63 60 57 51 51 54 55 56 54 50 46 41 38 33 30 27 26 25 26 28
99 100 103 103 102 101 98 97 95 95 89 89 89 89 90 89 88 86 84 82 80 78 75 72 69 67 64 61 60 54 52 53 55 56 53 49 44 37 36 33 28 28 28 28
98 102 104 105 105 106 106 104 102 98 97 94 93 92 91 90 89 88 86 85 83 82 81 78 76 73 71 69 66 61 56 52 52 54 54 54 51 46 41 36 35 30 29 27
94 101 101 103 105 107 108 106 105 102 101 99 97 96 95 94 92 90 88 87 85 85 83 82 81 80 79 77 73 68 64 59 56 54 56 57 56 53 45 39 40 37 33 30
89 95 99 99 104 105 106 107 108 107 106 104 103 103 97 98 99 97 95 93 91 89 87 86 84 83 82 82 80 76 72 67 63 61 60 55 54 57 55 48 41 42 40 37
81 90 96 98 103 105 108 107 108 108 109 110 109 110 104 107 104 103 102 99 97 95 93 92 90 88 86 85 85 83 80 76 73 69 66 61 51 59 61 56 53 47 45 44
74 78 87 95 101 105 105 109 112 112 111 111 113 115 113 113 111 109 108 107 105 102 100 98 96 95 92 90 89 88 86 84 81 78 75 71 68 67 61 63 60 56 52 50
72 75 78 83 91 100 104 108 110 112 115 117 117 117 118 119 118 117 115 113 112 111 109 106 103 101 100 97 94 93 91 88 86 85 82 79 76 74 68 63 66 64 59 55
75 75 77 79 82 85 91 99 104 109 115 118 119 121 122 122 122 122 122 121 120 118 117 116 113 110 107 106 103 99 97 95 92 90 88 85 84 80 77 72 67 68 67 62
71 74 78 80 81 83 86 90 94 99 105 111 117 120 123 125 126 126 125 125 125 125 125 124 123 121 118 115 113 109 106 103 99 97 93 92 89 87 84 81 76 72 71 69
65 67 70 73 76 81 86 89 91 93 96 99 103 109 115 120 125 128 129 128 128 130 129 129 129 127 127 124 122 118 115 113 109 105 102 98 95 92 90 88 83 79 76 77
57 61 64 67 70 73 76 81 86 91 94 96 100 102 106 110 114 119 124 128 130 131 131 131 131 132 132 131 129 127 124 123 120 116 110 106 102 99 96 93 90 87 83 82
53 58 60 63 67 69 71 74 76 81 85 89 93 98 101 105 107 108 108 110 113 118 122 127 130 134 134 133 135 133 131 130 127 124 121 115 110 105 102 99 96 93 90 89
52 51 54 59 62 64 71 73 75 75 76 78 80 82 86 88 90 93 96 98 101 106 111 114 116 121 128 134 136 135 132 133 133 130 127 123 118 114 109 106 102 99 95 94
48 52 54 55 59 63 65 67 70 73 75 75 76 77 80 81 82 84 85 84 83 86 90 97 102 108 113 118 121 127 133 135 131 135 134 129 126 121 117 113 109 105 101 99
43 47 53 56 57 58 61 62 62 66 69 69 70 73 76 77 78 79 78 76 74 76 77 80 81 87 99 107 113 116 117 124 132 134 131 132 131 128 125 119 115 112 107 105
40 44 48 52 55 59 58 56 59 60 60 63 64 66 66 69 70 68 67 67 66 70 70 72 75 78 83 89 97 103 108 113 115 123 130 133 131 132 130 126 122 118 114 110
34 39 44 45 47 52 53 53 54 59 62 60 61 61 61 63 62 61 62 65 64 66 66 68 69 73 76 78 80 88 95 102 107 111 118 126 129 130 132 130 128 124 121 116
31 34 38 41 44 46 48 49 50 51 55 59 59 57 57 57 57 58 61 61 63 62 63 64 67 69 69 71 73 76 82 91 98 103 109 113 123 128 130 132 132 130 126 122
31 32 34 35 38 40 42 43 46 48 49 51 53 53 52 51 51 52 55 58 57 58 58 59 59 61 61 67 68 69 73 79 87 94 97 102 109 118 128 130 133 134 132 127
27 29 32 34 36 37 37 39 40 44 44 43 46 46 45 47 47 46 50 51 50 51 52 50 51 55 57 61 62 65 68 73 79 85 88 89 97 105 114 127 131 132 134 132
24 25 28 29 30 31 32 36 37 37 40 41 43 42 43 41 41 44 47 48 48 48 46 44 46 48 52 54 58 62 62 66 71 75 80 84 86 92 100 112 126 131 134 134
26 26 25 25 25 28 28 29 30 31 34 33 36 35 36 38 39 41 43 44 42 40 40 41 43 44 46 48 51 57 58 61 64 66 71 74 77 79 86 97 111 125 131 134
25 25 24 23 22 22 24 23 25 25 25 28 33 33 33 35 36 36 39 39 36 38 38 38 39 41 41 43 46 49 55 58 57 60 63 67 69 71 75 84 94 111 126 130
24 22 20 20 20 18 18 18 19 22 25 29 31 30 31 31 31 32 34 34 34 35 34 35 37 38 36 36 38 43 48 50 49 50 54 58 61 65 68 76 86 98 117 127
19 17 16 15 16 16 15 15 18 20 22 24 25 26 25 25 27 29 30 29 31 30 31 33 33 32 32 32 33 37 42 41 42 44 47 51 54 59 66 70 74 84 99 118

GFSNGP_250_spd_081.txt.gz
Wind_Speed
97 99 102 101 100 94 94 95 95 101 88 84 83 81 79 76 73 70 67 65 62 60 57 52 41 48 44 39 42 54 54 50 47 44 43 40 40 36 32 27 26 25 24 27
96 97 102 100 98 95 95 93 97 94 86 82 88 89 86 82 79 76 72 68 65 63 59 52 65 60 51 43 42 42 41 46 51 50 50 48 44 41 34 34 31 28 26 25
97 98 99 101 101 99 98 95 99 97 88 90 89 92 91 89 85 82 79 75 72 70 67 64 70 66 57 58 62 63 59 52 50 51 54 55 51 47 44 38 36 33 30 26
96 94 98 106 102 101 100 99 101 96 90 92 91 91 92 92 91 89 86 83 80 78 76 75 75 75 76 72 68 65 61 55 50 46 49 53 56 55 51 45 40 38 34 31
90 93 98 98 104 105 106 104 104 101 97 95 98 96 95 93 93 92 91 90 89 87 85 83 81 80 79 76 74 71 67 63 58 54 50 47 50 55 56 52 49 46 40 36
86 92 96 102 99 105 109 109 107 106 104 102 100 102 98 95 92 91 91 91 91 91 91 90 88 87 85 83 80 78 75 71 67 63 60 56 53 52 49 54 52 51 48 43
74 80 90 89 96 104 110 114 106 110 107 106 108 104 94 97 98 98 97 96 94 93 92 92 92 91 90 88 86 84 82 78 74 72 68 65 62 58 56 54 53 51 50 45
73 77 83 82 96 101 102 106 109 112 112 113 111 110 105 105 106 104 101 100 99 98 96 95 94 93 92 91 89 88 86 84 81 78 75 73 70 68 63 59 54 54 56 53
71 74 74 80 90 94 100 102 106 111 115 116 117 116 113 112 111 110 108 106 105 103 102 101 99 99 97 94 93 90 89 88 86 84 81 79 77 75 72 67 62 60 58 56
72 72 76 78 83 89 95 99 103 108 113 116 118 120 119 119 119 117 115 113 113 111 109 108 106 105 103 101 99 98 96 93 91 89 86 84 83 82 79 75 72 68 62 60
75 74 76 77 80 84 87 92 98 102 106 112 115 118 120 122 123 123 122 122 120 120 118 117 115 113 111 110 107 105 102 100 98 96 93 89 87 86 84 83 80 77 75 68
70 73 78 81 82 84 85 87 90 95 100 106 111 114 118 118 120 122 123 125 125 126 126 125 124 123 121 119 117 115 111 108 106 103 100 97 95 93 90 88 86 84 83 79
60 66 70 75 80 84 87 87 88 90 93 97 101 106 112 116 119 120 122 124 126 129 130 131 129 129 131 130 127 123 120 119 116 113 110 106 103 100 98 95 93 90 88 86
50 55 60 65 69 73 79 84 89 92 94 95 95 98 101 106 112 117 122 125 127 128 128 129 131 134 135 135 134 132 131 129 127 124 121 117 113 109 106 102 99 97 95 91
50 51 53 53 58 64 69 73 78 83 88 92 96 99 100 101 103 108 111 114 118 123 126 130 132 133 133 133 134 134 136 138 136 134 132 128 125 122 117 113 110 106 102 98
54 58 58 57 58 60 62 65 70 74 79 84 87 91 95 99 102 104 106 106 108 109 109 111 113 116 121 126 130 133 135 135 136 138 138 138 136 131 129 124 119 115 111 108
46 48 51 54 56 59 59 62 67 72 77 78 80 82 85 87 90 92 96 98 101 103 105 107 109 110 111 114 117 120 122 126 130 133 135 137 139 140 137 132 130 126 121 119
43 45 49 54 55 56 57 58 59 60 64 71 75 76 75 77 80 83 87 88 88 91 94 95 96 97 98 100 103 105 110 115 120 123 127 131 136 137 138 138 135 132 129 126
41 44 46 48 50 52 54 56 55 55 56 59 63 66 67 71 72 76 77 77 79 81 81 82 85 86 87 89 93 98 101 104 109 115 119 121 124 126 130 133 135 134 133 133
32 37 42 45 48 51 53 54 54 54 55 56 57 59 61 63 65 66 68 69 70 71 72 75 76 76 79 83 86 88 90 92 96 103 106 107 112 115 117 121 127 131 135 133
26 30 34 38 42 45 47 49 50 51 53 54 56 57 58 60 60 61 62 63 63 65 68 67 66 69 70 74 75 76 76 77 85 90 95 98 99 101 105 110 114 119 127 131
25 25 27 30 34 37 41 43 45 47 49 51 53 54 55 55 56 58 58 58 55 59 59 59 59 63 65 63 64 65 68 69 72 74 81 87 92 95 95 96 101 108 116 123
20 23 25 28 30 32 35 37 39 41 42 45 45 47 48 52 52 51 52 53 53 55 54 55 57 58 55 54 54 56 59 59 63 70 73 76 81 87 91 90 90 91 100 109
24 26 27 25 24 26 28 31 33 35 37 38 40 41 44 47 46 45 45 47 52 51 50 50 52 49 47 47 49 52 50 53 58 62 67 70 73 75 79 81 82 84 88 96
25 27 27 25 22 23 23 24 25 27 29 33 39 38 41 40 41 40 44 43 43 45 46 47 44 42 42 44 47 45 45 50 53 57 60 62 65 66 68 71 74 77 80 85
26 24 24 25 23 21 20 20 21 23 25 27 30 32 32 35 36 35 37 38 40 43 40 41 39 39 41 42 41 38 42 46 48 51 54 54 55 57 59 61 66 71 73 77
25 23 20 19 19 17 17 17 18 20 21 23 26 27 26 28 28 29 31 34 34 35 35 36 36 37 39 37 34 35 39 41 43 45 46 48 47 48 50 54 59 61 63 67

GFSNGP_250_spd_084.txt.gz
Wind_Speed
96 101 100 95 99 100 96 92 102 93 91 88 83 77 73 72 71 72 72 72 70 68 66 66 65 58 49 42 43 35 37 45 41 36 42 38 36 36 36 35 31 30 29 25
105 99 86 90 99 105 102 101 107 103 98 90 82 80 78 75 72 72 71 71 71 71 70 68 63 55 47 52 49 48 45 46 39 44 45 41 39 41 42 40 36 33 31 30
101 91 93 96 95 93 101 109 107 103 97 90 90 86 84 84 80 77 74 72 71 70 69 68 65 64 58 65 57 51 52 52 50 48 40 34 39 42 48 45 41 38 34 32
92 97 97 102 100 98 101 108 117 108 98 97 90 86 86 90 89 84 81 78 75 73 71 70 68 70 70 68 63 60 62 65 59 52 47 47 41 40 44 49 47 41 38 37
80 86 95 96 97 98 101 109 111 106 100 99 93 93 93 94 95 91 89 85 82 79 77 76 75 75 76 81 77 75 74 69 67 61 55 59 52 48 47 45 47 48 48 43
75 81 86 96 99 97 100 106 104 106 107 102 99 102 101 98 95 92 92 92 91 88 86 84 82 80 79 77 77 77 81 73 74 69 66 66 62 55 52 48 46 44 49 49
72 78 89 92 90 99 104 110 104 106 111 107 106 103 98 99 99 99 97 96 96 95 93 91 89 87 85 83 83 80 81 83 82 77 77 74 68 65 61 55 51 46 49 49
70 74 82 82 92 97 101 102 103 104 109 109 111 109 105 102 105 105 103 100 99 97 96 96 95 95 94 92 92 91 89 87 90 91 86 82 76 73 70 65 60 56 55 54
69 68 69 75 82 92 100 104 105 105 106 112 115 114 109 107 107 107 106 105 105 102 100 98 99 99 99 99 98 98 97 95 94 93 90 87 85 81 78 74 70 66 61 60
69 70 71 72 79 87 92 98 102 102 103 109 113 114 113 112 112 111 109 109 108 107 106 104 104 103 101 100 100 101 100 100 100 99 96 93 90 88 85 81 78 75 72 67
71 71 73 75 76 80 86 89 95 100 103 107 109 112 113 115 116 116 114 114 113 112 111 110 109 108 107 106 105 105 104 103 102 100 98 96 93 91 89 88 84 81 79 76
73 71 75 76 78 81 85 88 90 96 99 104 110 109 114 117 120 120 121 120 120 119 117 116 115 114 114 113 112 112 111 110 108 106 103 100 98 95 93 92 89 86 85 82
70 75 80 80 81 81 83 85 88 92 94 99 104 108 113 113 116 120 124 125 125 126 124 124 123 122 121 120 119 118 118 117 115 114 111 109 106 103 100 98 96 93 90 87
64 68 75 76 81 83 84 85 86 88 91 94 97 102 105 107 113 116 120 122 125 128 130 130 130 130 130 129 128 128 127 126 124 122 119 116 113 111 109 107 104 102 99 96
58 61 66 71 73 78 81 85 89 91 91 91 92 94 97 100 103 110 113 117 121 124 128 131 134 135 136 136 136 135 135 135 133 131 128 126 123 120 118 115 111 109 107 104
52 58 64 65 67 70 74 80 82 86 87 91 94 95 98 97 99 102 104 108 112 117 122 125 128 130 133 136 138 140 140 140 140 138 136 134 132 131 129 126 122 119 116 114
45 50 52 58 64 65 67 71 74 78 82 86 88 91 97 98 100 102 104 106 107 109 112 116 120 125 128 130 132 134 136 138 139 139 139 139 140 140 138 134 131 128 125 124
38 43 47 51 55 59 64 70 72 74 75 77 80 83 88 91 95 97 101 103 105 107 109 111 113 115 115 116 119 123 127 130 133 134 136 137 138 138 138 137 136 134 134 133
35 39 42 46 49 53 56 59 62 67 72 76 79 80 82 86 88 90 93 97 99 100 102 103 105 106 107 109 111 113 116 119 122 124 127 129 131 133 135 138 139 139 138 135
30 34 37 41 44 47 49 52 55 58 61 63 66 68 70 75 78 80 83 87 89 92 95 94 95 97 98 100 103 102 104 108 111 113 115 117 120 121 121 122 123 125 130 134
25 28 32 35 38 41 44 48 50 52 55 57 59 60 62 65 68 72 72 74 75 78 81 82 85 89 88 89 90 93 93 94 94 96 99 103 104 105 109 111 112 113 115 118
21 23 26 29 33 38 40 43 44 50 49 52 55 53 55 57 58 60 65 68 68 72 74 74 76 79 78 79 80 81 83 83 83 82 83 89 89 90 94 96 98 98 100 105
20 21 23 25 29 32 36 39 41 42 46 46 48 48 51 54 55 57 57 61 61 65 67 65 68 71 70 70 71 74 73 75 74 73 77 76 75 79 81 85 87 90 93 95
25 24 24 24 25 24 24 29 33 36 38 41 43 44 46 48 48 52 50 50 54 53 55 55 58 57 59 61 61 60 61 63 61 65 62 65 68 70 73 76 78 80 82 84
27 28 29 28 24 22 21 21 24 27 30 32 34 36 38 41 43 37 37 37 43 46 47 48 50 51 49 48 53 52 51 52 49 51 55 59 61 63 65 67 71 73 75 77
30 29 28 28 27 26 23 21 20 21 23 25 28 31 32 34 33 29 32 33 34 39 40 40 43 43 44 41 40 44 43 43 43 46 49 52 53 54 56 58 60 63 66 69
34 32 29 26 25 24 23 21 20 20 20 21 23 25 26 27 28 29 31 32 35 37 38 39 38 38 38 35 37 37 36 37 39 42 43 45 47 49 49 51 52 54 56 59

GFSNGP_250_spd_087.txt.gz
Wind_Speed
89 91 94 91 96 97 98 101 101 95 83 83 89 87 85 83 80 80 78 74 70 63 61 56 51 41 38 34 31 43 35 35 30 22 20 23 30 32 30 34 32 32 31 29
90 91 91 91 89 93 101 105 105 98 92 89 87 86 84 86 87 86 82 81 79 77 69 63 57 56 53 44 39 51 45 38 30 24 28 25 36 37 35 33 35 35 36 35
90 90 90 90 93 98 103 112 110 101 97 93 90 88 84 83 86 89 90 89 86 84 78 72 69 66 64 61 53 54 50 44 44 39 45 39 37 31 32 30 32 36 37 38
98 98 96 93 91 93 101 105 104 103 99 97 95 93 90 84 85 86 88 89 90 88 85 81 79 76 74 74 75 73 60 49 52 47 53 63 52 43 34 34 33 37 38 40
97 95 98 98 95 93 103 108 99 100 102 100 100 97 94 90 88 88 88 88 87 87 87 85 83 81 80 81 80 74 68 64 65 64 63 65 60 59 55 47 47 47 49 42
101 102 97 93 94 95 99 97 99 102 104 102 102 101 100 96 92 90 93 93 89 87 86 85 83 81 80 81 80 79 77 76 65 63 69 65 67 60 59 55 58 57 55 50
84 94 101 99 99 103 107 103 98 100 103 103 104 104 105 102 101 99 97 95 95 92 89 86 86 85 83 84 82 80 79 85 85 81 73 67 71 72 68 65 70 69 65 54
77 83 85 85 91 93 100 102 101 100 99 98 98 100 106 109 109 105 102 99 98 97 95 94 92 88 87 86 85 84 84 86 89 87 76 74 69 69 74 71 72 73 74 68
66 71 73 74 80 90 95 100 105 105 105 105 105 107 114 112 112 109 107 105 104 103 100 101 99 97 94 92 91 90 90 89 95 93 90 89 87 87 87 86 83 83 84 80
64 63 63 70 77 82 87 96 105 104 104 106 110 112 110 109 112 113 112 113 110 107 105 105 104 102 102 102 101 99 98 97 97 97 98 98 95 94 92 91 93 88 88 87
66 67 67 69 70 74 79 86 91 99 104 107 109 114 114 112 111 111 114 118 116 114 111 111 109 108 107 107 107 107 107 106 105 105 103 102 101 100 99 97 93 94 95 96
67 69 71 73 75 79 81 81 83 87 92 98 105 109 111 114 116 115 115 118 120 120 118 116 114 114 113 113 112 111 110 110 111 112 112 111 110 109 107 106 103 101 99 98
65 69 72 77 79 80 82 82 81 85 86 92 97 102 107 110 115 114 114 116 118 121 122 122 121 120 119 119 118 118 118 116 116 115 115 115 115 114 113 112 111 108 106 104
65 67 71 76 78 80 82 85 84 85 87 89 92 98 102 107 112 114 116 117 118 120 122 123 123 125 124 125 124 123 123 123 123 123 121 120 120 118 116 115 113 111 109 107
59 62 68 72 73 79 81 83 86 86 87 89 90 93 96 100 106 110 114 116 119 121 123 125 127 128 129 130 130 130 129 129 128 128 127 127 126 125 123 122 120 119 117 114
51 60 65 64 68 73 78 81 84 89 87 89 90 91 93 94 98 104 107 111 116 120 122 123 125 127 129 131 133 134 134 134 134 134 134 133 133 132 130 129 127 125 124 123
41 48 57 63 67 70 72 77 82 86 89 89 92 92 93 94 95 99 101 104 107 110 114 117 120 123 125 128 130 132 134 136 138 139 139 139 140 139 138 137 135 134 132 131
33 38 44 50 55 63 69 73 77 80 83 86 87 89 93 96 98 96 99 101 102 103 106 110 113 116 119 122 124 127 131 133 135 136 137 139 140 141 143 142 140 139 138 138
26 30 34 38 43 47 52 60 66 72 77 81 80 81 86 91 95 94 95 97 102 103 105 107 109 110 111 113 114 117 121 124 127 130 133 135 136 137 138 139 140 140 139 140
22 25 27 30 35 38 43 48 54 60 64 68 73 75 78 81 84 84 86 88 93 95 98 101 103 105 106 110 111 113 115 117 118 120 121 122 124 126 128 130 133 136 137 137
19 21 23 25 28 33 38 41 45 50 56 61 66 70 73 75 80 82 84 88 90 86 88 88 89 91 92 95 98 101 103 106 108 111 112 114 115 115 114 114 116 118 119 121
20 20 20 22 24 26 30 35 40 43 46 49 53 58 64 69 71 72 73 76 78 80 83 86 87 90 90 90 92 93 94 96 97 98 99 100 99 96 94 96 102 106 103 103
24 22 22 22 23 25 28 31 34 36 40 44 46 50 52 45 54 62 64 64 66 70 73 75 78 83 81 80 82 83 83 82 81 81 83 83 81 78 81 89 84 84 89 91
30 27 25 24 23 24 24 26 29 32 34 36 38 43 43 40 48 49 51 54 58 61 64 67 68 68 70 72 73 74 75 76 78 79 77 74 72 73 72 71 75 74 76 77
33 32 30 29 28 28 27 25 24 26 28 29 31 33 36 36 39 42 44 44 49 52 45 41 47 56 61 63 63 62 64 66 65 62 66 65 63 65 65 65 67 68 68 68
37 33 32 31 30 28 27 27 24 22 23 24 25 28 31 33 34 35 36 40 42 37 35 42 46 50 53 51 50 52 52 51 53 54 57 54 53 55 59 60 60 60 61 61
42 40 35 33 31 30 27 25 25 24 23 22 22 23 26 29 31 32 32 34 36 34 37 39 40 41 43 43 44 46 46 44 50 48 50 48 50 51 53 52 51 51 53 53

GFSNGP_250_spd_090.txt.gz
Wind_Speed
92 92 92 95 96 99 99 96 95 90 83 80 85 85 85 84 83 79 77 71 66 66 65 60 48 37 44 39 37 35 37 37 31 30 24 20 17 17 15 17 28 30 28 27
89 93 92 92 91 95 103 103 104 97 90 81 80 86 85 91 88 86 82 76 72 69 63 65 56 49 54 56 52 47 45 40 34 28 33 34 26 23 21 22 23 31 26 26
87 91 92 92 94 93 98 107 106 99 93 87 86 86 88 86 91 90 84 83 79 73 73 73 68 59 60 61 49 49 42 42 43 42 37 39 38 40 28 25 37 29 26 26
93 92 93 98 99 101 104 102 102 101 97 93 91 89 90 89 88 89 88 88 85 80 76 69 75 68 70 62 59 57 55 53 45 49 43 35 36 42 40 41 38 37 36 31
93 92 94 95 100 101 99 96 100 96 97 98 98 96 95 94 91 90 90 88 93 90 87 81 83 80 78 75 67 67 63 58 56 54 51 42 48 49 48 46 49 48 43 34
97 95 95 96 96 98 99 98 94 90 95 97 103 103 101 100 98 95 92 95 92 95 98 97 95 89 86 85 80 74 76 73 65 63 59 53 59 60 59 60 60 59 65 60
101 96 93 95 97 97 94 95 95 94 95 99 103 106 106 106 104 103 101 97 96 97 97 103 102 99 94 92 95 92 83 84 84 83 81 74 65 69 71 70 70 65 68 71
79 95 106 98 94 95 98 96 95 96 95 99 103 105 107 109 110 111 108 104 103 100 99 98 100 103 103 102 103 100 97 92 90 90 91 90 90 82 69 67 76 82 75 75
74 83 88 95 107 104 96 99 99 98 95 97 102 106 111 113 118 116 113 111 110 107 104 102 102 102 102 107 108 106 103 100 98 97 97 96 93 89 85 82 82 75 78 79
61 69 77 88 95 95 100 99 98 97 104 103 101 101 106 105 111 115 118 116 115 112 110 107 105 104 102 102 101 101 101 101 100 98 97 97 96 94 91 94 93 84 78 77
57 61 74 86 87 87 91 95 98 102 104 105 109 106 107 109 110 112 118 118 117 117 117 114 112 110 107 105 104 103 103 103 103 102 100 97 96 95 95 96 96 93 93 90
60 60 63 70 76 86 92 89 90 92 97 103 106 110 113 114 115 117 117 118 118 119 120 120 119 116 114 111 109 107 106 106 106 105 106 105 105 104 103 102 102 100 98 91
64 66 69 70 72 75 79 81 81 84 88 91 95 99 105 113 119 119 119 120 120 119 119 122 123 124 121 119 117 115 114 112 110 110 110 111 111 111 110 110 110 111 110 113
64 67 71 75 78 80 79 78 78 81 84 85 86 90 95 98 102 111 117 119 120 122 121 121 124 125 127 126 125 124 122 120 118 117 117 116 116 117 117 117 117 117 115 113
57 60 66 71 75 80 84 84 82 83 83 83 84 86 88 92 95 99 105 111 117 120 122 123 124 125 126 127 128 129 129 127 127 126 124 123 122 122 123 123 123 123 123 123
43 51 57 60 68 75 78 83 83 83 85 85 83 84 86 88 90 95 98 102 106 112 116 119 122 124 126 126 127 128 130 131 132 133 132 132 130 130 130 130 130 130 130 129
32 38 44 51 56 63 70 78 82 84 85 85 87 87 85 86 89 93 96 96 98 102 105 110 115 118 122 124 127 129 129 129 132 134 136 138 138 139 139 139 138 138 137 138
26 28 33 39 46 53 57 64 72 79 82 83 83 86 91 91 91 92 93 93 94 97 99 103 107 110 114 117 121 126 128 131 132 133 134 136 137 139 141 142 143 143 144 144
19 25 28 31 35 40 47 54 58 64 72 77 76 79 84 89 92 93 93 94 96 96 97 99 101 103 106 109 113 117 121 124 127 130 132 135 137 138 139 140 140 141 142 144
16 17 21 25 29 33 36 42 49 54 59 64 70 74 75 79 84 89 90 91 95 99 97 100 101 102 104 105 107 110 114 117 120 123 126 129 131 133 135 136 137 138 140 141
16 15 17 18 21 26 31 35 40 45 50 55 60 64 68 71 73 78 82 85 91 91 90 92 96 99 101 103 104 107 111 114 115 116 117 119 121 123 125 125 127 128 129 131
23 20 18 17 19 21 24 28 33 38 42 47 52 56 59 63 66 68 70 72 78 80 84 87 89 88 89 92 94 96 99 103 105 108 110 112 113 114 115 117 117 118 117 118
30 27 24 22 20 20 22 25 27 31 36 41 45 48 52 55 57 60 63 67 71 74 76 79 80 81 84 84 86 88 91 93 95 96 95 95 96 98 98 99 100 101 103 96
37 34 32 29 26 24 23 23 26 28 31 35 39 42 44 47 48 51 55 58 58 59 62 68 72 74 76 79 81 82 84 85 85 84 83 85 86 86 88 88 87 78 76 82
46 43 39 37 33 30 28 28 27 27 29 30 34 35 37 38 40 40 42 44 46 53 60 59 60 63 67 66 69 72 75 75 75 78 79 80 81 78 74 72 69 72 73 70
53 53 45 40 39 35 31 30 30 29 28 29 27 30 31 32 34 34 34 34 38 41 46 49 48 55 54 51 56 61 64 68 70 69 66 65 65 63 62 65 66 66 63 62
58 56 57 51 46 40 33 31 30 29 27 26 24 24 25 27 28 29 29 31 33 35 37 39 40 41 39 42 48 55 57 59 57 51 49 51 52 52 54 57 56 58 58 57

GFSNGP_250_spd_093.txt.gz
Wind_Speed
101 101 100 99 100 98 94 90 87 83 78 77 84 85 83 83 84 84 79 72 60 60 61 59 55 53 52 45 36 33 35 35 32 30 31 30 28 27 19 15 11 12 13 12
104 101 102 102 100 102 101 97 92 87 82 79 77 81 86 88 87 86 86 75 68 62 58 62 61 60 56 50 44 36 38 36 36 37 39 36 32 29 28 23 19 14 10 16
103 102 101 102 102 102 104 102 98 92 90 85 82 82 82 84 91 89 87 82 75 77 68 67 66 65 58 49 51 51 51 47 41 46 45 40 36 36 37 32 30 29 21 23
99 101 103 101 102 102 103 103 102 99 95 91 88 87 86 84 83 86 89 85 81 83 88 84 77 72 67 59 55 53 57 55 49 51 51 42 38 42 42 42 37 39 40 36
93 97 98 100 99 99 102 99 104 102 100 98 95 92 91 89 88 86 85 88 90 88 91 93 85 80 78 74 72 62 67 63 55 56 55 46 45 49 48 48 48 42 41 40
92 92 92 98 97 98 97 99 101 101 104 101 100 99 99 97 95 94 91 89 91 96 98 95 90 85 84 84 79 79 73 74 67 66 61 62 56 56 55 55 48 46 46 49
90 92 91 94 96 94 92 93 97 101 98 98 100 104 103 104 102 101 99 98 96 97 100 101 98 95 87 85 84 81 85 79 83 71 72 64 60 57 50 54 53 53 53 55
89 92 94 94 94 91 91 93 93 97 95 96 98 102 107 108 112 111 110 107 103 99 98 102 104 106 103 98 92 89 92 92 86 85 79 71 68 68 64 62 63 64 65 67
96 92 94 94 96 93 97 94 94 97 96 96 95 101 107 112 114 115 114 112 110 107 104 104 104 103 101 104 104 98 97 99 93 94 91 87 79 78 73 77 64 61 66 70
71 94 104 97 93 94 97 98 96 96 100 102 102 103 106 114 115 114 116 117 116 114 112 110 107 106 105 104 99 104 104 105 100 99 97 98 94 90 91 88 88 89 88 89
63 71 85 104 106 101 96 98 99 102 102 105 106 106 113 115 116 120 121 120 121 120 118 116 114 111 109 108 108 108 107 112 111 109 107 104 102 102 102 99 99 100 99 100
60 66 74 81 90 98 107 110 107 102 102 106 107 108 111 114 116 118 120 119 121 121 121 121 120 118 116 114 112 111 110 112 114 117 118 116 115 112 110 113 114 112 110 109
57 62 69 77 82 86 90 93 99 104 110 112 109 107 106 107 110 114 119 124 122 121 120 122 123 123 124 122 121 119 117 115 113 114 115 116 117 118 121 121 121 121 121 119
55 60 64 69 74 81 87 91 95 96 98 101 103 111 112 112 111 114 117 118 120 122 124 124 125 124 124 126 127 126 125 123 122 120 119 119 118 118 117 116 116 115 114 113
51 54 59 65 68 74 79 83 86 88 91 95 95 95 101 109 114 118 119 119 120 119 121 123 125 126 126 126 128 129 129 130 129 128 127 127 126 125 124 123 122 121 120 119
43 50 54 59 63 67 70 73 80 84 84 86 87 87 89 91 93 100 109 119 123 123 121 122 123 126 127 127 127 128 130 130 132 133 133 133 133 132 132 131 130 127 126 125
32 35 40 47 53 60 65 69 70 71 74 78 82 84 85 87 88 91 97 101 105 111 116 119 121 121 121 121 124 127 129 130 130 132 134 135 136 136 137 138 137 136 135 134
21 23 28 33 40 47 53 60 67 70 70 70 72 75 78 79 82 85 89 91 92 97 100 104 108 112 115 116 118 119 122 125 128 131 133 134 135 137 138 139 140 141 141 142
13 20 24 26 29 34 40 46 54 60 65 68 71 69 69 75 81 83 83 86 88 91 94 96 98 100 102 103 106 107 109 112 115 119 124 129 133 134 136 137 138 139 141 142
12 12 14 16 21 26 30 35 40 47 53 58 63 67 69 71 73 77 81 82 85 90 93 95 97 98 99 99 100 101 103 104 106 109 111 115 120 124 129 132 135 136 137 139
24 20 16 14 15 19 23 28 32 37 42 48 54 59 63 66 69 71 73 75 80 86 88 87 91 95 98 100 101 103 103 104 104 106 108 110 112 114 117 119 123 126 129 131
28 25 24 21 18 18 21 24 28 31 35 40 45 50 55 61 64 66 68 71 77 80 82 81 83 87 89 92 94 98 101 104 105 106 106 108 109 110 111 112 113 116 118 120
32 32 28 26 27 24 22 23 25 28 32 37 41 44 48 53 57 60 62 66 68 71 73 75 74 78 82 84 87 89 92 95 98 99 100 101 103 104 106 107 109 110 111 112
35 37 37 37 32 29 27 26 26 28 30 32 36 41 45 48 50 52 54 57 59 62 62 66 66 70 73 74 78 79 81 84 87 88 88 88 90 92 93 95 97 98 99 101
40 38 38 39 40 37 32 28 28 28 28 31 35 37 38 40 44 44 47 49 50 50 54 60 61 62 64 66 69 72 73 74 76 78 79 81 82 84 86 88 89 89 90 92
41 41 39 40 44 42 39 34 31 29 28 31 31 32 32 31 35 37 39 40 42 43 46 50 53 54 57 61 62 61 62 64 64 66 69 70 70 72 74 76 77 77 74 72
51 48 45 44 44 44 42 38 35 31 28 30 29 26 25 27 29 29 34 35 36 38 40 43 47 47 50 53 52 51 53 59 62 60 61 63 64 62 59 57 56 57 61 64

GFSNGP_250_spd_096.txt.gz
Wind_Speed
102 101 100 99 100 98 95 90 82 77 79 78 81 84 87 86 76 72 68 64 63 59 59 57 51 50 51 49 41 42 49 38 37 37 31 26 29 28 24 24 23 19 14 14
102 103 102 101 100 100 99 95 89 81 80 82 79 85 85 87 88 85 77 73 67 64 65 63 59 56 62 58 53 59 58 44 42 40 37 38 32 34 34 32 28 26 22 21
99 101 103 103 101 99 98 98 94 89 85 84 84 80 87 88 88 90 93 84 75 74 67 65 60 62 63 65 62 60 56 51 47 43 45 45 44 42 42 38 34 33 29 27
98 102 104 102 99 97 97 97 97 95 90 87 84 83 81 88 91 90 90 94 94 80 78 69 63 65 65 65 68 67 60 59 55 51 50 49 48 46 46 43 40 38 39 38
92 100 102 100 98 98 96 97 97 98 95 91 88 86 87 88 89 97 96 100 97 96 90 84 81 75 71 67 73 75 70 68 60 55 55 56 53 50 49 52 51 49 49 48
87 91 98 96 99 98 94 95 96 96 98 97 95 92 91 93 94 92 95 101 101 100 101 99 95 87 80 77 75 73 77 74 69 59 62 64 61 54 53 57 58 55 53 52
84 86 89 92 94 97 97 96 96 97 98 98 99 101 97 95 96 97 97 96 97 100 99 99 99 99 88 84 87 83 81 78 74 69 69 63 64 62 62 66 65 62 55 54
91 86 88 86 89 91 95 98 98 97 98 99 101 104 105 105 105 104 102 100 98 97 94 95 98 99 97 90 91 90 88 87 83 74 76 75 75 74 66 66 68 67 64 60
88 90 86 86 86 87 94 97 96 97 96 99 102 104 109 111 110 109 107 106 105 103 100 97 95 96 100 100 97 101 98 96 93 94 88 85 83 82 78 75 66 71 77 74
78 92 91 88 88 88 87 92 92 92 94 97 100 103 106 110 114 114 113 113 112 110 108 105 103 101 99 98 101 103 103 107 105 101 99 96 94 90 86 89 84 83 76 79
62 79 94 92 89 88 91 87 87 91 91 94 96 100 103 105 112 115 115 116 118 118 117 113 111 109 106 102 101 101 104 106 110 108 107 104 105 103 100 95 98 96 91 86
51 60 75 90 100 99 94 91 90 88 91 95 97 100 104 108 110 112 117 120 119 121 121 121 118 115 113 111 109 107 106 104 109 114 114 111 107 106 104 103 103 105 105 104
47 53 60 72 87 98 101 95 95 94 97 96 98 101 105 107 109 112 114 115 118 120 118 119 118 119 119 119 118 116 114 111 110 111 114 118 119 119 118 116 114 109 111 115
46 50 59 65 74 86 98 104 102 100 103 103 103 104 107 108 107 109 110 111 112 116 120 121 120 119 119 120 121 122 123 121 120 119 118 118 117 116 115 114 114 114 118 119
43 49 53 58 66 74 83 94 105 110 107 106 108 110 110 112 113 114 114 114 113 114 115 117 117 120 122 121 120 122 124 124 125 126 126 126 125 124 122 120 118 118 119 121
35 41 47 53 58 63 70 78 87 96 105 111 115 114 112 113 113 114 116 117 119 119 119 119 118 118 117 118 122 124 126 125 125 126 129 130 131 132 131 129 129 127 126 126
23 29 35 41 49 55 62 68 74 80 86 92 98 103 107 113 117 119 123 122 121 120 119 121 121 121 120 121 122 122 122 124 127 129 129 130 133 136 136 136 137 136 136 135
12 17 22 28 34 40 47 55 62 69 75 80 85 89 94 98 101 102 105 106 108 112 118 122 125 127 129 130 128 127 125 124 123 123 126 128 131 134 136 136 136 137 139 140
10 11 15 19 23 27 33 39 46 52 58 66 73 80 84 88 93 96 98 98 99 100 105 105 106 109 112 116 121 126 130 129 128 126 126 125 123 123 124 127 132 136 139 140
16 13 11 12 16 21 25 30 35 41 46 51 56 62 68 74 81 86 90 92 93 94 97 97 98 101 103 105 108 110 113 116 117 117 118 119 120 121 122 122 124 125 126 128
27 21 17 16 16 18 21 25 30 34 38 43 48 52 56 60 64 69 75 80 87 91 92 94 94 95 97 99 100 103 104 104 106 107 108 109 111 112 113 114 115 116 118 119
32 29 27 26 24 23 23 24 26 30 34 39 43 46 51 54 57 60 63 67 74 77 82 86 89 89 92 94 97 100 101 102 103 104 104 104 105 106 107 109 110 111 112 113
42 37 34 30 29 28 25 25 27 29 32 36 40 43 47 50 53 57 59 60 63 64 66 68 71 77 84 87 90 94 94 95 96 97 99 100 101 103 105 106 107 108 109 110
51 46 44 39 35 35 32 32 32 31 32 35 37 40 42 46 49 49 53 56 56 56 57 59 61 64 69 70 77 76 81 87 89 90 92 94 96 98 99 100 101 102 103 104
53 54 51 49 46 40 39 37 34 33 31 33 35 38 39 41 43 43 44 47 50 52 53 53 53 56 59 61 63 65 71 69 71 79 81 83 85 86 87 87 89 90 91 93
54 56 58 56 54 48 43 41 38 36 32 31 32 34 35 34 34 36 37 39 41 43 44 46 48 49 50 53 56 58 53 60 66 68 69 71 72 70 70 72 75 79 83 86
59 60 59 59 58 55 50 44 40 37 33 30 29 31 32 30 30 31 32 33 34 36 38 40 42 43 47 47 51 52 51 51 51 53 60 59 58 62 67 70 71 72 71 71

GFSNGP_250_spd_102.txt.gz
Wind_Speed
86 83 83 83 87 93 95 96 93 91 91 95 93 90 86 83 78 78 76 80 72 65 66 64 57 56 53 50 42 37 40 36 35 34 33 32 30 29 28 23 21 11 22 21
85 83 85 86 89 93 95 97 96 93 91 96 99 93 90 89 87 83 79 81 82 74 72 67 64 63 58 54 49 48 48 46 44 42 39 40 39 38 38 35 30 25 24 25
89 87 87 86 89 91 94 95 97 96 96 92 97 101 99 94 91 90 85 84 77 71 71 72 70 68 66 60 56 56 54 53 53 48 44 42 44 44 45 43 39 40 37 34
89 88 85 91 88 89 93 96 98 100 97 94 94 96 96 103 97 96 92 89 85 85 78 72 71 73 71 69 66 64 62 59 58 54 52 50 47 54 52 49 48 44 45 43
84 88 90 87 88 90 92 97 100 100 101 99 96 95 96 96 104 106 102 100 95 88 83 79 81 76 73 73 71 71 68 65 65 63 62 63 65 57 54 58 56 49 52 52
80 83 86 91 88 91 91 94 101 102 99 100 100 97 95 96 97 100 106 109 107 107 100 93 86 83 85 82 77 74 69 71 69 70 67 67 70 65 63 65 66 63 57 56
77 82 85 84 87 90 93 95 97 102 101 99 99 98 97 97 96 98 99 100 102 104 104 103 100 95 85 83 83 83 84 78 73 73 72 70 74 73 70 70 73 71 65 62
76 77 81 84 84 86 91 93 92 97 103 102 99 99 103 101 99 98 98 99 99 95 93 95 103 105 101 93 89 90 85 82 79 76 77 77 75 77 78 78 76 75 72 68
80 83 80 81 83 85 86 88 89 92 96 100 102 101 100 102 101 101 102 101 100 98 96 94 95 99 107 106 104 92 90 90 88 88 86 84 82 80 84 82 80 77 79 68
63 75 87 86 80 82 84 84 85 88 90 95 99 101 101 102 104 106 104 103 102 99 97 96 96 96 99 103 113 110 107 105 100 95 93 90 89 85 79 81 80 77 77 74
50 61 71 79 83 81 81 83 83 85 88 91 94 98 101 103 104 105 105 104 103 104 103 101 99 99 99 100 101 104 110 114 114 112 107 103 102 99 99 96 92 92 90 84
40 48 57 66 72 80 82 81 79 81 85 87 89 90 88 99 104 105 104 104 105 107 107 106 105 104 102 101 102 103 104 103 103 105 109 113 113 110 106 104 105 101 100 99
37 38 43 52 61 71 79 80 78 77 80 82 85 86 90 94 98 102 104 103 106 106 107 107 110 111 108 107 107 107 106 106 107 107 106 105 105 110 113 113 110 110 109 108
34 36 37 40 47 57 69 78 80 77 76 78 81 85 86 91 99 102 100 102 103 104 109 110 110 110 111 112 112 113 113 113 112 112 112 110 110 111 109 107 108 108 109 109
29 30 34 36 38 44 52 64 75 82 85 80 80 84 86 89 96 99 95 97 100 102 101 108 107 110 111 112 115 116 116 116 117 119 121 118 115 114 113 112 112 112 112 113
18 26 28 29 34 37 41 49 58 71 83 90 86 85 86 89 95 96 96 97 98 97 102 104 106 109 111 114 115 116 117 116 118 120 129 124 121 120 121 120 119 119 119 119
4 7 16 24 28 31 36 39 44 52 66 79 87 94 92 92 91 100 97 96 97 100 103 104 106 105 107 108 114 116 118 118 117 118 127 125 121 124 124 124 125 126 127 127
26 22 16 6 7 18 26 33 38 43 48 56 68 84 95 101 102 102 104 99 100 103 105 105 105 106 108 111 110 110 107 115 116 117 122 123 124 123 121 122 124 125 126 126
31 28 24 18 13 10 5 8 20 32 41 48 53 61 70 82 98 110 111 109 108 107 108 108 108 110 112 113 114 113 115 116 116 118 121 122 121 121 119 120 121 123 124 124
26 26 26 25 22 19 15 12 11 13 18 26 39 51 58 65 71 79 88 99 109 115 115 114 112 112 115 118 120 121 122 123 124 125 124 125 124 122 121 120 119 118 118 118
21 20 19 19 20 19 18 17 16 16 18 23 28 34 42 51 60 68 74 80 85 89 94 100 109 116 120 122 123 123 123 125 127 129 128 128 127 125 123 122 122 120 120 119
18 20 18 18 18 18 21 21 20 20 19 20 25 31 35 40 47 54 60 65 72 77 84 89 94 98 102 104 107 112 116 119 123 124 127 128 128 126 125 125 125 124 122 121
15 22 23 22 21 23 24 26 26 26 24 24 27 31 35 37 40 45 50 54 60 66 72 76 79 83 86 89 92 96 99 102 105 107 108 109 110 110 111 112 112 111 110 111
17 22 27 28 25 29 31 32 33 34 33 30 31 33 35 36 38 41 44 48 51 54 59 65 69 72 74 76 80 82 84 86 87 89 91 91 93 96 97 98 101 102 103 102
24 29 33 35 36 34 37 44 42 44 37 36 36 35 36 35 36 38 41 43 46 48 51 55 58 60 62 65 69 72 74 76 80 81 82 82 82 84 86 88 88 89 90 90
31 38 41 45 44 40 43 47 49 44 38 37 40 40 38 37 36 37 38 38 39 41 44 48 49 49 51 54 56 59 61 64 67 71 73 74 76 78 80 81 81 81 81 81
37 41 42 49 53 50 50 53 53 50 43 41 43 42 40 37 36 36 36 37 37 37 38 41 43 42 43 45 46 47 49 52 54 57 60 62 65 69 72 71 72 72 73 74

GFSNGP_250_spd_105.txt.gz
Wind_Speed
90 90 89 87 88 91 94 98 100 100 106 103 106 88 88 97 86 80 80 78 68 60 61 61 61 59 58 49 47 42 41 34 30 32 30 30 32 32 32 28 25 21 19 11
84 89 88 89 85 87 89 95 98 100 98 105 104 104 90 86 94 85 85 79 75 62 63 62 65 63 59 53 51 50 46 44 40 34 31 29 28 34 37 35 33 31 28 27
87 86 86 90 90 89 90 90 97 101 101 108 99 101 102 91 83 85 82 80 78 81 67 68 68 68 64 60 59 56 56 53 51 49 44 39 36 36 38 41 40 38 38 35
88 89 82 87 92 92 88 93 94 95 103 98 99 100 100 107 101 91 85 83 88 86 80 72 70 72 71 69 67 65 61 57 54 59 56 50 47 46 46 45 43 47 44 43
89 87 87 92 91 93 91 93 93 94 96 97 97 101 102 102 99 98 94 90 92 87 77 79 74 74 75 73 76 71 67 65 63 62 64 61 57 57 52 52 46 51 54 55
89 91 94 90 82 87 93 96 92 92 98 99 99 103 104 102 99 103 105 100 95 91 90 91 90 85 81 82 81 79 74 69 68 67 69 68 64 62 59 58 57 57 59 59
83 88 92 91 90 95 95 98 93 96 97 94 98 101 101 102 102 102 105 105 101 104 98 101 95 91 88 82 77 80 79 79 78 78 76 74 71 69 68 66 67 68 67 67
79 79 89 92 94 94 96 96 93 94 92 94 95 99 101 106 106 103 101 104 107 108 109 103 101 98 94 92 89 84 73 73 76 79 79 77 77 74 74 76 75 74 74 73
77 80 84 88 93 97 97 97 95 93 94 95 96 96 101 104 107 108 106 104 109 113 111 106 106 105 107 106 99 97 95 96 93 84 78 79 83 87 85 77 79 81 78 78
58 71 82 86 87 93 98 97 96 96 93 94 94 96 99 101 106 108 110 110 108 109 113 115 113 114 109 111 109 106 103 102 104 99 99 93 93 83 82 85 86 88 86 85
49 59 70 79 84 83 88 92 93 94 94 94 94 97 98 99 103 105 106 108 110 110 108 107 108 110 114 116 116 115 114 114 114 113 111 115 111 105 97 91 89 91 87 86
42 49 56 67 76 82 80 80 83 86 90 91 92 93 96 95 97 99 104 107 108 110 111 110 108 108 109 111 112 113 115 116 116 116 110 108 109 114 113 110 106 99 96 96
39 43 47 54 62 69 77 81 77 82 83 87 89 91 93 96 97 99 100 102 106 107 109 113 115 114 112 110 109 109 109 110 109 109 108 107 107 106 111 112 116 114 112 112
37 38 40 43 47 54 63 71 80 80 81 86 87 88 90 91 92 95 95 97 100 105 107 110 111 113 114 115 115 112 111 110 110 109 109 109 109 110 112 112 111 114 117 118
30 33 33 34 38 42 48 56 65 75 84 85 82 84 88 89 88 88 89 89 88 95 106 109 111 114 113 114 115 116 116 117 117 116 115 114 113 114 113 113 113 114 115 116
13 23 28 28 29 33 37 43 50 59 70 80 88 87 85 86 87 86 87 88 92 91 94 106 111 115 115 116 116 115 117 120 120 122 122 121 121 121 121 120 120 120 120 121
7 5 9 18 23 23 26 31 36 45 54 64 74 83 89 88 85 85 89 91 91 95 97 100 107 109 104 106 111 115 115 121 122 122 122 123 123 124 125 125 126 126 126 127
17 13 10 8 10 15 20 24 26 30 37 46 57 69 80 88 91 91 91 92 97 99 102 104 107 106 109 106 105 109 111 112 113 123 123 124 125 124 126 125 125 125 123 125
22 20 17 15 12 9 6 9 16 25 32 37 42 50 63 77 88 92 95 95 98 100 104 107 109 111 110 111 107 107 109 112 113 115 119 118 120 122 124 124 125 125 124 126
16 16 15 13 10 8 6 2 3 10 19 27 35 44 52 60 67 77 88 98 104 105 104 107 110 111 113 114 112 109 110 112 112 114 115 115 116 118 119 119 118 117 115 115
14 11 12 12 12 12 13 14 15 16 18 22 27 34 43 52 59 67 75 82 90 101 109 113 113 113 114 115 117 117 114 114 116 116 119 119 118 118 118 121 120 121 120 119
9 10 12 16 17 19 19 20 21 22 23 25 28 32 35 40 46 53 61 69 76 85 91 96 101 108 115 116 118 121 121 119 121 123 125 125 125 124 124 125 126 127 126 126
16 14 15 13 13 14 19 23 27 27 26 26 28 32 36 40 43 45 48 53 57 66 73 79 85 91 95 99 102 104 107 108 108 109 112 117 121 125 127 131 131 131 131 132
23 22 21 21 20 21 22 25 30 36 36 31 30 31 35 39 41 43 46 48 51 54 59 65 69 74 79 83 86 90 93 95 97 98 100 100 101 105 109 110 112 112 116 120
28 26 25 24 29 32 32 36 38 41 45 39 37 36 36 39 40 40 43 46 46 49 52 56 59 63 66 69 72 76 78 80 81 82 84 86 88 90 95 93 93 98 98 100
31 32 34 37 40 39 39 42 47 48 51 48 43 43 39 38 40 40 41 40 42 43 46 50 52 53 56 58 60 63 66 68 69 71 73 75 77 78 81 80 81 85 87 88
35 37 38 39 44 49 49 50 54 55 56 53 54 48 43 44 43 41 39 38 38 39 42 43 46 47 48 51 53 54 56 58 59 60 62 64 65 67 69 70 70 71 73 74

GFSNGP_250_spd_108.txt.gz
Wind_Speed
87 91 89 88 91 96 99 103 108 108 103 99 93 94 75 72 69 59 59 75 74 70 64 61 59 59 59 40 47 43 38 38 31 37 36 34 32 32 32 31 28 23 22 21
85 88 91 89 91 95 98 101 104 108 111 102 107 85 84 83 70 70 71 64 71 75 75 72 71 67 65 67 62 57 51 52 51 43 43 34 36 35 32 30 32 32 31 29
84 88 92 93 91 93 95 98 101 106 113 114 99 86 48 92 92 80 73 64 72 69 71 76 73 70 65 68 69 66 62 56 54 49 50 41 38 37 34 31 32 32 35 35
85 88 87 95 95 96 96 98 101 107 110 103 94 96 99 78 108 100 102 92 82 73 73 75 75 73 74 71 68 66 58 61 61 54 55 55 48 46 39 35 36 32 34 35
84 85 88 90 93 97 94 96 96 101 105 100 99 98 99 65 57 108 107 91 98 93 74 79 76 78 80 74 70 67 65 60 65 63 62 63 57 56 54 56 53 54 51 51
84 88 90 87 89 91 94 101 99 96 97 98 103 105 96 127 98 68 72 118 103 95 101 91 76 80 87 81 78 78 71 68 66 71 69 69 68 64 62 61 60 62 61 55
78 84 86 89 87 91 95 99 96 95 96 98 98 105 111 112 121 127 91 82 108 102 98 99 105 89 83 91 85 77 76 76 78 74 70 72 73 73 68 69 68 66 67 66
73 73 79 84 88 91 94 96 94 101 99 101 98 98 112 106 117 112 115 102 100 113 107 100 87 98 98 89 90 95 87 83 83 81 79 80 80 78 76 74 74 74 71 71
73 76 77 79 82 89 99 100 96 93 99 100 103 103 103 108 115 112 97 104 115 103 108 114 112 96 98 96 89 103 104 101 95 90 82 84 82 85 87 87 84 83 85 80
67 79 78 79 88 90 99 96 98 97 95 97 101 104 104 107 111 110 114 112 105 107 109 110 117 116 110 104 105 97 94 91 96 94 86 90 89 86 91 90 84 87 84 85
58 65 80 86 96 93 94 98 100 96 94 98 98 99 101 102 105 104 105 106 107 109 108 109 111 115 118 115 115 113 107 109 104 108 102 101 98 93 92 84 79 82 86 86
55 59 65 76 86 89 95 96 97 97 98 99 99 98 99 100 99 101 100 101 103 103 105 109 110 110 111 111 116 122 118 113 113 116 117 115 112 111 112 107 105 103 103 98
53 55 58 65 67 70 76 92 94 95 98 97 98 99 99 99 100 101 100 99 99 100 101 103 106 110 111 113 113 114 116 118 119 119 122 120 116 117 118 117 116 114 115 112
47 49 51 55 55 57 62 68 81 88 90 93 96 96 97 97 99 99 98 98 98 101 101 103 105 107 109 112 114 115 116 116 116 120 122 121 121 122 121 123 124 122 120 120
35 40 44 44 43 43 44 49 57 67 76 84 90 91 93 94 96 98 97 96 100 99 99 102 108 104 106 107 110 113 115 117 117 118 120 124 126 128 127 125 122 123 125 127
19 24 32 37 37 35 34 36 39 46 56 68 78 85 85 86 92 94 94 95 97 98 101 101 99 99 102 103 107 110 112 115 116 117 120 123 122 123 123 122 122 121 124 121
1 7 13 21 25 25 23 26 30 32 37 46 58 70 81 85 85 86 86 89 91 92 95 96 97 98 99 102 104 107 109 110 112 117 119 120 120 121 123 125 126 125 125 127
18 15 10 4 4 11 16 19 21 26 31 34 40 49 62 73 84 86 84 87 90 91 93 95 96 98 99 100 103 103 110 111 111 115 115 117 121 118 120 123 125 127 125 129
21 20 19 16 13 9 7 8 13 18 23 28 32 37 46 57 66 74 84 93 94 94 94 92 92 95 98 99 98 98 98 107 112 113 114 116 117 118 119 122 122 125 126 127
15 15 15 13 12 13 12 10 11 13 14 16 22 28 33 40 47 57 69 78 86 97 103 103 101 99 99 100 104 104 110 113 117 117 118 118 118 118 116 116 118 117 116 118
8 9 11 13 10 5 5 7 8 8 10 15 20 24 26 30 35 43 51 56 68 79 88 95 101 108 112 110 109 110 113 116 117 119 119 120 120 120 121 119 118 117 118 120
14 15 14 16 13 14 13 14 10 11 14 15 17 19 22 29 34 37 40 44 53 62 69 77 87 95 103 108 112 113 116 117 117 120 123 126 126 126 123 121 119 119 119 117
14 18 19 21 19 18 17 18 21 21 21 23 25 25 26 26 31 38 39 46 48 54 59 65 73 77 82 87 94 100 108 115 121 123 121 122 126 127 127 126 125 124 123 121
18 21 26 24 25 24 25 27 27 27 28 32 32 30 32 33 35 40 42 44 49 52 55 58 62 66 69 73 76 80 86 92 97 100 103 106 109 114 117 118 118 118 118 118
23 25 25 25 27 31 31 29 27 28 33 39 41 44 46 45 42 42 44 49 50 53 56 55 55 58 60 63 67 71 76 79 82 84 86 88 91 93 94 96 96 96 96 97
25 28 31 32 35 38 39 38 38 40 41 43 46 50 50 52 49 48 49 49 51 51 50 53 52 51 55 57 59 61 64 68 71 73 74 75 77 79 80 82 81 81 83 85
27 30 32 35 38 42 43 42 46 45 45 48 51 52 55 54 56 56 52 49 48 46 45 45 47 47 48 50 52 55 57 59 61 63 64 65 66 68 69 70 70 71 72 73

GFSNGP_250_spd_111.txt.gz
Wind_Speed
87 87 90 91 92 96 101 100 101 103 91 83 76 71 67 65 63 60 64 66 65 61 57 51 50 48 46 43 34 35 29 26 22 26 24 24 20 23 27 28 30 32 29 24
86 87 92 93 93 93 97 105 107 115 98 87 78 63 65 63 67 58 56 73 58 59 56 59 60 55 48 45 38 39 34 34 29 32 24 26 36 36 33 32 29 29 30 31
84 91 90 95 93 92 96 107 109 114 103 93 89 74 60 69 58 50 58 59 66 70 74 73 70 62 55 55 51 53 41 40 40 45 51 50 42 47 45 35 32 29 36 34
88 87 89 93 94 95 97 100 103 106 103 103 100 90 82 77 72 50 36 56 64 66 74 77 81 79 75 69 61 60 64 70 69 63 59 60 57 56 55 43 38 40 43 40
88 89 92 92 93 97 97 97 101 103 103 108 109 107 91 89 95 93 66 62 64 65 60 60 63 62 67 65 57 62 71 73 70 68 66 63 62 61 55 57 48 48 50 48
82 91 94 92 92 95 98 99 100 100 102 108 115 115 113 105 93 93 96 86 83 84 71 70 67 66 67 68 69 70 68 72 74 74 72 70 68 64 62 59 59 59 52 55
73 80 89 90 91 94 98 100 103 102 99 103 112 118 122 119 114 104 93 100 99 92 97 87 84 79 72 67 72 75 75 76 74 74 74 71 67 65 66 67 64 65 67 64
71 76 81 88 94 95 94 95 96 101 103 102 108 116 118 123 121 122 114 91 103 80 79 97 97 94 80 82 83 78 79 81 77 79 81 78 78 80 73 72 74 76 76 75
69 70 75 85 90 91 92 93 96 102 106 107 103 108 112 117 125 122 118 123 118 110 99 90 88 111 103 99 98 80 83 86 87 85 88 88 92 91 88 83 89 79 74 78
67 69 73 78 84 88 90 97 98 100 102 103 106 105 107 110 113 120 120 124 124 126 124 119 109 99 100 119 111 115 112 111 104 97 90 93 91 89 83 87 90 85 80 80
61 66 73 78 77 85 89 97 101 100 100 103 101 103 105 106 109 111 117 117 117 122 125 124 122 110 99 102 102 108 108 109 113 114 99 107 111 102 98 98 95 93 92 97
56 56 62 76 79 82 86 93 97 99 103 101 99 98 100 104 108 111 112 114 114 117 117 122 125 124 123 108 109 111 117 115 106 112 110 109 107 104 112 109 104 110 103 95
56 55 54 53 61 83 87 91 89 90 95 103 102 100 99 99 103 110 114 114 113 113 115 115 119 123 128 128 134 136 129 122 122 121 119 119 120 120 113 107 104 107 114 113
58 60 57 57 54 58 71 82 87 86 85 90 96 99 101 102 103 105 108 112 115 115 114 116 117 116 118 124 128 126 126 123 121 119 127 129 126 128 132 131 131 123 116 121
46 49 58 61 59 58 57 57 60 63 73 80 85 88 93 98 101 105 105 107 109 110 111 112 115 119 121 120 121 122 122 122 123 124 125 125 127 127 127 129 136 137 134 132
23 30 40 47 52 52 52 50 52 50 52 58 68 77 81 87 95 99 101 103 106 107 108 108 108 112 113 116 118 119 119 118 119 120 119 117 119 122 124 125 126 128 127 128
6 7 13 21 31 38 42 42 38 37 39 44 48 54 62 70 77 86 93 95 101 105 107 108 109 110 111 112 113 115 117 116 117 119 118 117 117 119 119 120 120 123 126 126
27 23 19 14 7 3 10 16 20 22 24 27 32 35 39 48 56 64 76 87 95 97 98 101 104 106 108 110 111 112 113 114 116 115 115 116 118 119 120 121 121 120 121 123
24 23 22 23 22 17 13 7 3 6 7 9 14 20 25 29 36 47 57 67 77 87 93 97 99 100 102 104 109 110 111 112 114 115 116 117 118 119 119 118 120 121 121 123
16 19 18 15 11 10 10 12 11 9 9 8 8 10 10 12 17 24 33 43 54 64 74 83 90 96 98 97 98 101 104 107 112 114 114 115 117 116 117 118 119 119 119 120
11 11 11 10 14 12 10 10 11 11 11 10 9 10 12 14 16 20 25 31 35 42 49 57 68 80 89 97 102 103 105 108 111 112 114 114 114 113 114 115 115 115 115 116
13 10 11 12 15 14 10 12 12 13 16 18 20 18 19 20 22 24 27 30 34 38 42 46 53 61 69 79 88 97 105 110 112 111 111 113 113 114 113 115 115 115 115 116
14 14 14 16 16 16 15 13 15 20 17 19 22 23 23 20 22 27 31 34 39 42 46 51 56 61 65 70 76 81 84 88 93 93 96 100 105 112 116 119 119 118 118 120
16 12 15 15 16 19 22 23 21 23 20 17 23 24 24 23 27 34 35 37 42 48 49 55 60 64 67 67 65 66 67 70 75 78 81 83 88 91 95 99 104 108 111 114
20 18 19 20 22 25 30 32 29 30 32 27 32 30 30 30 35 41 43 43 44 46 49 54 56 57 59 60 62 63 64 65 65 67 70 72 76 80 81 84 86 89 92 95
22 23 23 24 30 33 33 36 38 38 37 36 37 39 41 43 47 50 53 53 55 52 53 52 49 49 51 53 54 55 57 58 60 61 62 63 64 67 68 70 73 75 76 79
31 31 31 33 38 39 38 39 43 47 46 45 48 50 52 55 56 57 59 56 51 50 51 52 49 47 46 47 47 48 51 52 53 54 56 58 58 58 58 60 61 63 64 67

GFSNGP_250_spd_114.txt.gz
Wind_Speed
85 87 84 88 90 98 98 96 94 87 81 76 61 49 64 56 61 60 68 64 54 48 49 48 47 45 46 44 38 35 36 30 30 38 40 27 22 19 15 14 16 16 21 20
87 89 86 86 94 94 98 98 98 92 79 82 80 54 60 59 59 56 53 59 63 58 52 50 50 52 54 52 44 41 43 43 35 32 37 41 33 25 21 18 23 30 31 28
88 91 89 89 92 95 99 101 100 94 89 80 80 78 64 63 56 54 53 52 50 56 58 58 56 59 59 53 51 48 45 34 24 35 41 42 43 33 32 32 38 41 36 33
86 90 93 94 93 94 94 100 102 99 98 88 77 68 74 66 63 54 54 41 54 54 59 57 58 62 62 60 54 53 48 46 49 47 43 44 45 47 46 44 53 51 45 40
84 89 91 95 95 93 95 98 105 106 108 103 92 85 80 78 73 66 51 64 55 41 47 58 53 55 55 57 58 60 58 57 58 53 52 54 58 59 60 59 57 55 52 48
79 84 90 95 98 96 96 101 101 104 113 114 108 101 92 88 79 81 72 77 79 60 52 60 58 48 51 62 60 62 59 56 62 64 62 62 64 61 63 67 68 62 54 53
66 78 84 90 97 102 102 97 99 103 108 116 112 107 107 99 95 85 75 83 80 82 65 67 60 56 58 42 65 58 53 53 64 70 63 72 79 80 77 74 77 69 67 61
65 67 78 88 93 100 101 100 101 104 104 112 116 113 109 110 99 96 88 88 82 74 76 73 75 69 63 57 62 43 43 46 61 78 80 77 78 79 80 81 78 78 66 61
66 70 72 82 92 97 100 101 101 102 103 106 112 111 111 109 110 109 106 99 100 95 86 77 78 75 71 62 65 73 68 65 61 64 82 90 89 88 85 88 89 81 70 65
59 69 73 75 82 93 96 98 100 101 102 106 108 112 113 111 111 112 114 114 109 103 102 105 94 90 82 80 79 73 78 91 94 94 84 85 90 95 92 85 83 82 85 86
53 59 66 70 68 74 86 95 99 100 100 104 106 110 112 113 113 115 116 122 121 120 114 112 117 106 106 95 95 95 96 86 87 94 98 99 96 96 98 95 91 93 95 90
47 50 54 61 67 71 70 76 91 99 100 100 101 104 108 112 115 114 119 120 126 129 129 125 122 121 123 120 104 104 109 112 110 100 95 96 95 90 94 93 97 96 88 91
44 43 45 50 59 63 65 70 73 81 92 98 99 100 101 104 111 116 117 121 122 126 129 127 130 134 131 129 127 121 111 111 115 120 114 106 111 109 113 104 104 104 104 100
47 45 44 45 49 56 59 64 69 69 71 78 87 94 97 101 104 109 115 120 122 127 128 132 131 127 130 132 135 136 134 131 125 126 124 121 119 120 120 117 113 115 113 116
25 34 42 48 47 46 46 45 45 53 65 73 74 77 84 90 94 100 105 112 118 123 126 128 129 134 131 127 129 135 137 137 138 139 140 137 135 133 132 132 130 127 129 131
29 32 32 43 53 50 48 49 49 49 48 53 57 62 69 71 76 86 97 105 110 112 118 124 127 130 132 134 133 129 129 136 140 139 138 139 139 139 137 138 141 144 142 142
12 15 20 25 33 45 45 48 48 48 48 47 48 49 52 60 72 76 83 94 102 110 115 115 117 120 126 131 134 133 133 133 133 134 134 136 139 140 139 137 136 137 140 140
21 12 8 1 10 19 31 41 46 46 44 43 44 45 46 50 52 54 59 66 75 88 99 107 114 117 118 120 122 124 126 129 131 133 134 135 136 138 139 137 137 136 136 137
25 24 24 21 18 12 8 6 11 17 22 27 31 34 38 40 41 43 47 51 57 62 68 77 88 98 107 113 118 121 123 125 127 127 128 129 130 132 134 135 133 131 131 133
16 16 16 16 17 15 14 13 10 8 5 4 9 14 18 21 23 27 32 36 39 43 49 57 65 75 83 91 99 106 113 117 119 122 125 128 128 127 128 129 129 127 127 130
9 8 6 10 11 12 7 7 8 8 8 10 12 13 15 17 19 21 21 20 25 31 37 41 46 54 62 69 77 86 95 102 108 112 115 116 119 121 123 125 128 128 127 126
11 4 3 3 5 6 6 7 8 10 15 17 17 18 18 20 22 26 27 27 28 32 34 37 41 45 49 55 61 69 77 84 91 100 104 107 109 112 113 115 117 116 115 114
13 11 10 10 8 7 6 8 11 15 16 16 20 23 22 24 28 31 31 31 34 35 38 41 45 49 54 57 59 63 69 75 81 83 85 88 93 96 99 100 101 100 99 101
16 13 13 11 13 14 17 21 21 20 20 18 20 24 24 30 31 27 31 36 37 38 42 45 47 51 57 62 65 67 69 70 70 71 73 75 79 83 85 87 88 89 89 89
19 16 13 15 16 18 20 24 27 28 28 29 30 30 32 36 37 40 42 43 43 46 50 52 55 56 56 59 63 65 63 62 62 63 65 67 68 69 71 75 78 80 82 83
18 17 17 18 21 24 23 21 25 30 34 36 38 39 41 44 45 45 46 47 48 53 55 58 59 58 57 57 58 57 55 54 54 54 55 57 59 61 62 64 67 69 71 73
21 17 18 20 22 29 31 29 35 41 43 44 46 49 51 51 51 52 54 57 60 63 64 61 57 55 52 50 49 49 49 47 48 50 51 52 53 54 55 57 59 60 60 60

GFSNGP_250_spd_117.txt.gz
Wind_Speed
87 91 92 87 85 85 87 88 87 88 86 78 68 68 69 69 73 67 63 57 52 51 51 48 46 41 41 43 36 33 32 28 29 28 30 24 24 26 23 19 20 14 8 7
85 89 90 86 85 85 86 89 89 90 88 86 81 70 74 71 69 73 67 64 61 56 53 53 48 47 45 43 44 39 40 38 34 30 35 34 32 35 33 33 27 24 20 15
81 88 90 87 86 86 88 90 91 92 90 83 84 80 80 76 71 70 70 68 64 62 62 58 59 51 48 47 44 43 41 43 42 38 37 38 39 39 32 32 37 36 33 27
79 86 87 87 87 88 86 91 93 94 93 86 88 74 73 75 75 64 63 68 66 65 64 64 61 53 48 49 52 45 42 48 47 41 41 41 42 34 36 42 44 44 43 43
74 84 85 90 89 89 92 94 97 98 97 91 88 91 74 68 74 66 64 62 62 64 63 60 57 57 57 51 52 52 52 52 56 50 48 48 47 44 49 50 48 52 51 51
66 78 86 91 94 95 95 96 98 99 100 100 91 88 88 75 72 68 68 69 69 63 58 57 56 55 55 57 60 61 58 53 57 59 56 58 55 52 50 54 62 58 63 61
59 70 80 90 96 98 97 97 99 100 104 104 104 95 90 85 73 75 74 72 74 76 64 68 65 63 62 47 45 45 54 47 56 57 64 66 60 57 55 59 63 65 67 69
60 63 76 87 92 97 97 99 100 102 103 104 107 108 105 94 90 85 77 70 72 73 74 68 62 70 75 74 71 51 44 54 54 46 38 49 54 62 68 72 64 69 72 71
55 64 66 78 89 92 98 100 101 100 101 103 106 109 107 106 97 86 93 83 77 74 72 69 71 69 74 75 68 63 64 67 59 58 55 55 60 71 73 76 79 82 79 80
48 57 66 69 77 90 95 97 100 102 102 104 106 109 111 109 110 102 90 95 95 94 81 77 78 74 75 78 75 69 59 63 57 61 66 62 57 68 82 89 92 93 89 85
44 51 57 64 68 73 86 94 97 99 100 101 102 108 112 113 112 115 110 96 95 96 95 91 85 86 84 82 83 81 72 73 71 77 76 76 68 71 72 71 76 86 96 96
42 45 51 54 58 67 70 80 90 92 97 99 102 103 107 113 117 118 119 120 113 97 94 97 99 103 100 97 89 95 95 93 93 88 94 87 84 76 78 80 86 86 87 91
38 41 44 49 53 57 61 66 70 82 88 92 98 103 104 107 112 118 122 124 117 119 114 106 102 106 109 94 96 92 96 103 103 94 97 99 103 99 100 103 91 89 93 95
27 37 39 41 45 49 52 56 61 64 69 83 89 91 98 104 106 111 119 124 121 119 118 118 121 116 111 116 108 107 106 104 100 104 98 101 107 110 107 105 103 104 106 110
15 22 30 33 36 40 43 47 52 56 62 65 70 81 90 94 99 104 109 116 123 123 119 118 121 127 129 128 123 123 122 119 120 120 115 116 116 114 116 117 117 116 116 116
6 14 17 21 24 35 40 43 44 46 51 55 58 64 70 79 88 98 104 106 110 116 120 120 121 125 128 132 136 140 138 136 137 138 135 135 130 133 135 137 138 137 139 145
8 14 19 25 29 28 31 36 41 41 39 43 48 54 61 67 74 80 88 97 104 111 115 118 121 124 125 128 132 136 138 141 146 150 151 148 150 152 151 152 150 151 153 152
21 13 3 9 13 16 20 25 30 36 39 37 39 41 48 55 60 68 77 87 95 104 113 118 121 124 127 130 130 131 133 138 140 143 148 153 157 158 160 161 161 161 159 159
17 17 20 19 14 8 5 8 15 21 27 31 34 38 42 49 55 58 61 63 65 69 80 91 100 109 117 122 126 129 132 134 136 136 138 140 144 148 152 155 156 156 156 156
13 13 16 15 12 13 15 15 14 14 12 12 13 15 19 24 28 33 39 43 47 50 54 58 63 70 79 88 97 107 115 119 124 130 135 135 136 137 139 143 148 149 150 150
11 7 7 10 9 8 8 7 7 7 5 3 1 3 7 12 15 19 23 28 30 33 35 39 44 48 53 58 65 72 80 88 95 101 109 117 126 131 134 136 141 145 147 148
7 7 6 4 4 4 4 6 6 4 3 6 8 10 14 16 17 16 17 20 21 25 26 29 33 36 39 42 45 51 56 62 69 76 84 92 98 104 110 116 123 127 128 129
8 6 4 5 3 1 1 1 2 3 4 5 6 9 12 14 16 20 24 25 26 28 32 36 39 43 45 48 51 56 59 61 64 67 72 78 83 88 93 96 99 101 104 105
7 9 8 5 5 7 9 9 8 10 9 7 10 14 18 22 24 25 28 30 33 35 38 41 44 47 50 52 57 61 64 67 70 71 72 73 74 77 79 82 85 86 88 90
6 11 14 12 12 14 14 16 18 15 12 15 18 21 24 27 29 33 36 38 41 42 44 46 48 51 53 54 56 59 62 66 69 71 72 71 70 69 68 70 71 73 74 76
9 10 12 15 17 17 16 18 21 19 21 22 25 28 32 35 38 42 43 44 47 48 50 52 55 56 57 56 58 60 60 61 61 62 63 62 62 62 62 62 63 65 66 66
16 14 18 19 20 22 25 27 30 32 33 33 34 35 39 45 48 51 53 52 54 57 59 61 61 59 56 55 55 54 54 55 55 55 55 55 55 55 55 56 57 57 58 59

GFSNGP_250_spd_120.txt.gz
Wind_Speed
72 98 104 100 96 92 87 84 90 95 93 87 84 81 79 72 69 66 61 58 57 57 54 50 44 41 40 38 34 33 29 28 24 23 19 19 20 20 18 21 23 14 13 11
61 83 98 104 100 97 90 87 86 95 89 87 84 85 82 79 78 71 67 64 61 61 57 54 52 48 47 44 41 39 35 36 34 29 28 27 26 25 30 25 28 28 24 22
52 71 91 100 98 96 94 88 85 89 89 87 85 82 82 85 83 80 73 70 67 64 62 58 56 48 48 48 46 42 39 34 38 37 36 34 34 33 30 34 34 37 36 28
40 62 81 93 97 96 97 95 92 88 90 89 89 88 82 81 84 77 77 77 73 72 69 71 64 56 51 54 51 48 47 42 39 41 44 42 38 40 40 37 40 35 30 36
41 50 68 87 92 97 100 95 93 91 88 88 93 93 92 85 82 81 82 84 79 74 73 68 71 66 61 58 57 54 49 45 38 39 45 46 47 45 46 44 45 47 43 42
47 48 60 79 93 97 99 98 97 93 91 90 92 94 96 90 79 82 81 82 86 85 81 73 71 71 69 63 58 58 58 54 52 57 53 45 57 55 57 56 54 52 50 51
48 49 56 70 83 93 99 98 99 95 98 95 94 96 97 99 90 71 77 82 85 83 80 78 77 74 72 65 61 61 62 59 43 58 65 60 57 56 59 60 59 58 59 56
48 53 56 64 76 86 97 101 99 100 100 96 94 95 96 98 93 84 75 77 84 86 85 83 83 78 75 73 68 64 64 62 61 66 62 62 66 67 64 66 63 67 69 66
46 54 59 64 72 83 91 100 101 99 98 97 94 93 95 98 94 93 87 79 80 82 85 83 84 82 75 75 76 76 70 64 61 63 60 54 55 57 60 60 61 57 62 65
45 54 58 63 68 76 82 88 97 100 100 95 95 94 94 93 92 92 94 87 81 77 83 82 82 82 79 77 78 73 74 68 68 64 62 57 54 53 63 64 68 64 66 67
44 52 55 60 68 70 73 82 91 95 99 98 97 97 95 95 97 95 99 97 90 80 84 88 88 88 87 84 83 80 79 74 78 74 69 69 68 69 66 73 72 77 75 79
39 48 54 57 61 69 71 75 81 88 95 99 100 99 98 97 98 101 104 107 107 101 91 87 92 87 86 86 84 84 83 81 86 92 86 80 84 81 80 82 80 74 84 84
34 43 51 54 59 65 72 74 75 80 87 90 99 99 101 101 100 101 104 110 112 107 103 98 94 91 91 90 90 87 89 88 90 93 95 98 95 91 87 94 96 85 87 85
31 38 47 49 52 59 66 70 73 74 76 80 87 92 98 100 103 104 105 107 113 117 115 112 102 98 94 92 91 93 96 95 92 99 98 100 100 101 100 102 105 102 98 94
20 27 33 40 46 52 56 61 65 67 65 65 72 82 89 95 99 103 106 108 109 113 120 121 121 118 111 111 105 100 100 96 99 99 99 105 109 110 107 105 110 111 109 106
9 17 24 30 34 39 44 48 52 56 57 59 63 67 72 81 92 97 99 105 109 111 114 116 119 123 124 124 119 115 114 114 112 111 109 111 111 113 110 112 117 121 123 126
6 10 11 18 26 28 32 36 44 48 51 53 54 59 64 70 74 80 90 98 102 106 110 113 115 117 122 129 132 133 133 131 128 126 123 121 121 123 127 129 128 132 136 138
19 11 6 13 17 20 22 26 34 38 41 43 46 46 52 58 63 70 76 82 89 96 104 111 115 117 122 126 130 137 141 141 140 137 131 131 136 135 135 132 131 134 138 141
19 18 16 14 6 8 13 17 24 30 38 41 41 42 41 45 51 58 66 72 78 85 93 101 107 110 116 122 127 129 131 136 141 144 146 148 145 143 145 150 150 148 150 153
12 15 19 15 14 15 13 13 12 12 14 21 31 37 43 43 47 52 56 61 66 71 74 79 84 90 97 104 111 117 122 126 130 135 142 146 147 148 152 157 160 160 160 162
9 9 9 11 12 14 16 16 16 14 12 10 9 8 10 14 19 25 29 32 37 44 51 57 63 68 71 76 81 87 92 99 106 113 120 128 135 142 148 153 155 157 159 160
2 2 3 4 5 7 10 11 10 9 7 6 7 7 7 8 9 12 16 19 21 25 30 34 37 41 46 51 56 61 65 70 75 80 85 91 98 105 112 120 127 133 138 142
3 4 3 2 3 4 5 4 6 6 4 5 5 7 8 9 10 12 13 16 17 19 22 26 31 35 39 43 46 49 53 56 59 63 68 73 78 82 87 92 97 101 105 109
6 6 5 5 7 9 9 10 11 12 10 10 11 10 9 13 15 18 20 22 24 26 29 31 34 37 40 43 46 49 53 57 61 65 68 72 76 79 82 84 86 87 89 91
11 8 8 9 10 10 12 13 11 12 14 13 12 14 17 19 21 24 26 26 26 28 31 34 38 40 44 47 50 54 58 62 64 67 70 72 74 75 77 78 79 80 81 80
17 17 18 16 14 14 14 16 18 18 17 14 19 21 23 25 28 31 32 34 34 35 39 41 44 47 50 52 55 59 61 63 64 65 65 66 66 68 68 68 70 70 69 69
26 27 25 22 23 21 20 20 21 23 24 24 24 25 27 30 33 37 40 41 43 46 48 50 53 54 57 60 60 58 57 57 57 55 55 56 58 58 59 60 60 60 60 60

GFSNGP_250_spd_123.txt.gz
Wind_Speed
39 69 90 101 97 94 92 95 98 96 94 89 84 83 80 79 76 71 65 63 63 57 55 50 47 44 41 38 36 32 30 27 23 22 19 16 13 12 13 14 16 15 17 20
26 51 76 92 100 98 94 92 92 97 96 93 92 85 83 82 78 75 72 67 66 61 60 57 52 53 46 45 44 42 37 35 31 30 27 25 22 21 20 19 22 23 21 23
16 37 58 84 95 102 100 97 94 96 96 97 93 92 86 86 86 83 81 73 72 65 64 63 60 57 52 51 49 47 44 40 38 36 35 33 30 29 27 27 24 24 27 28
27 27 47 64 93 101 103 101 98 99 99 98 95 94 93 92 92 87 83 81 77 74 69 67 65 62 59 58 54 54 52 46 46 44 41 41 34 34 31 31 36 34 37 37
36 26 42 56 73 97 104 105 103 99 97 98 100 96 97 95 93 89 85 86 81 80 79 73 68 67 65 64 62 57 55 53 51 48 44 40 38 35 33 41 44 44 41 41
37 32 41 54 65 81 101 101 105 103 98 97 99 98 99 100 97 94 91 90 83 80 78 77 74 71 69 69 66 65 60 58 57 55 49 44 43 43 43 46 54 50 48 48
36 37 40 54 64 76 87 103 108 106 103 101 98 97 97 100 98 94 97 95 90 85 83 80 78 74 74 73 73 72 70 66 63 59 55 54 50 49 48 48 55 59 57 60
36 40 46 53 63 73 84 100 106 109 108 105 103 100 98 94 98 95 94 99 96 91 89 86 85 83 80 78 79 78 77 74 72 64 60 61 61 61 62 64 71 75 67 66
38 40 50 54 61 70 79 87 101 108 109 106 106 105 101 97 92 95 94 94 96 96 94 91 91 87 87 82 81 82 81 79 75 75 71 70 65 65 67 67 70 77 75 72
39 38 50 54 59 67 75 82 91 101 107 109 108 106 104 100 95 91 95 98 91 93 92 90 92 91 89 92 93 89 87 81 83 83 77 76 70 72 71 74 79 83 77 79
36 34 48 56 58 65 70 77 81 95 107 109 107 106 104 103 99 94 90 97 99 100 89 94 95 91 91 91 92 94 93 92 84 81 79 78 77 77 76 77 82 88 89 85
30 34 43 53 57 62 68 70 77 85 96 104 106 106 105 103 100 96 94 91 96 101 101 90 85 83 82 87 89 92 94 94 91 91 88 85 84 84 82 85 86 85 86 81
26 32 38 49 55 58 63 68 71 75 82 92 100 106 106 103 100 99 96 96 94 95 102 101 100 102 92 88 94 89 93 96 96 97 98 94 92 87 89 83 83 85 86 87
18 26 33 41 49 54 60 63 66 68 71 76 85 94 99 101 100 101 100 100 99 97 96 102 104 106 106 99 99 95 92 95 91 96 91 91 94 95 91 92 88 97 96 94
11 18 27 37 46 50 52 56 61 66 66 66 72 80 88 95 98 100 101 101 101 102 101 100 103 107 110 112 108 107 103 104 98 97 100 99 101 101 101 101 103 98 103 105
7 11 19 28 37 43 46 47 52 57 63 65 65 66 72 81 88 95 100 102 104 103 104 103 103 105 106 112 114 119 120 112 113 105 104 104 102 103 104 106 107 106 109 107
4 4 11 16 25 34 37 40 44 47 52 58 62 63 63 65 71 80 90 96 100 105 107 107 108 108 108 111 115 120 122 122 125 122 114 117 116 109 111 110 110 114 118 123
20 6 2 9 16 23 29 32 35 40 42 45 51 56 60 64 65 68 73 81 88 94 101 105 108 110 113 114 113 114 121 127 130 131 131 126 123 116 117 119 121 118 120 124
16 18 14 7 13 18 22 27 30 32 33 37 42 46 51 55 58 61 65 69 74 80 87 93 99 105 111 113 115 116 118 119 121 126 130 131 132 133 129 124 125 129 131 129
11 12 13 14 11 7 14 20 24 27 30 33 37 40 43 46 48 51 55 58 63 69 74 79 84 88 93 97 103 108 112 114 117 120 124 127 129 136 141 143 145 147 147 148
7 7 9 8 10 12 13 12 10 12 18 24 29 33 37 40 42 42 44 46 48 50 54 57 61 65 69 74 79 84 89 94 98 103 108 114 121 126 131 137 140 142 144 146
9 5 3 6 8 11 10 9 10 10 9 8 7 8 11 14 17 19 24 28 30 30 33 36 40 44 47 51 55 58 61 64 69 74 80 86 92 96 100 105 111 116 122 128
8 6 5 3 2 9 11 11 10 10 10 9 10 11 12 13 13 13 13 15 17 19 21 22 24 27 31 35 40 44 47 51 55 59 63 67 72 77 82 87 92 97 101 105
10 8 7 7 7 8 8 9 10 10 11 10 11 13 14 14 14 14 14 15 16 18 20 24 27 31 34 37 40 43 46 49 52 56 61 65 70 74 78 82 86 89 92 94
18 15 13 11 9 11 12 14 13 14 14 15 18 19 17 16 16 17 17 19 21 24 24 27 32 34 37 40 42 44 49 53 56 59 63 67 71 74 77 80 81 83 85 86
20 23 22 20 19 19 16 15 17 19 20 19 20 19 23 25 26 25 24 25 25 26 27 31 36 39 42 43 45 51 54 55 58 62 64 66 68 69 70 72 75 76 76 75
18 22 28 31 29 27 25 24 26 24 25 25 25 29 29 30 33 33 33 32 33 33 37 40 42 46 50 51 54 57 59 61 61 59 58 59 60 60 63 65 65 65 65 64